[[{"header":{"parameterUnit":"m.s-1","parameterCategory":1,"la1":30.6,"la2":28.766,"lo1":-90.7593,"lo2":-88.6598,"dy":0.0162,"dx":0.0183,"nx":116,"ny":114,"refTime":"2023-04-05T12:00:00:Z","depth":0,"parameterNumber":2,"parameterNumberName":"U-component_of_WINDS"},"data":[0.0,0.0,0.0,0.0,0.0,0.0,0.0,0.0,0.0,0.0,0.0,0.0,0.0,0.0,0.0,0.0,0.0,0.0,0.0,0.0,0.0,0.0,0.0,0.0,0.0,0.0,0.0,0.0,0.0,0.0,0.0,0.0,0.0,0.0,0.0,0.0,0.0,0.0,0.0,0.0,0.0,0.0,0.0,0.0,0.0,0.0,0.0,0.0,0.0,0.0,0.0,0.0,0.0,0.0,0.0,0.0,0.0,0.0,0.0,0.0,0.0,0.0,0.0,0.0,0.0,0.0,0.0,0.0,0.0,0.0,0.0,0.0,0.0,0.0,0.0,0.0,0.0,0.0,0.0,0.0,0.0,0.0,0.0,0.0,0.0,0.0,0.0,0.0,0.0,0.0,0.0,0.0,0.0,0.0,0.0,0.0,0.0,0.0,0.0,0.0,0.0,0.0,0.0,0.0,0.0,0.0,0.0,0.0,0.0,0.0,0.0,0.0,0.0,0.0,0.0,0.0,0.0,0.0,0.0,0.0,0.0,0.0,0.0,0.0,0.0,0.0,0.0,0.0,0.0,0.0,0.0,0.0,0.0,0.0,0.0,0.0,0.0,0.0,0.0,0.0,0.0,0.0,0.0,0.0,0.0,0.0,0.0,0.0,0.0,0.0,0.0,0.0,0.0,0.0,0.0,0.0,0.0,0.0,0.0,0.0,0.0,0.0,0.0,0.0,0.0,0.0,0.0,0.0,0.0,0.0,0.0,0.0,0.0,0.0,0.0,0.0,0.0,0.0,0.0,0.0,0.0,0.0,0.0,0.0,0.0,0.0,0.0,0.0,0.0,0.0,0.0,0.0,0.0,0.0,0.0,0.0,0.0,0.0,0.0,0.0,0.0,0.0,0.0,0.0,0.0,0.0,0.0,0.0,0.0,0.0,0.0,0.0,0.0,0.0,0.0,0.0,0.0,0.0,0.0,0.0,0.0,0.0,0.0,0.0,0.0,0.0,0.0,0.0,0.0,0.0,0.0,0.0,0.0,0.0,0.0,0.0,0.0,0.0,0.0,0.0,0.0,0.0,0.0,0.0,0.0,0.0,0.0,0.0,0.0,0.0,0.0,0.0,0.0,0.0,0.0,0.0,0.0,0.0,0.0,0.0,0.0,0.0,0.0,0.0,0.0,0.0,0.0,0.0,0.0,0.0,0.0,0.0,0.0,0.0,0.0,0.0,0.0,0.0,0.0,0.0,0.0,0.0,0.0,0.0,0.0,0.0,0.0,0.0,0.0,0.0,0.0,0.0,0.0,0.0,0.0,0.0,0.0,0.0,0.0,0.0,0.0,0.0,0.0,0.0,0.0,0.0,0.0,0.0,0.0,0.0,0.0,0.0,0.0,0.0,0.0,0.0,0.0,0.0,0.0,0.0,0.0,0.0,0.0,0.0,0.0,0.0,0.0,0.0,0.0,0.0,0.0,0.0,0.0,0.0,0.0,0.0,0.0,0.0,0.0,0.0,0.0,0.0,0.0,0.0,0.0,0.0,0.0,0.0,0.0,0.0,0.0,0.0,0.0,0.0,0.0,0.0,0.0,0.0,0.0,0.0,0.0,0.0,0.0,0.0,0.0,0.0,0.0,0.0,0.0,0.0,0.0,0.0,0.0,0.0,0.0,0.0,0.0,0.0,0.0,0.0,0.0,0.0,0.0,0.0,0.0,0.0,0.0,0.0,0.0,0.0,0.0,0.0,0.0,0.0,0.0,0.0,0.0,0.0,0.0,0.0,0.0,0.0,0.0,0.0,0.0,0.0,0.0,0.0,0.0,0.0,0.0,0.0,0.0,0.0,0.0,0.0,0.0,0.0,0.0,0.0,0.0,0.0,0.0,0.0,0.0,0.0,0.0,0.0,0.0,0.0,0.0,0.0,0.0,0.0,0.0,0.0,0.0,0.0,0.0,0.0,0.0,0.0,0.0,0.0,0.0,0.0,0.0,0.0,0.0,0.0,0.0,0.0,0.0,0.0,0.0,0.0,0.0,0.0,0.0,0.0,0.0,0.0,0.0,0.0,0.0,0.0,0.0,0.0,0.0,0.0,0.0,0.0,0.0,0.0,0.0,0.0,0.0,0.0,0.0,0.0,0.0,0.0,0.0,0.0,0.0,0.0,0.0,0.0,0.0,0.0,0.0,0.0,0.0,0.0,0.0,0.0,0.0,0.0,0.0,0.0,0.0,0.0,0.0,0.0,0.0,0.0,0.0,0.0,0.0,0.0,0.0,0.0,0.0,0.0,0.0,0.0,0.0,0.0,0.0,0.0,0.0,0.0,0.0,0.0,0.0,0.0,0.0,0.0,0.0,0.0,0.0,0.0,0.0,0.0,0.0,0.0,0.0,0.0,0.0,0.0,0.0,0.0,0.0,0.0,0.0,0.0,0.0,0.0,0.0,0.0,0.0,0.0,0.0,0.0,0.0,0.0,0.0,0.0,0.0,0.0,0.0,0.0,0.0,0.0,0.0,0.0,0.0,0.0,0.0,0.0,0.0,0.0,0.0,0.0,0.0,0.0,0.0,0.0,0.0,0.0,0.0,0.0,0.0,0.0,0.0,0.0,0.0,0.0,0.0,0.0,0.0,0.0,0.0,0.0,0.0,0.0,0.0,0.0,0.0,0.0,0.0,0.0,0.0,0.0,0.0,0.0,0.0,0.0,0.0,0.0,0.0,0.0,0.0,0.0,0.0,0.0,0.0,0.0,0.0,0.0,0.0,0.0,0.0,0.0,0.0,0.0,0.0,0.0,0.0,0.0,0.0,0.0,0.0,0.0,0.0,0.0,0.0,0.0,0.0,0.0,0.0,0.0,0.0,0.0,0.0,0.0,0.0,0.0,0.0,0.0,0.0,0.0,0.0,0.0,0.0,0.0,0.0,0.0,0.0,0.0,0.0,0.0,0.0,0.0,0.0,0.0,0.0,0.0,0.0,0.0,0.0,0.0,0.0,0.0,0.0,0.0,0.0,0.0,0.0,0.0,0.0,0.0,0.0,0.0,0.0,0.0,0.0,0.0,0.0,0.0,0.0,0.0,0.0,0.0,0.0,0.0,0.0,0.0,0.0,0.0,0.0,0.0,0.0,0.0,0.0,0.0,0.0,0.0,0.0,0.0,0.0,0.0,0.0,0.0,0.0,0.0,0.0,0.0,0.0,0.0,0.0,0.0,0.0,0.0,0.0,0.0,0.0,0.0,0.0,0.0,0.0,0.0,0.0,0.0,0.0,0.0,0.0,0.0,0.0,0.0,0.0,0.0,0.0,0.0,0.0,0.0,0.0,0.0,0.0,0.0,0.0,0.0,0.0,0.0,0.0,0.0,0.0,0.0,0.0,0.0,0.0,0.0,0.0,0.0,0.0,0.0,0.0,0.0,0.0,0.0,0.0,0.0,0.0,0.0,0.0,0.0,0.0,0.0,0.0,0.0,0.0,0.0,0.0,0.0,0.0,0.0,0.0,0.0,0.0,0.0,0.0,0.0,0.0,0.0,0.0,0.0,0.0,0.0,0.0,0.0,0.0,0.0,0.0,0.0,0.0,0.0,0.0,0.0,0.0,0.0,0.0,0.0,0.0,0.0,0.0,0.0,0.0,0.0,0.0,0.0,0.0,0.0,0.0,0.0,0.0,0.0,0.0,0.0,0.0,0.0,0.0,0.0,0.0,0.0,0.0,0.0,0.0,0.0,0.0,0.0,0.0,0.0,0.0,0.0,0.0,0.0,0.0,0.0,0.0,0.0,0.0,0.0,0.0,0.0,0.0,0.0,0.0,0.0,0.0,0.0,0.0,0.0,0.0,0.0,0.0,0.0,0.0,0.0,0.0,0.0,0.0,0.0,0.0,0.0,0.0,0.0,0.0,0.0,0.0,0.0,0.0,0.0,0.0,0.0,0.0,0.0,0.0,0.0,0.0,0.0,0.0,0.0,0.0,0.0,0.0,0.0,0.0,0.0,0.0,0.0,0.0,0.0,0.0,0.0,0.0,0.0,0.0,0.0,0.0,0.0,0.0,0.0,0.0,0.0,0.0,0.0,0.0,0.0,0.0,0.0,0.0,0.0,0.0,0.0,0.0,0.0,0.0,0.0,0.0,0.0,0.0,0.0,0.0,0.0,0.0,0.0,0.0,0.0,0.0,0.0,0.0,0.0,0.0,0.0,0.0,0.0,0.0,0.0,0.0,0.0,0.0,0.0,0.0,0.0,0.0,0.0,0.0,0.0,0.0,0.0,0.0,0.0,0.0,0.0,0.0,0.0,0.0,0.0,0.0,0.0,0.0,0.0,0.0,0.0,0.0,0.0,0.0,0.0,0.0,0.0,0.0,0.0,0.0,0.0,0.0,0.0,0.0,0.0,0.0,0.0,0.0,0.0,0.0,0.0,0.0,0.0,0.0,0.0,0.0,0.0,0.0,0.0,0.0,0.0,0.0,0.0,0.0,0.0,0.0,0.0,0.0,0.0,0.0,0.0,0.0,0.0,0.0,0.0,0.0,0.0,0.0,0.0,0.0,0.0,0.0,0.0,0.0,0.0,0.0,0.0,0.0,0.0,0.0,0.0,0.0,0.0,0.0,0.0,0.0,0.0,0.0,0.0,0.0,0.0,0.0,0.0,0.0,0.0,0.0,0.0,0.0,0.0,0.0,0.0,0.0,0.0,0.0,0.0,0.0,0.0,0.0,0.0,0.0,0.0,0.0,0.0,0.0,0.0,0.0,0.0,0.0,0.0,0.0,0.0,0.0,0.0,0.0,0.0,0.0,0.0,0.0,0.0,0.0,0.0,0.0,0.0,0.0,0.0,0.0,0.0,0.0,0.0,0.0,0.0,0.0,0.0,0.0,0.0,0.0,0.0,0.0,0.0,0.0,0.0,0.0,0.0,0.0,0.0,0.0,0.0,0.0,0.0,0.0,0.0,0.0,0.0,0.0,0.0,0.0,0.0,0.0,0.0,0.0,0.0,0.0,0.0,0.0,0.0,0.0,0.0,0.0,0.0,0.0,0.0,0.0,0.0,0.0,0.0,0.0,0.0,0.0,0.0,0.0,0.0,0.0,0.0,0.0,0.0,0.0,0.0,0.0,0.0,0.0,0.0,0.0,0.0,0.0,0.0,0.0,0.0,0.0,0.0,0.0,0.0,0.0,0.0,0.0,0.0,0.0,0.0,0.0,0.0,0.0,0.0,0.0,0.0,0.0,0.0,0.0,0.0,0.0,0.0,0.0,0.0,0.0,0.0,0.0,0.0,0.0,0.0,0.0,0.0,0.0,0.0,0.0,0.0,0.0,0.0,0.0,0.0,0.0,0.0,0.0,0.0,0.0,0.0,0.0,0.0,0.0,0.0,0.0,0.0,0.0,0.0,0.0,0.0,0.0,0.0,0.0,0.0,0.0,0.0,0.0,0.0,0.0,0.0,0.0,0.0,0.0,0.0,0.0,0.0,0.0,0.0,0.0,0.0,0.0,0.0,0.0,0.0,0.0,0.0,0.0,0.0,0.0,0.0,0.0,0.0,0.0,0.0,0.0,0.0,0.0,0.0,0.0,0.0,0.0,0.0,0.0,0.0,0.0,0.0,0.0,0.0,0.0,0.0,0.0,0.0,0.0,0.0,0.0,0.0,0.0,0.0,0.0,0.0,0.0,0.0,0.0,0.0,0.0,0.0,0.0,0.0,0.0,0.0,0.0,0.0,0.0,0.0,0.0,0.0,0.0,0.0,0.0,0.0,0.0,0.0,0.0,0.0,0.0,0.0,0.0,0.0,0.0,0.0,0.0,0.0,0.0,0.0,0.0,0.0,0.0,0.0,0.0,0.0,0.0,0.0,0.0,0.0,0.0,0.0,0.0,0.0,0.0,0.0,0.0,0.0,0.0,0.0,0.0,0.0,0.0,0.0,0.0,0.0,0.0,0.0,0.0,0.0,0.0,0.0,0.0,0.0,0.0,0.0,0.0,0.0,0.0,0.0,0.0,0.0,0.0,0.0,0.0,0.0,0.0,0.0,0.0,0.0,0.0,0.0,0.0,0.0,0.0,0.0,0.0,0.0,0.0,0.0,0.0,0.0,0.0,0.0,0.0,0.0,0.0,0.0,0.0,0.0,3.6552,3.6338,0.0,0.0,0.0,0.0,0.0,0.0,0.0,0.0,0.0,0.0,0.0,0.0,0.0,0.0,0.0,0.0,0.0,0.0,0.0,0.0,0.0,0.0,0.0,0.0,0.0,0.0,0.0,0.0,0.0,0.0,0.0,0.0,0.0,0.0,0.0,0.0,0.0,0.0,3.3177,3.3322,3.3452,3.3296,3.2965,3.2503,0.0,0.0,0.0,0.0,0.0,0.0,0.0,0.0,0.0,0.0,0.0,0.0,0.0,0.0,0.0,0.0,0.0,0.0,0.0,0.0,0.0,0.0,0.0,0.0,0.0,0.0,0.0,0.0,0.0,0.0,0.0,0.0,0.0,0.0,0.0,0.0,0.0,0.0,0.0,0.0,0.0,0.0,0.0,0.0,0.0,0.0,0.0,0.0,0.0,0.0,0.0,0.0,0.0,0.0,0.0,0.0,0.0,0.0,0.0,0.0,0.0,0.0,0.0,0.0,0.0,0.0,0.0,0.0,0.0,0.0,3.6509,3.6056,0.0,0.0,0.0,0.0,0.0,0.0,0.0,0.0,0.0,0.0,0.0,0.0,0.0,0.0,0.0,0.0,0.0,0.0,0.0,0.0,0.0,0.0,0.0,2.8983,2.929,2.998,3.0083,3.0359,0.0,0.0,0.0,0.0,0.0,0.0,0.0,3.2546,3.3198,3.3599,3.3825,3.4034,3.4311,3.4014,3.3546,3.2918,3.3577,0.0,0.0,0.0,0.0,0.0,0.0,0.0,0.0,0.0,0.0,0.0,0.0,0.0,0.0,0.0,0.0,0.0,0.0,0.0,0.0,0.0,0.0,0.0,0.0,0.0,0.0,0.0,0.0,0.0,0.0,0.0,0.0,0.0,0.0,0.0,0.0,0.0,0.0,0.0,0.0,0.0,0.0,0.0,0.0,0.0,0.0,0.0,0.0,0.0,0.0,0.0,0.0,0.0,0.0,0.0,0.0,0.0,0.0,0.0,0.0,0.0,0.0,0.0,3.8743,3.8514,3.8489,3.8489,3.7956,3.6978,3.6428,3.5754,3.5121,3.6129,0.0,0.0,0.0,0.0,0.0,0.0,0.0,0.0,0.0,0.0,0.0,0.0,0.0,0.0,0.0,0.0,0.0,0.0,0.0,0.0,0.0,2.9467,2.9923,3.0156,3.0379,3.0596,3.081,0.0,0.0,0.0,0.0,0.0,3.2293,3.2985,3.3322,3.3272,3.3684,3.3923,3.3946,3.3932,3.3923,3.4002,3.3936,3.3892,3.393,0.0,0.0,0.0,0.0,0.0,0.0,0.0,0.0,0.0,0.0,0.0,0.0,0.0,0.0,0.0,0.0,0.0,0.0,0.0,0.0,0.0,0.0,0.0,0.0,0.0,0.0,0.0,0.0,0.0,0.0,0.0,0.0,0.0,0.0,0.0,0.0,0.0,0.0,0.0,0.0,0.0,3.4577,3.4675,0.0,0.0,0.0,0.0,0.0,0.0,0.0,0.0,0.0,0.0,0.0,0.0,0.0,3.8891,3.8522,3.8439,3.8489,3.8632,3.8549,3.8512,3.8503,3.8503,3.8377,3.8135,3.7545,0.0,3.6463,3.6616,0.0,0.0,0.0,0.0,0.0,0.0,0.0,0.0,0.0,0.0,0.0,0.0,0.0,0.0,0.0,0.0,0.0,0.0,0.0,0.0,0.0,2.9581,3.0099,3.0935,3.1074,3.1338,3.1769,3.202,0.0,0.0,0.0,3.2838,3.242,3.3728,3.4507,3.4706,3.4841,3.4915,3.4915,3.4836,3.4858,3.4913,3.485,3.4726,3.4653,3.5118,0.0,0.0,0.0,0.0,0.0,0.0,0.0,0.0,0.0,0.0,0.0,0.0,0.0,0.0,0.0,0.0,0.0,0.0,0.0,0.0,0.0,0.0,0.0,0.0,0.0,0.0,0.0,0.0,0.0,0.0,0.0,0.0,0.0,0.0,0.0,0.0,0.0,0.0,0.0,3.5262,3.5733,3.6026,3.6631,3.7039,0.0,0.0,0.0,0.0,0.0,0.0,0.0,0.0,0.0,3.8583,3.8789,3.9114,3.9552,3.9226,3.9223,3.9555,3.9209,3.8835,3.8442,3.8442,3.842,3.8384,3.8131,3.7867,3.7636,3.7284,3.7264,3.7484,0.0,0.0,0.0,0.0,3.7291,3.6958,0.0,0.0,0.0,0.0,0.0,0.0,0.0,0.0,0.0,0.0,0.0,0.0,2.9509,2.9887,3.0519,3.1522,3.1891,3.2224,3.2592,3.2719,3.2756,3.2666,3.3121,3.3223,3.288,3.4302,3.5321,3.5832,3.5696,3.5661,3.5661,3.5546,3.5511,3.5511,3.5511,3.5413,3.5298,3.5855,3.607,3.607,0.0,0.0,0.0,0.0,0.0,0.0,0.0,0.0,0.0,0.0,0.0,0.0,0.0,0.0,0.0,0.0,0.0,0.0,0.0,0.0,0.0,0.0,0.0,0.0,0.0,0.0,0.0,0.0,0.0,0.0,0.0,0.0,0.0,0.0,0.0,0.0,0.0,3.6336,3.6977,3.7331,3.7614,3.7827,0.0,0.0,0.0,0.0,0.0,0.0,3.937,3.9571,3.9524,3.9173,3.923,3.9449,3.9882,3.9614,3.9731,4.0167,3.9532,3.9012,3.8665,3.8654,3.8634,3.8615,3.8615,3.8615,3.8559,3.7814,3.7335,3.7108,3.7555,3.7544,3.7338,3.7615,3.7463,3.711,0.0,0.0,0.0,0.0,0.0,0.0,0.0,0.0,0.0,0.0,0.0,2.9657,2.9452,3.0646,3.1528,3.1584,3.2643,3.3116,3.2647,3.3068,3.3374,3.3367,3.3391,3.3634,3.4101,3.4515,3.5047,3.5712,3.5587,3.5497,3.5497,3.5489,3.5511,3.5511,3.5511,3.5497,3.55,3.5647,3.5728,3.5744,3.5941,0.0,0.0,0.0,0.0,0.0,0.0,0.0,0.0,0.0,0.0,0.0,0.0,0.0,0.0,0.0,0.0,0.0,0.0,0.0,0.0,0.0,0.0,0.0,0.0,0.0,0.0,0.0,0.0,0.0,0.0,0.0,0.0,0.0,0.0,0.0,0.0,0.0,0.0,3.8363,3.7789,0.0,0.0,0.0,0.0,3.9558,3.9457,3.937,3.9391,3.9999,3.9806,3.8589,4.0311,4.0383,3.8503,3.9163,3.9523,3.9542,3.8795,3.8773,3.934,3.9277,3.9258,3.9254,3.9254,3.9254,3.9173,3.7983,3.7826,3.8304,3.8325,3.8689,3.9102,3.8548,3.8331,3.832,0.0,0.0,0.0,0.0,0.0,0.0,0.0,0.0,2.8769,2.8615,2.9192,2.9732,3.0012,3.0894,3.1821,3.2691,3.3057,3.3362,3.3619,3.3821,3.3922,3.3922,3.4321,3.495,3.5787,3.5078,3.5186,3.6225,3.5731,3.5511,3.5511,3.5511,3.5511,3.5511,3.5511,3.5511,3.5489,3.5554,3.5621,3.5712,3.5776,3.5895,0.0,0.0,0.0,0.0,0.0,0.0,0.0,0.0,0.0,0.0,0.0,0.0,0.0,0.0,0.0,0.0,0.0,0.0,0.0,0.0,0.0,0.0,0.0,0.0,0.0,0.0,0.0,0.0,0.0,0.0,0.0,0.0,0.0,0.0,0.0,0.0,0.0,3.9745,3.9182,0.0,3.9131,3.9077,3.9347,4.0078,4.0074,4.0238,4.0666,4.0915,4.0846,4.0399,4.0625,4.0607,4.0327,4.0597,4.0467,4.0006,4.0195,3.9939,3.9327,3.9317,3.9513,3.9873,3.9873,4.0106,4.042,4.0002,3.9497,3.8982,3.8982,3.9102,3.9264,3.9063,3.921,3.9541,0.0,0.0,0.0,0.0,0.0,0.0,0.0,0.0,2.8744,2.8792,2.9397,3.0062,3.0771,3.159,3.2453,3.3414,3.3743,3.385,3.3799,3.4226,3.4378,3.4134,3.4935,3.5669,3.6351,3.5457,3.5377,3.6156,3.5729,3.5511,3.5511,3.5511,3.5631,3.5848,3.5848,3.5938,3.6139,3.6139,3.5944,3.5637,3.5886,3.5931,3.5879,0.0,0.0,0.0,0.0,0.0,0.0,0.0,0.0,0.0,0.0,0.0,0.0,0.0,0.0,0.0,0.0,0.0,0.0,0.0,0.0,0.0,0.0,0.0,0.0,0.0,0.0,0.0,0.0,0.0,0.0,0.0,0.0,0.0,0.0,3.8931,3.8826,4.0097,3.9751,3.9481,3.9729,3.9729,4.0038,4.0705,4.0735,4.0821,4.106,4.1498,4.1406,4.0705,4.1136,4.117,4.07,4.1142,4.1118,4.0594,4.0822,4.07,4.0236,4.0017,4.0133,4.0513,4.0513,4.0718,4.1086,4.1086,4.0637,3.9904,3.9904,3.9904,3.9904,3.9904,4.0103,4.0325,0.0,0.0,0.0,0.0,0.0,0.0,0.0,2.8585,2.8736,2.9178,2.9909,3.0767,3.1647,3.2738,3.3497,3.3744,3.463,3.4592,3.3195,3.4311,3.4744,3.4068,3.5119,3.5734,3.5696,3.5578,3.5511,3.5511,3.5511,3.5519,3.5541,3.5541,3.5908,3.6523,3.6523,3.6844,3.7396,3.7396,3.6678,3.5631,3.6276,3.6233,3.5862,0.0,0.0,0.0,0.0,0.0,0.0,0.0,0.0,0.0,0.0,0.0,0.0,0.0,0.0,0.0,0.0,0.0,0.0,0.0,0.0,0.0,0.0,0.0,0.0,0.0,0.0,0.0,0.0,0.0,0.0,0.0,0.0,0.0,3.8702,3.9305,3.9655,3.9508,3.9481,3.9729,4.0367,4.0427,4.0705,4.1373,4.1414,4.1138,4.0529,4.1714,4.1467,3.9494,4.191,4.2024,3.9401,4.0677,4.1269,4.119,4.0549,4.09,4.2057,4.141,4.1113,4.1113,4.1113,4.1141,4.1168,4.1168,4.1168,4.1141,4.1113,4.1086,4.1086,4.1086,4.0935,4.0678,0.0,0.0,0.0,0.0,0.0,0.0,0.0,2.8466,2.8787,2.9719,3.0379,3.1297,3.2643,3.3279,3.3924,3.4706,3.4834,3.4877,3.4952,3.5284,3.5443,3.5232,3.6013,3.6165,3.5562,3.5514,3.5511,3.5511,3.6006,3.6216,3.6246,3.6678,3.6977,3.7165,3.7165,3.7246,3.7396,3.7396,3.7186,3.6887,3.7075,3.7071,3.6972,0.0,0.0,0.0,0.0,0.0,0.0,0.0,0.0,0.0,0.0,0.0,0.0,0.0,0.0,0.0,0.0,0.0,0.0,0.0,0.0,0.0,0.0,0.0,0.0,0.0,0.0,0.0,0.0,0.0,0.0,0.0,4.0013,4.0652,4.0863,4.0073,4.0003,4.1413,4.1164,4.0915,4.1094,4.1134,4.1403,4.2071,4.1665,4.1725,4.2466,4.2385,4.2255,4.214,4.2365,4.2117,4.1339,4.1697,4.1624,4.1126,4.1445,4.1505,4.1376,4.1179,4.1342,4.1749,4.1749,4.2005,4.2412,4.2412,4.2412,4.2331,4.1451,4.1086,4.1086,4.1086,4.1088,4.111,0.0,0.0,0.0,0.0,0.0,0.0,0.0,2.8448,2.9039,3.0831,3.104,3.1891,3.4142,3.4311,3.4546,3.5337,3.5247,3.5136,3.5178,3.5208,3.5329,3.5613,3.5996,3.5968,3.5519,3.5789,3.5908,3.5908,3.6567,3.6866,3.6866,3.7255,3.7545,3.7823,3.7823,3.7964,3.8234,3.8234,3.8234,3.8234,3.8234,3.7896,3.7434,3.7811,3.7846,3.7625,3.6982,3.6736,3.6647,3.611,0.0,0.0,0.0,0.0,0.0,0.0,0.0,0.0,0.0,0.0,0.0,0.0,0.0,0.0,0.0,0.0,0.0,0.0,0.0,0.0,0.0,0.0,0.0,0.0,4.093,4.1684,4.1954,4.098,4.0666,4.1832,4.1892,4.1832,4.1832,4.2052,4.2372,4.2741,4.2394,4.2505,4.3275,4.2863,4.2677,4.2783,4.2642,4.2293,4.1693,4.1978,4.1899,4.1478,4.187,4.1996,4.1858,4.1858,4.2059,4.2385,4.2385,4.2587,4.29,4.2791,4.2743,4.2662,0.0,0.0,0.0,0.0,4.145,4.1588,0.0,0.0,0.0,0.0,0.0,0.0,0.0,2.8631,2.9514,3.2163,3.1893,3.2609,3.5679,3.5457,3.5265,3.5651,3.568,3.5367,3.4653,3.4735,3.5019,3.5481,3.5571,3.5579,3.5511,3.6156,3.6493,3.6493,3.7195,3.7516,3.7516,3.7575,3.7934,3.852,3.852,3.8832,3.9391,3.9391,3.9391,3.9391,3.9391,3.8682,3.7712,3.8486,3.8426,3.7892,3.7963,3.7975,3.7937,3.7943,0.0,0.0,0.0,0.0,0.0,0.0,0.0,0.0,0.0,0.0,0.0,0.0,0.0,0.0,0.0,0.0,0.0,0.0,0.0,0.0,0.0,0.0,0.0,0.0,4.1278,4.1822,4.2431,4.2002,4.1603,4.1603,4.2131,4.2491,4.2491,4.305,4.3419,4.3419,4.3274,4.3282,4.3521,4.3192,0.0,0.0,0.0,4.2519,4.1315,4.1886,4.2161,4.2114,4.2114,4.2385,4.2913,4.2913,4.2913,4.2913,4.2913,4.2913,4.2888,4.2621,4.2487,4.2487,4.2704,4.2655,4.2401,4.1882,4.1858,4.1993,0.0,0.0,0.0,0.0,0.0,0.0,0.0,2.9538,3.0409,3.2892,3.3074,3.3733,3.5778,3.5749,3.5593,3.5704,3.5589,3.5462,3.531,3.6267,3.6447,3.5541,3.6006,3.6066,3.5511,3.6156,3.6493,3.6493,3.7652,3.8221,3.8221,3.8772,3.9092,3.9212,3.9212,3.9272,3.9391,3.9391,3.9391,3.9391,3.9391,3.9242,3.9032,3.9197,3.9176,3.9023,3.8676,3.8439,3.8296,3.8179,3.8102,3.8099,3.836,3.8383,0.0,0.0,0.0,0.0,0.0,0.0,0.0,0.0,0.0,0.0,0.0,0.0,0.0,0.0,0.0,0.0,0.0,0.0,0.0,4.1959,4.2541,4.298,4.31,4.3,4.2921,4.2921,4.304,4.313,4.313,4.3728,4.4117,4.4117,4.355,4.3707,4.4846,4.3248,4.2739,4.3692,4.3267,4.2863,4.256,4.2692,4.2746,4.2723,4.2723,0.0,4.2913,4.2913,4.2913,4.2913,4.2913,4.2913,4.2888,4.2621,4.2362,4.219,4.2213,4.2227,4.2141,4.182,4.1734,4.1734,0.0,0.0,0.0,0.0,0.0,0.0,0.0,3.0135,3.114,3.346,3.3201,3.367,3.5951,3.5289,3.4844,3.5183,3.5092,3.513,3.5481,3.6109,3.6169,3.5519,3.5818,3.5998,3.5998,3.6626,3.7114,3.7443,3.8422,3.8901,3.8892,3.9242,3.9391,3.9391,3.9391,3.9391,3.9391,3.9391,3.9391,3.9391,3.9391,3.9391,3.9391,3.9391,3.9391,3.937,3.9118,3.9002,3.8876,3.8818,3.8823,3.8866,3.9047,3.8954,3.8686,0.0,0.0,0.0,0.0,0.0,0.0,0.0,0.0,0.0,0.0,0.0,0.0,0.0,0.0,4.0516,4.1344,0.0,4.2188,4.275,4.31,4.3419,4.3758,4.3818,4.3818,4.3818,4.3818,4.3938,4.4277,4.4606,4.4796,4.4796,4.4073,4.4134,4.5183,4.3494,4.2969,4.4013,4.3321,4.2946,4.2885,4.2913,4.2913,4.2913,4.2913,4.284,4.2706,4.2706,4.2645,4.2509,4.2631,4.2706,4.2694,4.2748,4.2582,4.2384,4.2689,4.2498,4.2053,4.1808,4.1783,4.187,0.0,0.0,0.0,0.0,0.0,0.0,0.0,3.0823,3.1813,3.384,3.3211,3.3448,3.5768,3.4699,3.4069,3.4663,3.4726,3.4961,3.5459,3.5631,3.5639,3.5519,3.5511,3.5818,3.6493,3.7105,3.7734,3.8401,3.9071,3.9391,3.9391,3.9391,3.9391,3.9391,3.9391,3.9391,3.9421,3.9541,3.9601,3.961,3.9729,3.972,3.9601,3.9601,3.9511,3.9391,3.9391,3.9391,3.94,3.9436,3.9652,3.9895,3.9931,3.9675,3.9373,3.9247,3.9216,0.0,0.0,0.0,0.0,0.0,0.0,0.0,0.0,4.0517,4.0772,4.0905,4.1032,4.1406,4.2381,4.267,4.293,4.3429,4.3599,4.3878,4.4426,4.4486,4.4546,4.4655,4.4566,4.4696,4.5244,4.5424,4.5484,4.5484,4.4741,4.4602,4.5361,4.3808,4.3247,4.3993,4.3295,4.2913,4.2913,4.2913,4.2913,4.2913,4.2913,4.2803,4.2584,4.2584,4.2423,4.2203,4.2426,4.2499,4.2514,4.2787,4.2724,4.255,4.309,4.2794,4.2006,4.2048,4.2189,4.2339,0.0,0.0,0.0,0.0,0.0,0.0,0.0,0.0,3.2605,3.393,3.3987,3.408,3.4566,3.4447,3.4416,3.4693,3.5218,3.5545,3.5489,3.6058,3.6118,3.5519,3.5511,3.5818,3.6493,3.7105,3.7734,3.8401,3.9071,3.9391,3.9391,3.9391,3.9391,3.9391,3.9391,3.9391,3.9451,4.0029,4.0277,4.0337,4.0945,4.0825,4.0277,4.0277,3.9909,3.9391,3.9391,3.9391,3.9418,3.9607,4.0088,4.0625,4.081,4.0812,4.0675,4.02,3.9659,3.9095,3.861,3.8878,3.9315,3.9315,4.0218,4.1023,0.0,4.1603,4.2518,4.2237,4.261,4.305,4.316,4.3708,4.4097,4.4187,4.4696,4.5095,4.5195,4.5185,4.5424,4.6001,4.5563,4.5225,4.5285,4.5832,4.6181,4.6181,4.5432,4.5297,4.6063,4.4071,4.3247,4.3993,4.3295,4.2913,4.2913,4.2913,4.2913,4.2913,4.2913,4.2888,4.2876,4.2876,4.2718,4.2462,4.2499,4.2499,4.2499,4.2555,4.2396,4.2199,4.2501,4.2262,4.1878,4.2922,4.3331,4.3292,0.0,0.0,0.0,0.0,0.0,0.0,0.0,0.0,0.0,3.3563,3.3403,3.3447,3.4003,3.3836,3.3916,3.4462,3.4878,3.5262,3.5591,3.6184,3.6186,3.5519,3.5511,3.5818,3.6493,3.7105,3.7734,3.8401,3.9071,3.9391,3.9391,3.9391,3.9391,3.9391,3.9391,3.961,3.9999,4.0277,4.0645,4.1005,4.1283,4.1005,4.0397,4.0397,3.9969,3.9391,3.9391,3.9391,0.0,3.9949,4.0286,4.0604,4.1078,4.1038,4.0758,4.0423,4.0363,4.0506,4.1003,4.1114,4.1214,4.1711,4.2327,4.2741,4.2487,4.2909,4.3292,4.2969,4.313,4.3419,4.3818,4.4117,4.4426,4.4825,4.5125,4.5424,4.5832,4.5892,4.6132,4.679,4.664,4.6471,4.6471,4.673,4.6869,4.6869,4.6171,4.5871,4.6191,4.4937,4.4118,4.4017,4.3697,4.3343,4.2913,4.2913,4.2913,4.2913,4.2913,4.2828,4.2682,4.2682,4.2621,4.2499,4.2499,4.2597,4.2758,4.2935,4.2973,4.2913,4.3324,4.3357,4.313,4.2791,4.2599,4.2435,0.0,0.0,0.0,0.0,0.0,0.0,0.0,0.0,0.0,0.0,3.3005,3.2986,3.355,3.3272,3.3343,3.4046,3.4432,3.484,3.5394,3.5966,3.6056,3.5519,3.5511,3.5818,3.6493,3.6926,3.7554,3.8401,3.8901,3.9212,3.9391,3.9391,3.9391,3.9391,3.9391,3.978,4.0397,4.0606,4.1064,4.1703,4.1843,4.1414,4.0675,4.0675,4.0148,3.9391,3.9391,3.9391,3.9481,3.9969,4.0247,4.0496,4.105,4.096,4.0691,4.059,4.0864,4.1394,4.2213,4.2498,4.2675,4.326,4.3593,4.3783,4.3616,4.3587,4.3597,4.3579,4.3569,4.3788,4.4456,4.4725,4.5014,4.5503,4.5723,4.6022,4.651,4.657,4.676,4.7249,4.7309,4.7309,4.7309,4.7309,4.7309,4.7309,4.6613,4.6095,4.5916,4.5195,4.4457,4.3721,4.3697,4.3423,4.2925,4.2913,4.2913,4.2913,4.2913,4.2816,4.2621,4.2536,4.2548,4.2621,4.2709,4.29,4.3172,4.3598,4.3766,4.3793,4.4186,4.4284,4.4088,4.2965,4.2459,4.2272,0.0,0.0,0.0,0.0,0.0,0.0,0.0,0.0,0.0,0.0,0.0,0.0,0.0,3.2831,3.2832,3.3393,3.4032,3.4507,3.4715,3.534,3.5675,3.5519,3.5511,3.5818,3.6493,3.6515,3.7144,3.8401,3.8431,3.8751,3.9391,3.9391,3.9391,3.9391,3.9391,3.978,4.0427,4.1094,4.1772,4.2431,4.302,4.2482,4.1373,4.1373,4.0546,3.9391,3.9391,3.9391,3.9391,3.9421,3.9849,4.0434,4.0645,4.0709,4.0755,4.0919,4.1004,4.1022,4.1043,4.1796,4.2601,4.2612,4.2978,4.3309,4.3309,4.3309,4.3489,4.4147,4.4267,4.4486,4.5155,4.5802,4.6241,4.6271,4.682,4.7249,4.7279,4.7268,4.7279,4.7309,4.7309,4.7309,4.7309,4.7309,4.7309,4.7309,4.6613,4.5893,4.5173,4.4434,4.3697,4.2946,4.2922,4.2937,4.2913,4.2913,4.2913,4.2913,4.2913,4.2913,4.2888,4.2621,4.2645,4.2915,4.3226,4.3519,4.3821,4.442,4.4652,4.4652,4.4679,4.4527,4.4259,4.3873,4.3745,4.3706,0.0,0.0,0.0,0.0,0.0,0.0,0.0,0.0,0.0,0.0,0.0,0.0,0.0,0.0,0.0,0.0,3.4607,3.5101,3.5164,3.5916,3.6137,3.5637,3.5546,3.5609,3.5818,3.6276,3.6904,3.7734,3.8182,3.8751,3.9391,3.9391,3.9391,3.9421,3.9849,4.0427,4.1094,4.1772,4.2201,4.244,4.305,4.2542,4.1463,4.1892,4.1224,4.0058,0.0,3.9789,3.9481,3.9909,4.0309,4.066,4.1046,4.1053,4.0901,4.0964,4.0973,4.111,4.1849,4.2402,4.2837,4.3017,4.3169,4.33,4.33,4.3628,4.4027,4.4247,4.4307,4.4486,4.5195,4.5484,4.5773,4.6241,4.685,4.7309,4.7309,4.7309,4.7309,4.7309,4.7309,4.7309,4.7309,4.7309,4.7309,4.7309,4.7051,4.6822,4.6561,4.5859,4.5104,4.4375,4.3899,4.3375,4.2885,4.3305,4.3495,4.3495,4.3904,4.4094,4.4094,4.4007,4.4007,4.4082,4.4211,4.4305,4.4435,4.48,4.4966,4.4968,4.515,4.518,4.5062,4.4969,4.4824,4.456,0.0,0.0,0.0,0.0,0.0,0.0,0.0,0.0,0.0,0.0,0.0,0.0,0.0,0.0,0.0,0.0,0.0,3.5173,3.5045,3.597,3.6291,3.5704,3.5613,3.5554,3.5511,3.5908,3.6567,3.7396,3.7823,3.8512,3.9421,3.966,3.964,3.9421,4.0088,4.0765,4.1433,4.1862,4.2311,4.2741,4.291,4.2342,4.1463,4.1892,4.1373,0.0,4.0397,4.0118,3.9789,3.9969,4.012,4.035,4.0955,4.1194,4.1206,4.0973,4.1151,4.1603,4.2323,4.2793,4.3093,4.3269,4.3479,4.3658,4.3658,4.4187,4.4725,4.4965,4.4805,4.4845,4.5533,4.5454,4.5514,4.6181,4.6659,4.7029,4.7279,4.7309,4.7309,4.7309,4.7309,4.7309,4.7309,4.7309,4.7309,4.7309,4.707,4.6789,4.6517,4.5826,4.5172,4.4666,4.4169,4.3803,4.3537,4.3917,4.4107,4.4146,4.4501,4.4719,4.4719,4.4578,4.4578,4.4706,4.4794,4.5023,4.5357,4.5641,4.586,4.6075,4.6128,4.614,4.6127,4.6032,4.6028,4.5891,0.0,0.0,0.0,0.0,0.0,0.0,0.0,0.0,0.0,0.0,0.0,0.0,0.0,0.0,0.0,0.0,0.0,0.0,3.445,3.5562,3.6062,3.5744,3.572,3.5669,3.5514,3.5506,3.6126,3.7422,3.7404,3.8084,3.9439,4.0068,3.9999,3.9421,4.0088,4.0765,4.1343,4.1403,4.2073,4.309,4.2571,4.1952,4.1343,4.1403,4.1014,4.0457,4.0397,4.0427,4.0337,3.967,3.9481,3.9646,4.0495,4.1173,4.1577,4.0962,4.1564,4.241,4.244,4.2851,4.33,4.3329,4.3818,4.4307,4.4337,4.4885,4.5544,4.6181,4.5773,4.5514,4.6181,4.5743,4.5514,4.6181,4.633,4.657,4.7209,4.7309,4.7309,4.7309,4.7309,4.7309,4.7309,4.7339,4.7369,4.7369,4.6716,4.5967,4.5224,4.4542,4.4081,4.3907,4.3873,4.4107,4.4691,4.4746,4.4773,4.48,4.48,4.48,4.4787,4.4456,4.4494,4.4814,4.5088,4.5719,4.6564,4.6813,4.7243,4.774,4.7396,4.7243,4.7202,4.6937,4.7194,4.7444,0.0,0.0,0.0,0.0,0.0,0.0,0.0,0.0,0.0,0.0,0.0,0.0,0.0,0.0,0.0,0.0,0.0,0.0,3.4763,3.5798,3.632,3.6077,3.5989,3.591,3.5862,3.5726,3.6381,3.7864,3.7563,3.8162,3.9625,3.9652,3.9571,3.9421,4.0088,4.0487,4.0705,4.1194,4.1304,4.1165,4.1523,4.1254,4.0705,4.1224,4.1274,4.1074,4.0586,4.0726,4.1035,4.0367,4.0487,4.0952,4.1319,4.1462,4.1539,4.1878,4.2179,4.2491,4.293,4.319,4.3419,4.3938,4.4177,4.4426,4.4915,4.5563,4.6091,4.6271,4.5773,4.5514,4.6181,4.5743,4.5514,4.6181,4.6719,4.7089,4.7279,4.7309,4.7309,4.7309,4.7309,4.7309,4.7309,4.7758,4.8038,4.8038,4.7873,4.741,4.6625,4.637,4.5934,4.5315,4.476,4.4556,4.4719,4.5153,4.56,4.6034,4.6034,4.6034,4.6034,4.5956,4.5969,4.6061,4.6592,4.6958,4.7188,4.7242,4.7344,4.7436,4.6908,4.6557,4.632,4.625,4.6198,4.6091,0.0,0.0,0.0,0.0,0.0,0.0,0.0,0.0,0.0,0.0,0.0,0.0,0.0,0.0,0.0,0.0,0.0,0.0,0.0,3.5707,3.6207,3.6313,3.6187,3.6068,3.5997,3.5902,3.6552,3.799,3.738,3.7996,3.9705,3.949,3.9391,3.9421,4.0088,4.0397,4.0427,4.0795,4.0915,0.0,0.0,4.0735,4.0427,4.0825,4.0945,4.0945,4.0855,4.1283,4.1762,4.1403,4.1523,4.1821,4.1616,4.1859,4.2262,4.2371,4.2601,4.288,4.321,4.3509,4.3818,4.4217,4.4745,4.5194,4.5274,4.5832,4.6211,4.5922,4.5324,4.5065,4.5743,4.5324,4.5185,4.6151,4.661,4.6969,4.7268,4.7309,4.7309,4.7309,4.7309,4.7429,4.7698,4.8068,4.8427,4.8708,4.8113,4.7513,4.7073,4.6376,4.5909,4.5714,4.53,4.5207,4.5491,4.5817,4.6156,4.6509,4.6509,4.6509,4.6495,4.6218,4.6245,4.6482,4.6436,4.6719,4.7177,4.6875,4.6877,4.695,4.6473,4.6092,4.5822,4.5822,4.5737,4.5594,0.0,0.0,0.0,0.0,0.0,0.0,0.0,0.0,0.0,0.0,3.3421,0.0,0.0,0.0,0.0,0.0,0.0,0.0,0.0,0.0,3.5965,3.6484,3.6352,3.6203,3.6068,3.6037,3.6667,3.7944,3.7105,3.7707,3.959,3.9379,3.9302,3.9421,3.9999,4.0277,4.0277,4.0277,4.0606,4.1064,4.0487,4.0277,4.0277,0.0,4.0337,4.0487,4.1254,4.1881,4.2329,4.247,4.2521,4.2431,4.1852,4.2422,4.321,4.2661,4.288,4.33,4.33,4.3788,4.4326,4.4426,4.5373,4.6151,4.5574,4.5892,4.6121,4.5424,4.4766,4.4546,4.5304,4.4875,4.4875,4.6211,4.642,4.6629,4.7219,4.7309,4.7309,4.7309,4.7369,4.7668,4.8248,4.8457,4.8787,4.9366,4.8074,4.7207,4.7121,4.5931,4.5382,4.5708,4.5708,4.598,4.6481,4.6469,4.6469,4.6509,4.6456,4.6416,4.6403,4.5861,4.5861,4.6298,4.5608,4.5887,4.6746,4.6161,4.6134,4.6385,4.5955,4.5656,4.5491,4.5534,4.5543,4.5537,0.0,0.0,0.0,0.0,0.0,0.0,0.0,0.0,0.0,0.0,3.3962,3.3918,0.0,0.0,0.0,0.0,0.0,0.0,0.0,0.0,0.0,3.6639,3.6523,3.643,3.6398,3.6258,3.6617,3.758,3.6987,3.7525,3.91,3.8739,3.8871,3.9421,3.9511,3.9571,3.9571,3.9571,3.9631,3.9729,3.9631,3.9571,3.9571,3.9571,0.0,0.0,4.1802,4.2036,4.197,4.284,4.313,4.313,4.301,4.312,4.327,4.316,4.321,4.33,4.33,4.3788,4.4426,4.4975,4.5713,4.6271,4.6151,4.6211,4.6121,4.5424,4.4766,4.4655,4.5882,4.5563,4.5574,4.6909,4.7119,4.7189,4.7268,4.7309,4.7309,4.7309,4.7788,4.8158,4.8278,4.9243,4.992,5.0039,4.9097,4.8281,4.7783,4.7965,4.7554,4.6385,4.6346,4.64,4.6509,4.6232,4.6232,4.6509,4.6232,4.61,4.6086,4.5755,4.5542,4.5435,4.5776,4.6055,4.6215,4.5832,4.5884,4.6074,4.4999,4.47,4.4887,4.5182,4.524,4.5236,0.0,0.0,0.0,0.0,0.0,0.0,0.0,3.4521,3.4558,3.4429,3.4588,3.4726,3.477,3.439,3.4249,0.0,0.0,0.0,0.0,0.0,0.0,0.0,3.6469,3.6523,3.6592,3.6107,3.6368,3.7492,0.0,3.6924,3.8992,3.8236,3.8413,3.9391,3.9391,3.9391,3.9391,3.9391,3.9391,3.9391,3.9391,3.9391,3.9391,0.0,0.0,0.0,4.1814,4.2398,4.2974,4.3483,4.3807,4.3968,4.3848,4.3569,4.3359,4.3728,4.3569,4.3389,4.3728,4.4307,4.4975,4.5653,4.63,4.664,4.5952,4.5773,4.5503,4.4486,4.3997,4.4077,4.5074,4.4995,4.5204,4.655,4.7059,4.7309,4.7309,4.7608,4.7698,4.7339,4.7889,4.8438,4.8798,4.9301,4.9932,5.0662,4.9924,4.9128,4.8407,4.7894,4.7273,4.6508,4.6509,4.6509,4.6509,4.6337,4.6258,4.6245,4.6086,4.5835,4.5582,4.5261,4.5167,4.5233,4.55,4.5707,4.583,4.5827,4.5805,4.5777,4.521,4.4953,4.4914,4.5084,4.501,4.485,0.0,0.0,0.0,0.0,0.0,0.0,0.0,3.4871,3.4877,3.4823,3.5157,3.5489,3.5784,3.5009,3.4689,0.0,0.0,0.0,0.0,0.0,0.0,0.0,0.0,0.0,3.6808,0.0,0.0,3.7277,3.5798,0.0,0.0,0.0,0.0,0.0,3.9349,3.9391,3.9391,3.9391,3.9409,0.0,0.0,3.9463,0.0,0.0,0.0,0.0,0.0,4.265,4.366,4.3877,4.4204,4.4508,4.4388,4.3998,4.3658,4.3988,4.3848,4.3688,4.4167,4.4905,4.5623,4.6181,4.679,4.695,4.5614,4.5315,4.4915,4.3569,4.33,4.3509,4.4187,4.4307,4.4696,4.5882,4.664,4.7089,4.7089,4.7668,4.7948,4.7549,4.8098,4.8757,4.9426,4.9513,5.0,5.1111,5.0244,4.9415,4.8832,4.7258,4.6376,4.6376,4.6376,4.6376,4.6376,4.6376,4.6258,4.5993,4.5927,4.5689,4.5257,4.4945,4.4956,4.5277,4.521,4.5348,4.5609,4.5755,4.5765,4.5679,4.5608,4.5556,4.5486,4.5486,4.5334,4.516,0.0,0.0,0.0,0.0,0.0,0.0,0.0,3.5447,3.5447,3.5274,3.5458,3.5824,3.6438,3.5632,3.4951,0.0,0.0,0.0,0.0,0.0,0.0,0.0,0.0,0.0,0.0,0.0,0.0,3.6576,3.5653,0.0,0.0,0.0,0.0,0.0,0.0,3.9391,3.9391,3.9391,0.0,0.0,0.0,0.0,0.0,0.0,0.0,0.0,0.0,4.2544,4.2581,4.3448,4.3989,4.4364,4.4518,4.4529,4.4339,4.3599,4.3928,4.4459,4.4327,4.5224,4.6211,4.629,4.679,4.695,4.5614,4.5315,4.4915,4.3569,4.33,4.3509,4.4187,4.4307,4.4546,4.5274,4.5952,4.639,4.639,4.6969,4.7608,4.8128,4.8798,4.9445,5.0069,5.0669,5.1046,5.1176,4.9562,4.8621,4.8782,4.7037,4.6046,4.6046,4.6046,4.6046,4.6046,4.6046,4.602,4.5993,4.5742,4.5606,4.5558,4.5214,4.5248,4.554,4.5248,4.5303,4.5574,4.5296,4.5482,4.5924,4.5694,4.6071,4.6711,4.6711,4.6832,4.6963,0.0,0.0,0.0,0.0,0.0,0.0,3.5566,3.5633,3.565,3.5492,3.5543,3.5673,3.5798,3.5522,3.5406,3.5602,0.0,0.0,0.0,0.0,0.0,0.0,0.0,0.0,0.0,0.0,3.5503,3.5907,3.5033,0.0,0.0,0.0,0.0,0.0,0.0,3.9211,3.9571,3.9445,0.0,0.0,0.0,0.0,0.0,0.0,0.0,0.0,0.0,0.0,4.3189,4.398,4.4522,4.4837,4.4509,4.4694,4.4898,4.4268,4.4339,4.464,4.4847,4.5593,4.639,4.679,4.7089,4.695,4.5614,4.5315,4.4915,4.3569,4.33,4.3389,4.3658,4.3688,4.3908,4.4576,4.5264,4.5832,4.6241,4.7209,4.8008,4.8278,4.9194,4.992,5.0177,5.0366,5.0208,4.9574,4.8371,4.7651,4.76,4.6584,4.5927,4.5742,4.5914,4.5993,4.5993,4.6196,4.629,4.629,4.6352,4.6106,4.5586,4.5459,4.5474,4.5605,4.5794,4.6078,4.6378,4.6367,4.6612,4.7001,4.667,4.6898,4.7367,4.7367,4.7306,4.7176,0.0,0.0,0.0,0.0,0.0,3.5948,3.58,3.5817,3.58,3.5672,3.5656,3.5571,3.5372,3.5429,3.5585,3.5852,3.5139,0.0,0.0,0.0,0.0,0.0,0.0,0.0,0.0,0.0,3.5368,3.5678,3.4746,3.5209,0.0,0.0,3.7582,3.8555,0.0,0.0,0.0,0.0,0.0,0.0,0.0,0.0,0.0,0.0,0.0,0.0,0.0,0.0,0.0,0.0,0.0,4.4975,4.4243,4.4507,4.504,4.4689,4.478,4.5072,4.5486,4.6102,4.6719,4.7179,4.7149,4.67,4.5544,4.5155,4.4676,4.3539,4.33,4.33,4.33,4.33,4.3449,4.3938,4.4725,4.5373,4.5589,4.6997,4.7986,4.792,4.9119,5.0009,5.0177,5.0094,4.9513,4.8383,4.7536,4.6817,4.6203,4.5927,4.5689,4.5488,4.5675,4.5849,4.5996,4.6342,4.654,4.663,4.6794,4.658,4.5979,4.5879,4.597,4.6222,4.6429,4.6755,4.7131,4.7107,4.7335,4.7674,4.7324,4.7457,4.785,4.7747,4.7545,4.7294,0.0,0.0,0.0,0.0,0.0,0.0,3.6182,3.6068,3.5943,3.5834,3.5812,3.5729,3.5537,3.5514,3.5383,3.5128,3.5105,0.0,0.0,0.0,0.0,0.0,0.0,0.0,0.0,0.0,3.548,3.6091,3.5019,3.5206,3.6507,3.6971,3.7563,3.8227,0.0,0.0,0.0,0.0,0.0,0.0,0.0,0.0,0.0,0.0,0.0,0.0,0.0,0.0,0.0,0.0,0.0,0.0,0.0,4.3907,4.4621,4.4598,4.5213,4.5959,4.6237,4.679,4.7309,4.7309,4.679,4.6121,4.5454,4.4796,4.4127,4.3449,4.33,4.33,4.33,4.33,4.33,4.33,4.4426,4.4993,4.413,4.5915,4.7252,4.7045,4.8365,4.9535,5.0147,5.0094,4.9452,4.8091,4.7254,4.619,4.4803,4.5032,4.5207,4.5193,4.5207,4.547,4.5983,4.6337,4.6616,4.6895,4.6908,4.6888,4.6875,4.6542,4.6854,4.7648,4.7064,4.7153,4.7633,4.7049,4.7168,4.7674,4.7324,4.7604,4.8143,4.7821,4.7718,4.7615,0.0,0.0,0.0,0.0,0.0,0.0,0.0,3.6129,3.6073,3.5943,3.5878,3.5723,3.5605,3.552,3.5412,3.5251,3.5157,0.0,0.0,0.0,0.0,0.0,0.0,0.0,0.0,0.0,3.6098,3.6157,3.5837,3.5968,3.6507,3.6637,3.701,3.7533,3.8177,3.8789,0.0,0.0,0.0,0.0,0.0,0.0,4.0309,0.0,0.0,0.0,0.0,0.0,0.0,0.0,0.0,0.0,0.0,0.0,0.0,4.4303,4.4905,4.5444,4.5202,4.5631,4.6121,4.5975,4.5783,4.5443,4.4755,4.4456,4.4117,4.3449,4.33,4.33,4.33,4.33,4.3449,4.3908,4.4337,4.4844,4.5488,4.7355,4.8794,4.9141,5.0272,5.0627,4.9615,4.8981,4.8387,4.7753,4.6479,4.5408,4.4735,4.5182,4.5473,4.5473,4.5651,4.6023,4.6604,4.6913,4.7203,4.7515,4.771,4.767,4.7445,4.7342,4.7434,4.7703,4.7497,4.7645,4.7997,4.7586,4.7659,4.8011,4.7663,4.7821,4.8172,4.807,4.8041,4.7982,0.0,0.0,0.0,0.0,0.0,0.0,0.0,3.618,3.6186,3.6078,3.5948,3.5811,3.5684,3.5605,3.5469,3.5308,3.5227,0.0,0.0,0.0,0.0,0.0,0.0,0.0,0.0,3.6699,3.6758,3.6424,3.6258,3.6297,3.6515,3.6515,3.6791,3.7332,3.7998,3.863,0.0,0.0,0.0,0.0,0.0,0.0,4.0296,0.0,0.0,0.0,0.0,0.0,0.0,0.0,0.0,0.0,0.0,0.0,0.0,0.0,4.4301,4.5021,4.4981,4.5293,4.5553,4.5366,4.5095,4.4825,4.4396,4.4087,4.3818,4.3389,4.33,4.33,4.33,4.33,4.3449,4.3848,4.4366,4.4944,4.5687,4.7804,4.9591,5.0331,5.0655,5.0369,4.9297,4.8474,4.7768,4.7192,4.5954,4.5045,4.4708,4.5269,4.5687,4.5936,4.6103,4.6463,4.7055,4.7224,4.7512,4.7949,4.8117,4.8084,4.788,4.7762,4.7777,4.788,4.7762,4.7894,0.0,4.785,4.7909,4.8184,4.7836,4.7909,4.8187,4.8187,4.8187,4.8143,0.0,0.0,0.0,0.0,0.0,0.0,0.0,3.6284,3.6286,3.6231,3.6073,3.5948,3.5811,3.5672,3.5509,3.5326,0.0,0.0,0.0,0.0,0.0,0.0,0.0,0.0,0.0,3.7131,3.7389,3.688,3.6488,3.6387,3.6538,3.653,3.6838,3.7509,3.8177,3.8808,0.0,0.0,0.0,0.0,0.0,0.0,0.0,0.0,0.0,0.0,0.0,0.0,0.0,0.0,0.0,0.0,0.0,0.0,0.0,0.0,0.0,0.0,0.0,4.5484,4.5453,4.5237,4.4706,4.4247,4.4247,4.3758,0.0,4.33,4.33,4.33,4.33,4.33,4.3329,4.3359,4.4456,4.5272,4.5182,4.7564,4.967,5.065,4.9754,4.905,4.9071,4.8336,4.7449,4.6439,4.5622,4.5058,4.4787,4.5322,4.5936,4.6539,4.6606,4.6865,4.7359,4.7359,4.7661,4.8187,4.8187,4.8187,4.8172,4.788,4.7909,4.8172,4.788,4.7909,4.8198,4.7865,4.7924,4.8157,4.7865,4.7924,4.8187,4.8187,4.8187,4.8169,0.0,0.0,0.0,0.0,0.0,0.0,0.0,0.0,0.0,0.0,3.6121,3.5986,3.5954,3.5706,3.5492,0.0,0.0,0.0,0.0,0.0,0.0,0.0,0.0,0.0,0.0,3.7939,3.7908,3.7637,3.7543,3.7347,3.7044,3.6662,3.6786,3.731,3.8115,3.9112,0.0,0.0,0.0,0.0,0.0,0.0,0.0,0.0,0.0,0.0,4.2337,4.3042,0.0,0.0,0.0,0.0,0.0,0.0,0.0,0.0,4.3196,4.3949,4.4462,0.0,4.4325,4.4117,4.3798,4.3539,0.0,4.3419,4.33,4.33,4.33,4.33,4.33,4.33,4.3479,4.3997,4.4755,4.5642,4.6606,4.8371,4.9732,5.0286,4.937,4.8438,4.7732,4.6934,4.6376,4.6126,4.5301,4.4972,4.5374,4.595,4.6552,4.7086,4.7545,4.7873,4.7989,4.7989,4.8056,4.8187,4.8187,4.8187,4.8187,4.8114,4.8114,4.8187,4.8114,4.8114,4.8187,4.8099,4.8114,4.8172,4.8099,4.8114,4.8187,4.8187,4.8187,4.8172,0.0,0.0,0.0,0.0,0.0,0.0,0.0,0.0,0.0,0.0,0.0,3.5997,3.5997,3.5745,0.0,0.0,0.0,0.0,0.0,0.0,0.0,0.0,0.0,0.0,3.8182,3.8526,3.8537,3.8223,3.8223,3.7987,3.7506,3.7051,3.6968,3.7226,3.8109,3.9076,0.0,0.0,0.0,0.0,4.0513,0.0,0.0,0.0,0.0,0.0,4.2254,4.2817,0.0,4.4283,4.4591,4.4406,0.0,0.0,0.0,0.0,4.3544,4.411,4.4365,4.4208,4.3949,4.3744,4.3508,4.33,4.33,4.33,4.33,4.33,4.33,4.3379,4.3688,4.3509,4.3628,4.4606,4.5324,4.655,4.8764,4.9257,4.9585,5.0145,4.9229,4.805,4.6769,4.627,4.5835,4.5435,4.4965,4.4956,4.5557,4.6159,4.6734,4.7281,4.7885,4.8187,4.8187,4.8187,4.8187,4.8187,4.8187,4.8187,4.8187,4.8187,4.8187,4.8187,4.8187,4.8187,4.8187,4.8187,4.8187,4.8187,4.8187,4.8187,4.8187,4.8187,4.8187,4.8187,0.0,0.0,0.0,0.0,0.0,0.0,0.0,0.0,0.0,0.0,0.0,0.0,0.0,0.0,0.0,0.0,0.0,0.0,0.0,0.0,0.0,0.0,0.0,3.7626,3.8354,3.897,3.9067,3.8588,3.8588,3.8357,3.7893,3.7417,3.7289,3.7479,3.8218,3.8972,0.0,0.0,0.0,0.0,4.0513,0.0,0.0,0.0,0.0,0.0,0.0,0.0,0.0,4.4197,4.4619,4.4477,4.3867,0.0,0.0,0.0,0.0,0.0,4.4553,4.4409,4.4191,4.3833,4.3527,4.33,4.33,4.33,4.33,4.33,4.3389,4.3599,4.4057,4.3848,4.3938,4.4975,4.5982,4.7606,5.0442,4.9737,4.9181,4.9901,4.8767,4.7419,4.6127,4.5874,4.5488,4.4749,4.4695,4.5008,4.5687,4.6212,4.6801,4.7411,4.7937,4.8187,4.8187,4.8187,4.8187,4.8187,4.8187,4.8187,4.8187,4.8187,4.8187,4.8187,4.8187,4.8187,4.8187,4.8187,4.8187,4.8187,4.8187,4.8187,4.8187,4.8187,4.8187,4.8187,0.0,0.0,0.0,0.0,0.0,0.0,0.0,0.0,0.0,0.0,0.0,0.0,0.0,0.0,0.0,0.0,0.0,0.0,0.0,0.0,0.0,3.7818,3.7983,3.8387,3.911,3.9242,3.9067,3.8588,3.8588,3.8357,3.7893,3.7417,3.7669,3.8563,3.87,3.9426,4.0625,0.0,0.0,0.0,4.0513,0.0,0.0,0.0,0.0,0.0,0.0,0.0,0.0,4.4356,4.4742,4.4496,4.4007,0.0,0.0,0.0,0.0,0.0,4.4381,4.4975,4.5334,4.4222,4.3606,4.33,4.33,4.33,4.33,4.33,4.3758,4.3997,4.3539,4.4307,4.4885,4.4516,4.6441,4.829,4.9138,4.8613,4.8387,4.895,4.6796,4.5461,4.5941,4.5328,4.483,4.4708,4.4695,4.5205,4.6304,4.6435,4.6984,4.803,4.8161,4.8187,4.8187,4.8187,4.8187,4.8187,4.8187,4.8187,4.8187,4.8187,4.8187,4.8187,4.8187,4.8187,4.8187,4.8187,4.8187,4.8187,4.8187,4.8187,4.8187,4.8187,4.8187,4.8187,0.0,0.0,0.0,0.0,0.0,0.0,0.0,0.0,0.0,0.0,0.0,0.0,0.0,0.0,0.0,0.0,0.0,0.0,0.0,0.0,0.0,3.8182,3.8593,3.8937,3.9275,3.9315,3.9181,3.8985,3.8985,3.8759,3.8265,3.7535,3.7575,3.8203,3.8525,3.9186,4.0135,0.0,0.0,0.0,0.0,0.0,0.0,0.0,0.0,0.0,0.0,0.0,0.0,0.0,4.4752,4.469,4.4384,0.0,0.0,0.0,0.0,0.0,4.4333,4.4569,4.4788,4.4416,4.49,4.5463,4.5463,4.5463,4.5254,4.4546,4.4895,4.5074,4.4027,4.4636,4.5424,4.5862,4.7141,4.8227,4.8664,4.8411,4.8015,4.7572,4.64,4.5529,4.5328,4.4938,4.4695,4.4695,4.4695,4.5231,4.6449,4.6501,4.701,4.8161,4.8187,4.8187,4.8187,4.8187,4.8187,4.8187,4.8187,4.8187,4.8187,4.8187,4.8187,4.8187,4.8187,4.8187,4.8187,4.8187,4.8187,4.8187,4.8187,4.8187,4.8187,4.8187,4.8187,4.8187,0.0,0.0,0.0,0.0,0.0,0.0,0.0,0.0,0.0,0.0,0.0,0.0,0.0,0.0,0.0,0.0,0.0,0.0,0.0,0.0,3.8288,3.8454,3.9004,3.9315,3.9315,3.9315,3.9315,3.9315,3.9315,3.906,3.8567,3.7675,3.7566,3.8145,3.8682,3.925,3.986,4.0481,4.0646,0.0,0.0,0.0,0.0,0.0,0.0,0.0,0.0,0.0,0.0,0.0,0.0,0.0,0.0,0.0,0.0,4.4591,4.4591,4.4543,4.4316,4.4327,4.4526,4.4911,4.5798,4.664,4.68,4.683,4.6531,4.5514,4.5952,4.6121,4.4785,4.5084,4.5963,4.7309,4.7914,4.8358,4.8769,4.8637,4.8018,4.6749,4.6413,4.5887,4.4803,4.4695,4.4695,4.4695,4.4695,4.5231,4.6449,4.6501,4.701,4.8161,4.8187,4.8187,4.8187,4.8187,4.8187,4.8187,4.8187,4.8187,4.8187,4.8187,4.8187,4.8187,4.8187,4.8187,4.8187,4.8187,4.8187,4.8187,4.8187,4.8187,4.8187,4.8187,4.8187,4.8187,0.0,0.0,0.0,0.0,0.0,0.0,0.0,0.0,0.0,0.0,0.0,0.0,0.0,0.0,0.0,0.0,0.0,0.0,0.0,0.0,3.8526,3.9176,3.9282,3.9315,3.9315,3.9315,3.9315,3.9315,3.9315,3.906,3.8567,3.7777,3.8106,3.9408,3.9865,4.0293,4.0738,4.1275,4.1122,0.0,0.0,0.0,0.0,0.0,0.0,0.0,0.0,0.0,0.0,0.0,0.0,0.0,0.0,0.0,4.4591,4.4591,4.4591,4.4515,4.4133,4.4858,4.5838,4.6117,4.5324,4.4666,4.5304,4.5424,4.5434,4.5304,4.6322,4.683,4.5494,4.5773,4.667,4.8008,4.8787,4.9252,4.9415,4.9248,4.8655,4.7293,4.6479,4.5675,4.479,4.4695,4.4695,4.4695,4.4695,4.5231,4.6449,4.6501,4.701,4.8161,4.8187,4.8187,4.8187,4.8187,4.8187,4.8187,4.8187,4.8187,4.8187,4.8187,4.8187,4.8187,4.8187,4.8187,4.8187,4.8187,4.8187,4.8187,4.8187,4.8187,4.8187,4.8187,4.8187,4.8187,0.0,0.0,0.0,0.0,0.0,0.0,0.0,0.0,0.0,0.0,0.0,0.0,0.0,0.0,0.0,0.0,0.0,0.0,0.0,3.8897,3.9004,3.9282,3.9315,3.9315,3.9315,3.9315,3.9315,3.9315,3.9006,3.8828,3.8725,3.8282,3.8761,3.9936,4.0298,4.0499,4.0646,4.1185,4.0903,4.0082,0.0,0.0,0.0,0.0,0.0,0.0,0.0,0.0,0.0,0.0,4.4583,4.4799,4.4874,4.4761,4.4591,4.4591,4.4505,4.4333,4.4085,4.4829,4.5725,4.5666,4.5922,4.6441,4.754,4.778,4.754,4.6721,4.7279,4.7649,4.6711,4.676,4.7209,4.8158,4.8712,4.898,4.8738,4.884,4.8509,4.7346,4.6493,4.5861,4.5542,4.5019,4.4695,4.4695,4.4695,4.5231,4.6449,4.6501,4.701,4.8161,4.8187,4.8187,4.8187,4.8187,4.8187,4.8187,4.8187,4.8187,4.8187,4.8187,4.8187,4.8187,4.8187,4.8187,4.8187,4.8187,4.8187,4.8187,4.8187,4.8187,4.8187,4.8187,4.8187,4.8187,0.0,0.0,0.0,0.0,0.0,0.0,0.0,0.0,0.0,0.0,0.0,0.0,0.0,0.0,0.0,0.0,0.0,0.0,3.9395,3.9362,3.9315,3.9315,3.9315,3.9315,3.9315,3.9315,3.9415,3.9647,3.9211,3.9114,3.9313,3.9055,3.9557,4.0716,4.0938,4.092,4.0779,4.1194,4.0864,4.0037,4.0372,4.0513,0.0,0.0,0.0,0.0,0.0,0.0,0.0,0.0,4.4558,4.4902,4.4902,4.4761,4.4591,4.4591,4.4448,4.4268,4.4055,4.4477,4.5101,4.5506,4.6142,4.7081,4.8618,4.8828,4.8397,4.7489,4.7668,4.7919,4.7668,4.7608,4.7859,4.8528,4.8961,4.9056,4.8567,4.8935,4.8624,4.6998,4.6558,4.6178,4.5635,4.5046,4.4695,4.4695,4.4695,4.5231,4.6449,4.6501,4.701,4.8161,4.8187,4.8187,4.8187,4.8187,4.8187,4.8187,4.8187,4.8187,4.8187,4.8187,4.8187,4.8187,4.8187,4.8187,4.8187,4.8187,4.8187,4.8187,4.8187,4.8187,4.8187,4.8187,4.8187,4.8187,0.0,0.0,0.0,0.0,0.0,0.0,0.0,0.0,0.0,0.0,0.0,0.0,0.0,0.0,0.0,0.0,0.0,0.0,3.9703,3.9441,3.9289,3.9289,3.9289,3.9289,3.9315,3.9315,3.9673,4.0402,4.0064,4.0064,4.0395,4.0057,4.0609,4.1824,4.195,4.1767,4.1332,4.1522,4.1181,4.0491,4.0522,4.0522,0.0,0.0,0.0,0.0,0.0,0.0,0.0,0.0,4.5033,4.4902,4.4902,4.4761,4.4591,4.4591,4.4448,4.4237,4.4055,4.3872,4.4138,4.5844,4.5802,4.5853,4.7829,4.7799,4.7309,4.7309,4.7309,4.7519,4.8158,4.8308,4.8528,4.9198,4.964,4.9728,4.928,4.973,4.9104,4.6362,4.6727,4.6557,4.4898,4.4708,4.4695,4.4695,4.4695,4.5231,4.6449,4.6501,4.701,4.8161,4.8187,4.8187,4.8187,4.8187,4.8187,4.8187,4.8187,4.8187,4.8187,4.8187,4.8187,4.8187,4.8187,4.8187,4.8187,4.8187,4.8187,4.8187,4.8187,4.8187,4.8187,4.8187,4.8187,4.8187,0.0,0.0,0.0,0.0,0.0,0.0,0.0,0.0,0.0,0.0,0.0,0.0,0.0,0.0,0.0,0.0,0.0,0.0,3.971,3.9625,3.958,3.958,3.958,3.9527,3.9448,3.9853,3.9938,3.9647,4.0048,4.0313,4.0395,4.0536,4.1194,4.2294,4.2389,4.22,4.185,4.1829,4.1401,4.0739,4.1126,4.1038,0.0,0.0,0.0,0.0,0.0,0.0,0.0,0.0,0.0,0.0,4.4902,4.4761,4.4562,4.4419,4.4258,4.4055,4.3832,4.4629,4.5546,4.5584,4.6501,4.744,4.7578,4.7429,4.7309,4.7309,4.7668,4.7908,4.7638,4.8379,4.9078,4.9258,4.9491,4.9716,5.0083,4.9924,4.9522,4.869,4.7768,4.6998,4.6505,4.5382,4.4695,4.4695,4.4695,4.5231,4.6449,4.6501,4.701,4.8161,4.8187,4.8187,4.8187,4.8187,4.8187,4.8187,4.8187,4.8187,4.8187,4.8187,4.8187,4.8187,4.8187,4.8187,4.8187,4.8187,4.8187,4.8187,4.8187,4.8187,4.8187,4.8187,4.8187,4.8187,0.0,0.0,0.0,0.0,0.0,0.0,0.0,0.0,0.0,0.0,0.0,0.0,0.0,0.0,0.0,0.0,0.0,0.0,0.0,3.9729,3.9671,3.9612,3.9612,3.9547,3.9435,4.0337,4.0296,3.9315,4.0038,4.0528,4.0812,4.1012,4.1744,4.2921,4.2855,4.2652,4.2385,4.218,4.1797,4.1318,4.1455,4.129,4.1027,0.0,0.0,0.0,0.0,0.0,0.0,0.0,0.0,0.0,4.4902,4.4761,4.4553,4.4343,4.4354,4.4353,4.4126,4.4949,4.5922,4.6052,4.68,4.7489,4.7328,4.7309,4.7309,4.7309,4.7608,4.7848,4.7728,4.8588,4.9366,4.9625,4.9796,4.9922,4.9962,4.9815,4.9338,4.8352,4.7615,4.6947,4.6269,4.5288,4.4695,4.4695,4.4695,4.5231,4.6449,4.6501,4.701,4.8161,4.8187,4.8187,4.8187,4.8187,4.8187,4.8187,4.8187,4.8187,4.8187,4.8187,4.8187,4.8187,4.8187,4.8187,4.8187,4.8187,4.8187,4.8187,4.8187,4.8187,4.8187,4.8187,4.8187,4.8187,0.0,0.0,0.0,0.0,0.0,0.0,0.0,0.0,0.0,0.0,0.0,0.0,0.0,0.0,0.0,0.0,0.0,0.0,0.0,0.0,3.9671,3.9567,3.9541,3.9468,3.9322,4.0627,4.0654,3.9335,4.0044,4.0753,4.1394,4.1394,4.2189,4.3591,4.325,4.3044,4.2938,4.2555,4.2302,4.2085,4.1718,4.1484,4.1363,4.1717,0.0,0.0,0.0,0.0,0.0,0.0,0.0,0.0,4.4874,4.4752,4.4553,4.4354,4.4609,4.4929,4.466,4.4969,4.5693,4.6909,4.679,4.654,4.7149,4.7309,4.7309,4.7309,4.7309,4.7489,4.8188,4.8858,4.9505,5.0065,5.0354,5.0219,4.9415,4.953,4.884,4.6519,4.6804,4.657,4.4979,4.4735,4.4695,4.4695,4.4695,4.5231,4.6449,4.6501,4.701,4.8161,4.8187,4.8187,4.8187,4.8187,4.8187,4.8187,4.8187,4.8187,4.8187,4.8187,4.8187,4.8187,4.8187,4.8187,4.8187,4.8187,4.8187,4.8187,4.8187,4.8187,4.8187,4.8187,4.8187,4.8187,0.0,0.0,0.0,0.0,0.0,0.0,0.0,0.0,0.0,0.0,0.0,0.0,0.0,0.0,0.0,0.0,0.0,0.0,0.0,0.0,4.0005,3.998,3.9768,3.9638,3.9612,4.0279,4.0218,3.9468,4.0092,4.0753,4.1394,4.1394,4.2189,4.3591,4.325,4.3227,4.3419,4.282,4.2484,4.2414,4.3249,4.2819,4.1825,4.3151,4.3115,0.0,0.0,0.0,0.0,0.0,0.0,0.0,4.4704,4.4629,4.4524,4.4181,4.4502,4.492,4.4489,4.5205,4.6151,4.645,4.679,4.7119,4.7279,4.7309,4.7309,4.7309,4.7309,4.7489,4.8188,4.8858,4.946,4.9898,5.026,5.0441,5.0243,4.99,4.9321,4.8308,4.7628,4.6804,4.5821,4.51,4.4695,4.4695,4.4695,4.5231,4.6449,4.6501,4.701,4.8161,4.8187,4.8187,4.8187,4.8187,4.8187,4.8187,4.8187,4.8187,4.8187,4.8187,4.8187,4.8187,4.8187,4.8187,4.8187,4.8187,4.8187,4.8187,4.8187,4.8187,4.8187,4.8187,4.8187,4.8187,0.0,0.0,0.0,0.0,0.0,0.0,0.0,0.0,0.0,0.0,0.0,0.0,0.0,0.0,0.0,0.0,0.0,0.0,0.0,0.0,4.0049,3.9916,4.0038,4.0094,4.0027,4.0278,4.0237,3.994,4.0237,4.0753,4.1394,4.1759,4.2513,4.3598,4.3434,4.3456,4.3583,4.3227,4.3248,4.3546,4.3921,4.3613,4.304,4.3951,0.0,0.0,0.0,0.0,0.0,0.0,0.0,0.0,0.0,0.0,4.4515,4.4123,4.4463,4.497,4.4818,4.5523,4.639,4.6689,4.7029,4.7309,4.7309,4.7309,4.7309,4.7309,4.7309,4.7608,4.8588,4.9067,4.9527,5.0216,5.0508,5.0602,5.0513,5.0243,4.962,4.8358,4.7742,4.6856,4.5515,4.4965,4.4695,4.4695,4.4695,4.5231,4.6449,4.6501,4.701,4.8161,4.8187,4.8187,4.8187,4.8187,4.8187,4.8187,4.8187,4.8187,4.8187,4.8187,4.8187,4.8187,4.8187,4.8187,4.8187,4.8187,4.8187,4.8187,4.8187,4.8187,4.8187,4.8187,4.8187,4.8187,0.0,0.0,0.0,0.0,0.0,0.0,0.0,0.0,0.0,0.0,0.0,0.0,0.0,0.0,0.0,0.0,0.0,0.0,0.0,0.0,0.0,3.9742,4.0314,4.0506,4.0244,4.0475,4.0535,4.0402,4.0627,0.0,0.0,0.0,4.2877,4.3606,4.3606,4.3606,4.3606,4.3746,4.4009,4.4301,4.4172,4.4074,4.399,0.0,0.0,0.0,0.0,0.0,0.0,0.0,0.0,0.0,0.0,0.0,4.4515,4.4172,4.4492,4.5041,4.53,4.5894,4.661,4.7149,4.7309,4.7309,4.7309,4.7309,4.7309,4.7309,4.7309,4.7698,4.9048,4.9288,4.9616,5.065,5.0781,5.0739,5.0567,5.0525,4.9851,4.8148,4.7742,4.6908,4.5154,4.4817,4.4695,4.4695,4.4695,4.5179,4.6278,4.6435,4.6984,4.8015,4.8161,4.8187,4.8187,4.8187,4.8187,4.8187,4.8187,4.8187,4.8187,4.8187,4.8187,4.8187,4.8187,4.8187,4.8187,4.8187,4.8187,4.8187,4.8187,4.8187,4.8187,4.8187,4.8187,4.8187,0.0,0.0,0.0,0.0,0.0,0.0,0.0,0.0,0.0,0.0,0.0,0.0,0.0,0.0,0.0,0.0,0.0,0.0,4.0119,0.0,0.0,3.9865,4.0467,4.0428,3.9648,4.0709,4.0978,4.0402,0.0,0.0,0.0,0.0,0.0,4.3606,0.0,4.3606,4.3639,4.4291,4.3836,4.2853,4.4453,4.4276,0.0,0.0,0.0,0.0,0.0,0.0,0.0,0.0,4.3257,0.0,0.0,0.0,4.4553,4.4314,4.46,4.5071,4.5444,4.635,4.7179,4.7279,4.7309,4.7309,4.7309,4.7309,4.7309,4.7309,4.7309,4.7698,4.9048,4.9288,4.9616,5.065,5.0781,5.0799,5.0775,5.0602,5.0207,4.9415,4.8311,4.7231,4.6269,4.5275,4.4695,4.4695,4.4695,4.5008,4.5687,4.6212,4.6775,4.7411,4.7937,4.8187,4.8187,4.8187,4.8187,4.8187,4.8187,4.8187,4.8187,4.8187,4.8187,4.8187,4.8187,4.8187,4.8187,4.8187,4.8187,4.8187,4.8187,4.8187,4.8187,4.8187,4.8187,4.8187,0.0,0.0,0.0,0.0,0.0,0.0,0.0,0.0,0.0,0.0,0.0,0.0,0.0,0.0,0.0,4.03,4.0362,4.0325,4.0119,4.0429,4.0549,4.0412,4.0963,4.108,4.057,4.1098,4.1269,4.0945,0.0,0.0,0.0,4.291,4.3275,0.0,0.0,0.0,0.0,4.3936,4.3882,4.4065,4.4643,0.0,0.0,0.0,0.0,0.0,0.0,0.0,0.0,0.0,4.3042,4.3584,4.3584,0.0,0.0,0.0,4.4288,4.4596,4.5241,4.6336,4.7309,4.7309,4.7309,4.7309,4.7309,4.7309,4.7309,4.7309,4.7309,4.7698,4.9048,4.9288,4.9616,5.065,5.0941,5.0976,5.0834,5.0834,5.0561,4.9713,4.9083,4.8157,4.6765,4.6019,4.5462,4.5018,4.4816,4.4956,4.5557,4.6159,4.6734,4.7281,4.8058,4.8388,4.8187,4.8388,4.8388,4.8187,4.8187,4.8187,4.8187,4.8187,4.8187,4.8187,4.8187,4.8187,4.8187,4.8187,4.8187,4.8187,4.8187,4.8187,4.8187,4.8187,4.8187,4.8187,0.0,0.0,0.0,0.0,0.0,0.0,0.0,0.0,0.0,0.0,0.0,0.0,0.0,0.0,0.0,0.0,4.0442,4.0393,4.0125,4.0532,4.0725,4.0633,4.1177,4.1326,4.0983,4.1238,4.1394,0.0,0.0,0.0,4.2778,4.3333,4.3705,0.0,4.3878,0.0,0.0,0.0,0.0,0.0,0.0,0.0,0.0,0.0,0.0,0.0,0.0,0.0,0.0,0.0,0.0,4.3368,4.3553,4.4077,0.0,0.0,0.0,4.4285,4.4868,4.5903,4.6879,4.7209,4.7179,4.7149,4.7489,4.7429,4.7309,4.7309,4.7309,4.7698,4.9048,4.9288,4.9669,5.0732,5.1058,5.1117,5.0941,5.1058,5.0893,5.01,4.9757,4.9059,4.7638,4.7074,4.6439,4.5569,4.5475,4.5419,4.5375,4.6132,4.6672,4.6863,4.7767,4.8114,4.7884,4.8272,4.8351,4.8094,4.8178,4.8187,4.8187,4.8187,4.8187,4.8187,4.8187,4.8187,4.8187,4.8187,4.8187,4.8187,4.8187,4.8187,4.8187,4.8187,4.8187,4.8187,0.0,0.0,0.0,0.0,0.0,0.0,0.0,0.0,0.0,0.0,0.0,0.0,0.0,4.0714,4.0625,4.0504,4.0504,4.0393,4.0125,4.0134,4.0128,4.0121,4.0593,0.0,3.9811,4.0851,4.1394,0.0,0.0,0.0,4.3539,4.3565,4.3985,4.4629,4.4629,4.4471,4.4276,0.0,0.0,0.0,0.0,0.0,0.0,0.0,0.0,0.0,0.0,0.0,0.0,0.0,0.0,0.0,0.0,4.4077,4.4553,0.0,0.0,0.0,4.4397,4.4885,4.5693,4.698,4.6809,4.6689,4.7978,4.7758,4.7309,4.7309,4.7309,4.7698,4.9048,4.9288,4.9714,5.0955,5.1206,5.1206,5.1194,5.1206,5.1194,5.1105,5.022,4.955,4.9464,4.8534,4.7485,4.6413,4.7037,4.6648,4.4842,4.6033,4.6433,4.5715,4.6544,4.6987,4.6973,4.7553,4.7858,4.7829,4.8082,4.8187,4.8187,4.8187,4.8187,4.8187,4.8187,4.8187,4.8187,4.8187,4.8187,4.8187,4.8187,4.8187,4.8187,4.8187,4.8187,4.8187,0.0,0.0,0.0,0.0,0.0,0.0,0.0,0.0,0.0,0.0,0.0,0.0,0.0,4.1067,4.0934,4.1181,4.0684,4.0294,4.0119,4.045,4.0689,4.0689,4.1661,4.1813,4.1008,4.2297,4.2695,0.0,0.0,4.358,4.4324,4.4324,4.4696,4.5384,4.4689,4.4805,4.5481,4.426,0.0,0.0,0.0,0.0,0.0,0.0,0.0,0.0,0.0,0.0,0.0,0.0,0.0,0.0,0.0,0.0,0.0,4.4017,4.4147,4.4398,4.4327,4.4796,4.5514,4.6431,4.679,4.7059,4.7549,4.7799,4.7818,4.7399,4.7309,4.7698,4.9048,4.9288,4.9726,5.0978,5.1206,5.1206,5.1206,5.1206,5.1206,5.1206,5.0858,5.0412,4.9907,4.9354,4.8646,4.7753,4.7803,4.7562,4.6867,4.6956,4.7176,4.7442,4.7103,4.708,4.7464,4.7701,4.7892,4.8058,4.8355,4.8417,4.8187,4.8187,4.8187,4.8187,4.8187,4.8187,4.8187,4.8187,4.8187,4.8187,4.8187,4.8187,4.8187,4.8187,4.8187,4.8187,0.0,0.0,0.0,0.0,0.0,0.0,0.0,0.0,0.0,0.0,0.0,0.0,0.0,0.0,4.1184,4.1187,4.0606,4.0194,4.0119,4.0708,4.1061,4.1008,4.2063,4.2353,4.1712,4.2834,4.3127,0.0,0.0,0.0,0.0,4.4968,4.5396,4.5923,4.4794,4.4935,0.0,0.0,0.0,4.3656,0.0,0.0,4.4875,0.0,0.0,0.0,0.0,0.0,0.0,0.0,0.0,0.0,0.0,0.0,0.0,0.0,0.0,4.3967,4.3967,4.4307,4.4905,4.6031,4.6461,4.68,4.7489,4.7799,4.7859,4.7399,4.7309,4.7638,4.8768,4.9168,4.9726,5.0978,5.1206,5.1206,5.1206,5.1206,5.1206,5.1206,5.1206,5.0976,5.0466,5.0244,4.9757,4.8869,4.8894,4.8655,4.8016,4.7939,4.8102,4.8636,4.769,4.7478,4.8108,4.7986,4.8008,4.8203,4.8413,4.8475,4.8373,4.8257,4.8187,4.8187,4.8187,4.8187,4.8187,4.8187,4.8187,4.8187,4.8187,4.8187,4.8187,4.8187,4.8187,4.8187,0.0,0.0,0.0,0.0,0.0,0.0,0.0,0.0,0.0,0.0,0.0,0.0,0.0,0.0,0.0,4.0449,4.0222,4.0146,4.0174,4.0832,4.1159,4.1049,4.1614,4.1872,4.1719,4.2268,4.2553,4.2546,4.3992,4.4703,4.4736,0.0,4.5989,4.6225,4.503,4.4844,4.5364,0.0,4.3527,4.3024,0.0,4.4773,4.4745,0.0,0.0,0.0,4.4899,4.4683,0.0,4.6172,0.0,0.0,0.0,0.0,0.0,0.0,0.0,0.0,0.0,0.0,0.0,4.5762,4.5773,4.5823,4.7799,4.7758,4.7309,4.7309,4.7309,4.7489,4.8188,4.8828,4.9696,5.0948,5.1176,5.1206,5.1206,5.1206,5.1206,5.1206,5.1206,5.1206,5.1206,5.1206,5.0775,4.9737,5.0376,5.0023,4.8179,4.8832,4.9155,4.8983,4.8156,4.8023,4.8666,4.8359,4.8205,4.8218,4.8215,4.8388,4.8704,4.8359,4.8187,4.8187,4.8187,4.8187,4.8187,4.8187,4.8187,4.8187,4.8187,4.8187,4.8187,4.8187,4.8187,4.8187,0.0,0.0,0.0,0.0,0.0,0.0,0.0,0.0,0.0,0.0,0.0,0.0,0.0,0.0,4.1595,4.1879,4.1378,4.1225,4.1663,4.1788,4.1836,4.1796,4.2365,4.2621,4.2418,4.3148,4.3713,4.4099,4.4504,4.4968,4.5516,4.5958,0.0,0.0,4.5069,4.4602,4.4112,4.2907,0.0,4.3006,4.4198,4.4638,0.0,0.0,0.0,0.0,0.0,4.6268,4.6537,0.0,4.614,4.5714,0.0,0.0,0.0,0.0,0.0,0.0,4.33,0.0,0.0,0.0,0.0,0.0,4.661,4.7089,4.7309,4.7309,4.7309,4.7489,4.8188,4.8468,4.8996,5.0267,5.0877,5.1206,5.1206,5.1206,5.1206,5.1206,5.1206,5.1206,5.1206,5.1206,5.107,5.0787,5.0952,5.087,5.0352,5.0352,4.9705,4.8335,4.8271,4.826,4.8273,4.8026,4.812,4.8556,4.8555,4.8606,4.8704,4.8359,4.8187,4.8187,4.8187,4.8187,4.8187,4.8187,4.8187,4.8187,4.8187,4.8187,4.8187,4.8187,4.8187,4.8187,0.0,0.0,0.0,0.0,0.0,0.0,4.2152,0.0,0.0,0.0,0.0,0.0,0.0,0.0,0.0,4.2365,4.198,4.1847,4.2172,4.2368,4.2426,4.235,4.301,4.343,4.3529,4.4001,4.4529,4.5167,4.5458,4.5744,4.6023,4.6249,4.5971,0.0,0.0,0.0,0.0,0.0,0.0,0.0,4.4114,0.0,0.0,4.6842,4.7477,0.0,0.0,0.0,4.7576,4.7444,4.6742,0.0,0.0,0.0,0.0,0.0,0.0,0.0,0.0,0.0,0.0,4.4486,0.0,0.0,4.685,4.7209,4.7369,4.7668,4.7739,4.7758,4.7848,4.8338,4.8876,4.9333,5.0189,5.0877,5.1146,5.1206,5.1206,5.1206,5.1206,5.1206,5.1206,5.1206,5.1206,5.1206,5.1206,5.1206,5.1206,5.0952,5.0434,4.9618,4.9696,4.9518,4.9022,4.8919,4.888,4.8851,4.8606,4.8692,4.9068,4.8475,4.8286,4.8402,4.8271,4.8187,4.8187,4.8187,4.8187,4.8187,4.8187,4.8187,4.8187,4.8187,4.8187,4.8187,0.0,0.0,4.2905,4.2885,4.2954,4.3023,4.3023,4.2969,0.0,0.0,0.0,0.0,0.0,0.0,0.0,0.0,4.2348,4.2267,4.232,4.2828,4.3048,4.2958,4.3609,4.4241,4.4803,4.4836,4.5177,4.5859,4.6521,4.6625,4.6225,4.6233,4.5809,0.0,0.0,0.0,0.0,0.0,0.0,4.2772,4.4079,4.5043,0.0,0.0,4.7415,4.7363,4.7177,4.7529,4.8136,4.8591,4.7846,0.0,0.0,0.0,0.0,0.0,4.3419,0.0,0.0,0.0,0.0,0.0,4.5065,0.0,4.744,4.7399,4.716,4.7829,4.7978,4.7799,4.7189,4.8038,4.8678,4.8158,4.9093,5.0147,5.0966,5.1146,5.1206,5.1206,5.1206,5.1206,5.1206,5.1206,5.1206,5.1206,5.1206,5.1206,5.1206,5.0976,5.1125,5.1696,5.1495,5.1093,5.0437,5.0395,5.0,4.9254,4.8623,4.8767,4.9513,4.8738,4.8507,4.8721,4.8521,4.8361,4.8271,4.8271,4.8216,4.8187,4.8187,4.8187,4.8187,4.8187,4.8187,4.8187,0.0,0.0,4.2873,4.2757,4.3258,4.3715,4.3715,4.4101,0.0,0.0,0.0,0.0,0.0,0.0,0.0,0.0,4.3358,4.3187,4.3678,4.3728,4.3953,4.4467,4.4536,4.4866,4.5557,4.5598,4.5788,4.6216,4.6348,4.6159,4.5665,4.54,4.45,0.0,0.0,0.0,0.0,0.0,0.0,4.3184,4.4198,4.5223,4.6323,4.7619,4.7993,4.7877,4.7824,4.8101,4.8341,4.7395,4.7136,4.6957,0.0,0.0,0.0,0.0,0.0,0.0,0.0,0.0,0.0,0.0,0.0,0.0,4.4875,4.4965,4.5084,4.5753,4.5883,4.5853,4.5693,4.5913,4.6202,4.661,4.7358,4.8454,5.0147,5.0877,5.1206,5.1206,5.1206,5.1206,5.1206,5.1206,5.1206,5.1206,5.1206,5.1206,5.1206,5.1141,5.1165,5.1314,5.092,5.0874,5.1267,5.0636,5.0271,5.0152,4.9543,4.9242,4.9211,4.9445,4.9387,4.9068,4.97,4.9444,4.8591,4.8591,4.8446,4.8187,4.8187,4.8187,4.8187,4.8187,4.8187,4.8187,0.0,0.0,4.3919,4.3847,4.4121,4.4381,4.4455,4.4647,0.0,0.0,0.0,0.0,0.0,0.0,0.0,0.0,0.0,0.0,0.0,4.4505,4.4678,4.5333,4.529,4.559,4.6319,4.6145,4.6411,4.7136,4.6322,4.5817,4.5537,4.4396,4.3329,4.2334,0.0,0.0,0.0,4.1873,4.3174,4.4901,4.5026,4.5709,4.6762,4.7778,4.8007,4.7784,4.7677,4.7789,4.7891,4.755,4.7145,0.0,0.0,4.6606,4.6461,0.0,4.4755,4.5005,0.0,0.0,0.0,4.3728,0.0,0.0,0.0,4.5055,4.5005,4.5653,4.5802,4.5802,4.5802,4.6072,4.6292,4.63,4.7149,4.8027,4.8663,4.989,5.0817,5.1146,5.1206,5.1206,5.1206,5.1206,5.1206,5.1206,5.1206,5.1206,5.1206,5.1206,5.1206,5.1206,5.1302,5.125,5.0995,5.0929,5.0781,5.0546,5.0119,5.0173,5.0642,5.0615,5.0377,5.001,5.0292,4.9827,4.8895,4.8895,4.8794,4.8635,4.8329,4.8187,4.8187,4.8187,4.8187,4.8187,0.0,0.0,0.0,4.477,4.4777,4.4838,4.4954,4.4872,0.0,0.0,0.0,0.0,0.0,0.0,0.0,0.0,0.0,0.0,0.0,0.0,4.5361,4.5853,4.5886,4.6152,4.6682,4.6332,4.6561,4.7375,4.5939,4.5233,4.5175,4.3385,4.2396,4.2189,4.2156,0.0,0.0,4.2964,4.4576,4.6443,4.6217,4.6722,4.7683,4.8067,4.8019,4.7751,4.7415,4.7388,4.7549,4.7818,4.7459,4.6969,4.7549,4.7418,0.0,0.0,0.0,0.0,0.0,0.0,0.0,0.0,0.0,4.4546,0.0,0.0,0.0,4.5613,4.5722,4.5722,4.5722,4.6151,4.6341,4.5822,4.6741,4.738,4.698,4.8394,4.9848,5.0877,5.0996,5.1056,5.1176,5.1206,5.1206,5.1206,5.1206,5.1206,5.1206,5.1206,5.1206,5.1206,5.1726,5.1618,5.0828,5.1316,5.1369,5.1029,5.0776,5.1181,5.2164,5.1853,5.1526,5.121,5.1114,5.0433,4.9469,4.9469,4.9312,4.9053,4.8577,4.8388,4.8376,4.8492,4.8434,4.8344,4.3163,4.3481,0.0,0.0,4.4361,4.4803,4.4817,4.4803,4.4789,0.0,0.0,0.0,0.0,0.0,0.0,0.0,0.0,0.0,4.593,0.0,0.0,4.6233,4.6241,4.6127,4.5917,4.5749,4.5523,4.5146,4.4324,4.3899,4.3812,4.2497,4.212,4.2564,4.3158,4.3078,4.266,4.5105,4.6088,4.6093,4.7455,4.878,4.9837,4.9135,4.8715,4.8394,4.7595,4.7668,4.8008,0.0,4.7608,4.8558,0.0,4.7538,4.9161,4.6172,0.0,0.0,0.0,0.0,0.0,0.0,4.3878,0.0,4.3748,0.0,4.3539,4.3628,0.0,4.3628,4.3628,0.0,0.0,4.3658,4.4267,4.4935,4.5454,4.6221,4.7635,5.0028,5.0327,5.0536,5.1146,5.1206,5.1206,5.1206,5.1206,5.1206,5.1206,5.1206,5.1206,5.1206,5.1265,5.1547,5.2007,5.1855,5.1911,5.2197,5.195,5.1911,5.2136,5.2846,5.2901,5.2449,5.3182,5.2449,5.0711,5.0711,5.0066,4.9096,4.9024,4.901,4.9068,4.9599,4.9299,4.8823,0.0,0.0,0.0,0.0,4.4517,4.4699,4.4783,4.5157,4.5535,0.0,0.0,0.0,0.0,0.0,0.0,0.0,0.0,4.6163,0.0,0.0,0.0,0.0,4.6798,4.6454,4.6101,4.5361,4.5149,4.5569,4.3994,4.3505,4.4058,4.2834,4.2388,4.2654,4.4119,4.4406,4.3904,4.6203,4.7282,4.7527,4.8087,4.9086,5.0195,4.9155,4.8377,4.7799,4.7431,4.7728,4.8158,4.7209,4.7698,0.0,0.0,0.0,0.0,0.0,0.0,0.0,0.0,0.0,0.0,0.0,0.0,0.0,4.3539,0.0,4.33,4.33,0.0,0.0,0.0,0.0,0.0,0.0,4.4426,4.4855,4.4725,4.5304,4.6431,4.8274,4.8514,4.9082,5.0476,5.1325,5.1798,5.1798,5.1427,5.1206,5.1206,5.1206,5.1206,5.1206,5.1206,5.1337,5.1606,5.1518,5.1843,5.2633,5.2532,5.2895,5.3681,5.4062,5.389,5.3366,5.3733,5.3129,5.1854,5.1348,5.1141,5.1086,5.0572,4.9841,4.9197,4.994,4.9997,4.9841,0.0,0.0,0.0,0.0,4.4508,4.471,4.4985,4.5494,0.0,0.0,0.0,0.0,4.7389,4.6915,0.0,0.0,4.6299,4.6602,0.0,0.0,4.7425,0.0,0.0,0.0,0.0,4.5094,4.4788,4.5507,4.3713,4.326,4.4069,4.3058,4.2694,4.294,4.4797,4.5443,4.5268,4.7311,4.8368,4.8692,4.8759,4.9149,4.9678,4.8898,4.8074,4.7309,4.7309,4.7728,4.8158,4.7298,4.7578,4.8248,4.7859,4.8008,4.8158,0.0,0.0,0.0,4.5903,0.0,0.0,0.0,0.0,0.0,0.0,0.0,0.0,0.0,4.33,0.0,0.0,0.0,0.0,0.0,0.0,4.4576,4.4087,4.4456,4.5324,4.685,4.7179,4.7927,4.9531,5.0559,5.1289,5.1636,5.1206,5.0936,5.0936,5.1086,5.1128,5.0936,5.1086,5.1206,5.1206,5.1206,5.178,5.2893,5.2893,5.3608,5.4888,5.4709,5.4493,5.4256,5.4079,5.36,5.2903,5.2259,5.2232,5.2543,5.1894,5.1017,5.0152,5.0962,5.11,5.1003,0.0,4.343,0.0,0.0,0.0,4.4838,4.5568,0.0,0.0,0.0,0.0,0.0,0.0,0.0,0.0,0.0,0.0,4.8077,4.7785,0.0,4.8731,0.0,0.0,4.6846,0.0,0.0,4.4136,4.3981,4.3078,4.2873,4.3308,4.2846,4.2949,4.3615,4.4991,4.5936,4.6675,4.8738,4.9365,4.9038,4.9706,4.9321,4.8393,4.8531,4.8074,4.7309,4.7309,4.7728,4.8098,4.679,4.7209,4.8068,4.6779,4.7238,4.8158,4.7489,0.0,0.0,4.645,4.629,4.5971,4.4636,4.4796,4.4945,4.3609,0.0,4.33,0.0,0.0,0.0,0.0,0.0,0.0,0.0,0.0,0.0,0.0,4.3359,4.4107,4.6091,4.6909,4.7578,4.8278,4.8397,4.8925,5.0177,5.0226,5.0226,5.0226,5.0847,5.0907,5.0267,5.0877,5.1206,5.1206,5.1206,5.1876,5.3174,5.3174,5.3892,5.5179,5.4538,5.4556,5.5111,5.4471,5.4065,5.3867,5.3841,5.3327,5.2596,5.257,5.2529,5.257,5.3182,5.2835,5.2257,0.0,0.0,0.0,0.0,0.0,0.0,0.0,4.6413,0.0,0.0,0.0,0.0,0.0,4.8585,4.8479,0.0,0.0,4.845,4.8162,4.8253,0.0,0.0,0.0,4.6843,0.0,0.0,0.0,0.0,4.3619,4.3575,4.4174,4.3988,4.4027,4.4314,4.5659,4.6634,4.7363,4.8826,4.9352,4.914,4.8605,4.809,4.7679,4.8216,4.7943,4.7309,4.7309,4.7728,4.8158,4.7268,4.7549,4.8128,4.7238,4.7268,4.7578,4.7369,4.7309,4.7238,4.7029,4.7608,4.7859,4.6061,4.6132,4.6172,4.4356,4.3638,4.3419,0.0,0.0,0.0,0.0,0.0,0.0,0.0,0.0,0.0,0.0,4.33,4.3539,4.4227,4.5702,4.673,4.6939,4.8944,5.041,5.0817,5.1666,5.1786,5.0907,5.1487,5.1367,5.0237,5.0847,5.1206,5.1206,5.1206,5.1876,5.3186,5.2737,5.3486,5.5192,5.4521,5.4581,5.5192,5.497,5.4818,5.4735,5.4152,5.4075,5.4269,5.3681,5.3798,5.4282,5.389,5.3563,5.3432,4.4939,0.0,0.0,0.0,0.0,0.0,0.0,0.0,0.0,0.0,4.8084,0.0,4.9355,0.0,4.8873,0.0,4.869,4.8516,4.8181,4.8331,0.0,4.8618,4.787,0.0,0.0,0.0,0.0,0.0,0.0,4.4169,4.4591,4.4591,4.4591,4.4622,4.5505,4.6625,4.7906,4.8628,4.9131,4.9305,4.8007,4.7428,4.7369,4.7799,4.7668,4.7309,4.7309,4.7578,4.7889,4.7459,4.7578,4.7878,4.7429,4.7309,4.7309,4.7309,4.7309,4.7309,4.7309,4.7919,4.8218,4.6689,4.6629,4.655,4.4995,4.4326,4.4117,4.4576,0.0,0.0,0.0,0.0,0.0,0.0,0.0,0.0,0.0,4.33,4.33,4.33,4.4436,4.5512,4.6241,4.7796,4.9243,5.0421,5.1331,5.154,5.0877,5.1708,5.1696,5.0596,5.0966,5.1206,5.1206,5.1206,5.1756,5.2827,5.2648,5.3366,5.482,5.4389,5.4581,5.5192,5.494,5.4982,5.5141,5.4577,5.4709,5.5128,5.4564,5.4722,5.5128,5.4564,5.4359,5.441,4.5496,0.0,0.0,0.0,4.6418,4.715,4.7849,0.0,4.7754,0.0,4.8661,4.8518,4.9179,4.8753,4.8387,4.8221,4.8469,4.8433,4.7973,4.8614,0.0,0.0,4.8543,4.8562,4.9873,0.0,0.0,0.0,0.0,4.4622,4.4591,4.4591,4.4591,4.4591,4.4591,4.5952,4.8198,4.8188,4.8695,4.9357,4.7905,4.7309,4.7309,4.7309,4.7309,4.7309,4.7309,4.7309,4.7309,4.7309,4.7309,4.7309,4.7309,4.7309,4.7309,4.7309,4.7309,4.7309,4.7309,4.7328,4.7179,4.651,4.636,4.6181,4.5514,4.5304,4.5304,4.5334,4.4845,0.0,0.0,0.0,0.0,0.0,0.0,0.0,0.0,4.33,4.33,4.33,4.33,4.4047,4.5971,4.5074,4.5753,4.9048,4.9318,4.9655,5.0297,5.1517,5.1887,5.1206,5.1236,5.1236,5.1206,5.1206,5.1546,5.2217,5.2857,5.3516,5.4209,5.4209,5.4581,5.5162,5.4521,5.461,5.5192,5.5192,5.5192,5.5192,5.5192,5.5192,5.5192,5.5192,5.5192,5.5192,4.4484,4.5719,4.6775,4.6927,4.7772,4.8549,4.8877,4.93,0.0,0.0,4.9497,4.926,4.9747,4.9342,4.9178,4.9499,4.9279,0.0,0.0,0.0,0.0,4.8881,4.8584,4.844,4.8449,4.7586,0.0,4.6145,0.0,4.5083,4.4591,4.4591,4.4591,4.4591,4.4591,4.5419,4.6793,4.659,4.7046,4.7875,4.7451,4.7309,4.7309,4.7309,4.7309,4.7309,4.7309,4.7309,4.7309,4.7309,4.7309,4.7309,4.7309,4.7309,4.7309,4.7309,4.7309,4.7309,4.7309,4.7668,4.7878,4.7209,4.7029,4.6879,4.6181,4.5663,4.5454,4.5952,4.5912,4.5642,4.5155,4.4915,0.0,0.0,0.0,0.0,0.0,0.0,4.33,4.33,4.33,4.3509,4.4017,4.5104,4.676,4.9127,4.9733,5.0679,5.2336,5.2276,5.1887,5.1206,5.1666,5.1696,5.1206,5.1206,5.1546,5.2187,5.2366,5.3054,5.4209,5.4209,5.4581,5.5192,5.5012,5.5042,5.5192,5.5192,5.5192,5.5192,5.5192,5.5192,5.5192,5.5192,5.5192,5.5192,4.4531,4.6208,4.7454,4.712,4.8638,4.9675,4.8994,4.9062,4.9398,4.9941,4.9544,0.0,4.9779,4.958,4.9508,4.9688,4.9356,0.0,4.9006,0.0,0.0,4.8594,4.8594,4.8615,4.8687,4.7988,0.0,4.6627,0.0,4.5268,4.4591,4.4591,4.4591,4.4591,4.4591,4.5235,4.6345,4.685,4.7189,4.7339,4.7608,4.7549,0.0,4.7309,4.7309,4.7309,4.7309,4.7309,4.7309,4.7309,4.7309,4.7309,4.7309,4.7309,4.7309,4.7309,4.7309,4.7309,4.7309,4.7578,4.7758,4.7388,4.7309,4.7209,4.6809,4.6461,4.6292,4.667,4.651,4.6181,4.5802,4.5514,4.4975,0.0,0.0,0.0,0.0,0.0,0.0,4.3319,4.3569,4.3628,4.3329,4.4316,4.5822,4.7859,4.8304,4.9232,5.0983,5.1229,5.1307,5.1206,5.1576,5.1576,5.1206,5.1206,5.1397,5.1768,5.2067,5.2755,5.3773,5.4072,5.4581,5.5192,5.5192,5.5192,5.5192,5.5192,5.5192,5.5192,5.5192,5.5192,5.5192,5.5192,5.5192,5.5192,4.5122,4.6741,0.0,4.6661,4.8786,5.0131,4.8581,4.8187,4.8501,4.9634,4.9343,4.9119,4.949,4.9553,4.9482,4.9219,0.0,4.8955,4.8955,4.8728,4.8594,4.8594,4.8594,4.8902,4.9538,4.8358,0.0,0.0,0.0,4.533,4.4591,4.4591,4.4591,4.4591,4.4591,4.5206,4.6326,4.762,4.7842,4.7369,4.7938,4.7818,4.7309,4.7309,4.7309,4.7309,4.7309,4.7309,4.7309,4.7309,4.7309,4.7309,4.7309,4.7309,4.7309,4.7309,4.7309,4.7309,4.7309,4.7309,4.7309,4.7309,4.7309,4.7309,4.7309,4.7309,4.7309,4.7309,4.6909,4.651,4.632,4.5743,4.5095,0.0,0.0,0.0,0.0,0.0,0.0,0.0,4.4147,0.0,4.3638,4.3389,4.4167,4.6271,4.6271,4.6909,4.8577,4.965,5.0506,5.1187,5.1307,5.1307,5.1206,5.1206,5.1206,5.1206,5.1887,5.2558,5.3216,5.3892,5.4581,5.5192,5.5192,5.5192,5.5192,5.5192,5.5192,5.5192,5.5192,5.5192,5.5192,5.5192,5.5192,5.5192,4.5523,0.0,0.0,0.0,4.7517,4.8611,4.8076,4.9458,5.0532,5.0365,4.9828,4.9366,4.9118,4.925,4.9168,4.8749,4.8707,0.0,0.0,0.0,0.0,4.8594,4.8594,4.8655,4.8778,4.8563,4.7886,0.0,0.0,0.0,4.4591,4.4591,4.4591,4.4591,4.4591,4.5118,4.5961,4.5892,4.6424,4.7298,4.7429,4.7399,4.7309,4.7309,4.7309,4.7309,4.7309,4.7309,4.7309,4.7309,4.7309,4.7309,4.7309,4.7309,4.7309,4.7309,4.7309,4.7309,4.7309,4.7309,4.7309,4.7309,4.7309,4.7309,4.7309,4.7309,4.7309,4.7309,4.7638,4.7608,4.651,4.5743,4.5244,4.5155,4.5503,0.0,0.0,0.0,0.0,0.0,0.0,4.5683,4.4995,4.3938,4.4346,4.6939,4.6112,4.6999,5.0499,5.0398,5.0506,5.1187,5.1726,5.1756,5.1217,5.1206,5.1206,5.1206,5.1887,5.2558,5.3216,5.3892,5.4581,5.5192,5.5192,5.5192,5.5192,5.5192,5.5192,5.5192,5.5192,5.5192,5.5192,5.5192,5.5192,5.5192,4.5647,0.0,0.0,0.0,4.7895,4.8862,4.8804,4.989,5.0609,5.0241,4.9929,4.9643,4.9331,4.9311,4.922,4.8964,4.8728,4.8676,4.879,4.8687,4.8594,4.8594,4.8594,4.8594,4.8594,4.8594,4.7948,4.6603,0.0,0.0,4.4591,4.4591,4.4591,4.4622,4.5225,4.5449,4.5496,4.6567,4.6927,4.685,4.7549,4.7608,4.7309,4.7309,4.7309,4.7309,4.7309,4.7309,4.7309,4.7309,4.7309,4.7309,4.7309,4.7309,4.7309,4.7309,4.7309,4.7309,4.7309,4.7309,4.7309,4.7309,4.7309,4.7309,4.7309,4.7309,4.7309,4.7309,4.7549,4.7578,4.6939,4.6281,4.5922,4.6292,4.6311,4.63,0.0,0.0,4.7309,0.0,0.0,0.0,4.4905,4.4207,4.4516,4.6142,4.5334,4.5922,4.8514,4.8693,4.9153,5.0193,5.0828,5.1176,5.1206,5.1206,5.1206,5.1206,5.1517,5.2217,5.3228,5.3545,5.4234,5.5192,5.5192,5.5192,5.5192,5.5192,5.5192,5.5192,5.5192,5.5192,5.5192,5.5192,5.5192,5.5192,4.6117,4.6539,4.6957,4.7505,4.8579,4.9414,4.9451,4.9943,5.0204,4.9897,4.9842,4.9773,4.9573,4.9381,4.9291,4.924,4.8862,4.8697,4.8914,4.8728,4.8594,4.8594,4.8594,4.8594,4.8594,4.8594,4.8009,0.0,0.0,4.5998,4.4806,4.4662,4.4655,4.4782,4.5774,4.5991,4.5667,4.7393,4.758,4.679,4.7728,4.7758,4.7309,4.7309,4.7309,4.7309,4.7309,4.7309,4.7309,4.7309,4.7309,4.7309,4.7309,4.7309,4.7309,4.7309,4.7309,4.7309,4.7309,4.7309,4.7309,4.7309,4.7309,4.7309,4.7309,4.7309,4.7309,4.7309,4.7309,4.7309,4.7309,4.6879,4.67,4.7209,4.6969,4.685,4.7238,0.0,0.0,0.0,0.0,0.0,4.5503,4.4845,4.4845,4.5663,4.4965,4.5114,4.645,4.7268,4.8218,4.9258,5.0021,5.0667,5.1176,5.1206,5.1206,5.1206,5.1206,5.1828,5.2977,5.3139,5.3845,5.4999,5.5132,5.5192,5.5192,5.5192,5.5192,5.5192,5.5192,5.5192,5.5192,5.5192,5.5192,5.5192,4.7655,4.7542,4.7507,4.7798,4.8661,4.9211,4.9,4.9741,5.0132,4.9676,4.9643,4.9531,4.933,4.93,4.923,4.9047,4.8769,4.8594,4.8656,4.8594,4.8594,4.8594,4.8594,4.8594,4.8594,4.8594,4.8224,0.0,0.0,4.6213,4.5484,4.4868,4.4814,4.5275,4.5788,4.6506,4.7312,4.6757,4.714,4.8068,4.7578,4.7369,4.7309,4.7309,4.7309,4.7309,4.7309,4.7309,4.7309,4.7309,4.7309,4.7309,4.7309,4.7309,4.7309,4.7309,4.7309,4.7309,4.7309,4.7309,4.7309,4.7309,4.7309,4.7309,4.7309,4.7309,4.7309,4.7309,4.7309,4.7309,4.7309,4.7238,4.7249,4.7309,4.7758,4.7908,4.7369,0.0,4.8917,4.8188,0.0,0.0,4.8809,4.6632,4.5723,4.701,4.5933,4.5783,4.7119,4.8409,4.9168,4.9288,5.0481,5.1146,5.1206,5.1206,5.1206,5.1206,5.1206,5.1576,5.2306,5.2917,5.3605,5.4341,5.494,5.5192,5.5192,5.5192,5.5192,5.5192,5.5192,5.5192,5.5192,5.5192,5.5192,5.5192,4.7691,4.7715,4.7939,4.8612,4.8912,4.9203,4.9657,4.9826,4.9754,4.9473,4.9432,4.9402,4.9321,4.9189,4.9098,4.9006,4.8749,4.8594,4.8594,4.8594,4.8594,4.8594,4.8594,4.8594,4.8594,4.8469,4.81,4.7426,4.6761,4.6271,4.6025,4.576,4.5846,4.6275,4.6747,4.6963,4.7028,4.7366,4.7578,4.7668,4.7429,4.7309,4.7309,4.7309,4.7309,4.7309,4.7309,4.7309,4.7309,4.7309,4.7309,4.7309,4.7309,4.7309,4.7309,4.7309,4.7309,4.7309,4.7309,4.7309,4.7309,4.7309,4.7309,4.7309,4.7309,4.7309,4.7309,4.7309,4.7309,4.7309,4.7309,4.7309,4.7418,4.7818,4.8128,4.8338,4.8487,4.8947,0.0,4.7829,0.0,4.7638,4.7519,4.5813,4.5264,4.661,4.5443,4.5294,4.6629,4.7978,4.8887,4.9288,5.0541,5.1206,5.1206,5.1206,5.1206,5.1206,5.1206,5.1546,5.2217,5.2887,5.3785,5.482,5.5089,5.5192,5.5192,5.5192,5.5192,5.5192,5.5192,5.5192,5.5192,5.5192,5.5192,5.5192,4.8234,4.8324,4.86,4.9266,4.9175,4.9244,4.9903,4.9674,4.9372,4.923,4.9149,4.9169,4.927,4.9108,4.8996,4.8996,4.8749,4.8594,4.8594,4.8594,4.8594,4.8594,4.8594,4.8563,4.85,4.8355,4.8036,4.7526,4.6834,4.6498,4.6498,4.6509,4.6609,4.6837,4.7354,4.7318,4.6853,4.7674,4.7728,4.7309,4.7309,4.7309,4.7309,4.7309,4.7309,4.7309,4.7309,4.7309,4.7309,4.7309,4.7309,4.7309,4.7309,4.7309,4.7309,4.7309,4.7309,4.7309,4.7309,4.7309,4.7309,4.7309,4.7309,4.7309,4.7309,4.7309,4.7309,4.7309,4.7309,4.7309,4.7309,4.7309,4.7459,4.7919,4.8008,4.8158,4.8648,4.8708,0.0,4.7668,4.7429,4.7268,4.7179,4.5982,4.5653,4.679,4.5832,4.5683,4.682,4.7788,4.8787,4.9845,5.0739,5.1206,5.1206,5.1206,5.1206,5.1206,5.1206,5.1457,5.1947,5.2797,5.3815,5.4922,5.5089,5.5192,5.5192,5.5192,5.5192,5.5192,5.5192,5.5192,5.5192,5.5192,5.5192,5.5192,4.987,4.9721,4.9582,4.9582,4.9421,4.929,4.9311,4.9149,4.9006,4.8996,4.8769,4.878,4.926,4.9108,4.8996,4.8996,4.8749,4.8594,4.8594,4.8594,4.8594,4.8594,4.8594,4.85,4.8322,4.8312,4.8207,4.7996,4.7327,4.6983,4.6983,4.7003,4.6847,4.6617,4.729,4.7484,4.7309,4.7309,4.7298,4.7309,4.7309,4.7309,4.7309,4.7309,4.7309,4.7309,4.7309,4.7309,4.7309,4.7309,4.7309,4.7309,4.7309,4.7309,4.7309,4.7309,4.7309,4.7309,4.7309,4.7309,4.7309,4.7309,4.7309,4.7309,4.7309,4.7309,4.7309,4.7309,4.7309,4.7309,4.7309,4.7309,4.7309,4.7298,4.7298,4.7298,4.7328,4.7328,4.7549,4.8218,4.7698,4.7829,4.9138,4.8038,4.7549,4.8218,4.7638,4.7549,4.8248,4.8278,4.9164,5.1128,5.1176,5.1206,5.1206,5.1206,5.1206,5.1206,5.1206,5.1206,5.1265,5.2588,5.3575,5.4239,5.491,5.5192,5.5192,5.5192,5.5192,5.5192,5.5192,5.5192,5.5192,5.5192,5.5192,5.5192,4.9733,4.9622,4.9573,4.9432,4.933,4.926,4.9129,4.9047,4.8893,4.8552,4.8458,4.8417,4.8417,4.8604,4.8676,4.8531,4.8583,4.8469,4.8218,4.8333,4.8417,4.8417,4.827,4.8239,4.8312,4.7996,4.7784,4.772,4.7045,4.6974,4.7397,4.7397,4.7521,4.7747,4.7496,4.7363,4.7309,4.7309,4.7309,4.7309,4.7309,4.7309,4.7309,4.7309,4.7309,4.7309,4.7309,4.7309,4.7309,4.7309,4.7309,4.7309,4.7309,4.7309,4.7309,4.7309,4.7309,4.7309,4.7309,4.7309,4.7309,4.7309,4.7309,4.7309,4.7309,4.7309,4.7309,4.7309,4.7309,4.7309,4.7309,4.7309,4.7309,4.7309,4.7309,4.7309,4.7309,4.7309,4.7209,4.6969,4.676,4.6969,4.7848,4.6711,4.6411,4.7519,4.6561,4.6841,4.8858,4.9363,5.0099,5.1187,5.1636,5.1666,5.1206,5.1206,5.1206,5.1206,5.1206,5.1427,5.1917,5.2306,5.3114,5.4209,5.4431,5.479,5.5192,5.5192,5.5192,5.5192,5.5192,5.5192,5.5192,5.5192,5.5192,5.5192,4.9392,4.9372,4.9301,4.9098,4.9026,4.8954,4.8686,4.8635,4.851,4.8228,4.8197,4.8144,4.8017,4.8228,4.8333,4.8207,4.8312,4.8281,4.8017,4.8123,4.8197,4.8197,4.807,4.8017,4.8038,4.7752,4.7549,4.7473,4.7083,4.7083,4.7473,4.7473,4.7649,4.7919,4.7489,4.7309,4.7309,4.7309,4.7309,4.7309,4.7309,4.7309,4.7309,4.7309,4.7309,4.7309,4.7309,4.7309,4.7309,4.7309,4.7309,4.7309,4.7309,4.7309,4.7309,4.7309,4.7309,4.7309,4.7309,4.7309,4.7309,4.7309,4.7309,4.7309,4.7309,4.7309,4.7309,4.7309,4.7309,4.7309,4.7309,4.7309,4.7309,4.7309,4.7309,4.7309,4.7309,4.7309,4.7149,4.673,4.667,4.685,4.7268,4.677,4.6781,4.7608,4.7328,4.7997,4.9894,4.9662,5.0129,5.1517,5.1726,5.1606,5.1206,5.1206,5.1206,5.1206,5.1206,5.1427,5.1816,5.2097,5.2785,5.3832,5.4089,5.4581,5.5192,5.5192,5.5192,5.5192,5.5192,5.5192,5.5192,5.5192,5.5192,5.5192,4.8965,4.8965,4.8883,4.8604,4.8563,4.8417,4.806,4.7996,4.7986,4.7975,4.7975,4.7964,4.7954,4.7954,4.7954,4.7954,4.7986,4.7986,4.7954,4.7954,4.7975,4.7975,4.7954,4.7837,4.7602,4.7581,4.7473,4.7309,4.7309,4.7309,4.7309,4.7309,4.7309,4.7309,4.7309,4.7309,4.7309,4.7309,4.7309,4.7309,4.7309,4.7309,4.7309,4.7309,4.7309,4.7309,4.7309,4.7309,4.7309,4.7309,4.7309,4.7309,4.7309,4.7309,4.7309,4.7309,4.7309,4.7309,4.7309,4.7309,4.7309,4.7309,4.7309,4.7309,4.7309,4.7309,4.7309,4.7309,4.7309,4.7309,4.7309,4.7309,4.7309,4.7309,4.7309,4.7309,4.7309,4.7309,4.7309,4.7309,4.7309,4.7309,4.7309,4.7848,4.8218,4.8218,4.9363,5.0357,5.1038,4.9374,4.9583,5.2127,5.1546,5.1206,5.1206,5.1206,5.1206,5.1206,5.1206,5.1206,5.1206,5.1846,5.2498,5.3156,5.3803,5.4461,5.5132,5.5132,5.5162,5.5192,5.5192,5.5192,5.5192,5.5192,5.5192,5.5192,4.8697,4.8573,4.8448,4.8365,4.8249,4.8112,4.8017,4.7996,4.7922,4.772,4.7688,4.7634,4.7463,4.7482,4.7482,4.7482,4.7784,4.7837,4.7503,4.7602,4.7688,4.7688,4.7568,4.7525,4.7591,4.746,4.7352,4.7309,4.7309,4.7309,4.7309,4.7309,4.7309,4.7309,4.7309,4.7309,4.7309,4.7309,4.7309,4.7309,4.7309,4.7309,4.7309,4.7309,4.7309,4.7309,4.7309,4.7309,4.7309,4.7309,4.7309,4.7309,4.7309,4.7309,4.7309,4.7309,4.7309,4.7309,4.7309,4.7309,4.7309,4.7309,4.7309,4.7309,4.7309,4.7309,4.7309,4.7309,4.7309,4.7309,4.7309,4.7309,4.7309,4.7309,4.7309,4.7309,4.7309,4.7309,4.7309,4.7309,4.7309,4.7309,4.7309,4.7429,4.7549,4.7549,4.8297,4.9045,4.9726,4.9751,5.0488,5.2157,5.1546,5.1206,5.1206,5.1206,5.1206,5.1206,5.1206,5.1206,5.1217,5.1367,5.1786,5.2456,5.2606,5.3341,5.4431,5.4431,5.473,5.5192,5.5192,5.5192,5.5192,5.5192,5.5192,5.5192,4.8124,4.806,4.7986,4.7986,4.789,4.7784,4.7688,4.7666,4.7613,4.7463,4.7452,4.7428,4.732,4.7309,4.7309,4.7309,4.7516,4.7559,4.732,4.7417,4.7452,4.7452,4.7363,4.7363,4.7471,4.7363,4.7309,4.7309,4.7309,4.7309,4.7309,4.7309,4.7309,4.7309,4.7309,4.7309,4.7309,4.7309,4.7309,4.7309,4.7309,4.7309,4.7309,4.7309,4.7309,4.7309,4.7309,4.7309,4.7309,4.7309,4.7309,4.7309,4.7309,4.7309,4.7309,4.7309,4.7309,4.7309,4.7309,4.7309,4.7309,4.7309,4.7309,4.7309,4.7309,4.7309,4.7309,4.7309,4.7309,4.7309,4.7309,4.7309,4.7309,4.7309,4.7309,4.7309,4.7309,4.7309,4.7309,4.7309,4.7309,4.7309,4.7309,4.7309,4.7309,4.7309,4.8218,4.8929,4.9288,5.0152,5.0996,5.1726,5.1397,5.1206,5.1206,5.1206,5.1206,5.1206,5.1206,5.1206,5.1206,5.1206,5.1576,5.2187,5.2187,5.2785,5.3743,5.3743,5.3964,5.4294,5.4294,5.4294,5.4294,5.4294,5.4294,5.4294,4.7549,4.7549,4.7549,4.7549,4.7549,4.7514,4.7331,4.7309,4.7309,4.7309,4.7309,4.7309,4.7309,4.7309,4.7309,4.7309,4.7309,4.7309,4.7309,4.7309,4.7309,4.7309,4.7309,4.7309,4.7309,4.7309,4.7309,4.7309,4.7309,4.7309,4.7309,4.7309,4.7309,4.7309,4.7309,4.7309,4.7309,4.7309,4.7309,4.7309,4.7309,4.7309,4.7309,4.7309,4.7309,4.7309,4.7309,4.7309,4.7309,4.7309,4.7309,4.7309,4.7309,4.7309,4.7309,4.7309,4.7309,4.7309,4.7309,4.7309,4.7309,4.7309,4.7309,4.7309,4.7309,4.7309,4.7309,4.7309,4.7309,4.7309,4.7309,4.7309,4.7309,4.7309,4.7219,4.7179,4.7309,4.7209,4.7179,4.7309,4.7309,4.7309,4.7309,4.7309,4.7309,4.7309,4.8528,4.9288,4.9288,5.0511,5.1206,5.1206,5.1206,5.1206,5.1206,5.1206,5.1206,5.1206,5.1206,5.1206,5.1206,5.1206,5.1517,5.2067,5.2067,5.2438,5.3037,5.3037,5.3097,5.3198,5.3198,5.3198,5.3198,5.3198,5.3198,5.3198,4.7352,4.7352,4.7352,4.7352,4.7352,4.7342,4.7309,4.7309,4.7309,4.7309,4.7309,4.7309,4.7309,4.7309,4.7309,4.7309,4.7309,4.7309,4.7309,4.7309,4.7309,4.7309,4.7309,4.7309,4.7309,4.7309,4.7309,4.7309,4.7309,4.7309,4.7309,4.7309,4.7309,4.7309,4.7309,4.7309,4.7309,4.7309,4.7309,4.7309,4.7309,4.7309,4.7309,4.7309,4.7309,4.7309,4.7309,4.7309,4.7309,4.7309,4.7309,4.7309,4.7309,4.7309,4.7309,4.7309,4.7309,4.7309,4.7309,4.7309,4.7309,4.7309,4.7309,4.7309,4.7309,4.7309,4.7309,4.7309,4.7309,4.7309,4.7309,4.7309,4.7309,4.7309,4.6809,4.6659,4.7209,4.682,4.667,4.7238,4.7309,4.7309,4.7309,4.7309,4.7309,4.7309,4.8528,4.9288,4.9288,5.0511,5.1206,5.1206,5.1206,5.1206,5.1206,5.1206,5.1206,5.1206,5.1206,5.1206,5.1206,5.1206,5.1265,5.1367,5.1367,5.1726,5.2378,5.2378,5.2677,5.3198,5.3198,5.3198,5.3198,5.3198,5.3198,5.3198,4.7309,4.7309,4.7309,4.7309,4.7309,4.7309,4.7309,4.7309,4.7309,4.7309,4.7309,4.7309,4.7309,4.7309,4.7309,4.7309,4.7309,4.7309,4.7309,4.7309,4.7309,4.7309,4.7309,4.7309,4.7309,4.7309,4.7309,4.7309,4.7309,4.7309,4.7309,4.7309,4.7309,4.7309,4.7309,4.7309,4.7309,4.7309,4.7309,4.7309,4.7309,4.7309,4.7309,4.7309,4.7309,4.7309,4.7309,4.7309,4.7309,4.7309,4.7309,4.7309,4.7309,4.7309,4.7309,4.7309,4.7309,4.7309,4.7309,4.7309,4.7309,4.7309,4.7309,4.7309,4.7309,4.7309,4.7309,4.7309,4.7309,4.7309,4.7309,4.7309,4.7309,4.7309,4.7029,4.6939,4.7268,4.7029,4.6939,4.7268,4.7309,4.7309,4.7309,4.7309,4.7459,4.7818,4.8738,4.9426,4.9763,5.0679,5.1206,5.1206,5.1206,5.1206,5.1206,5.1206,5.1206,5.1206,5.1206,5.1206,5.1206,5.1206,5.1206,5.1206,5.1206,5.1367,5.1666,5.1666,5.1858,5.2127,5.2127,5.2127,5.2127,5.2127,5.2127,5.2127,4.7309,4.7309,4.7309,4.7309,4.7309,4.7309,4.7309,4.7309,4.7309,4.7309,4.7309,4.7309,4.7309,4.7309,4.7309,4.7309,4.7309,4.7309,4.7309,4.7309,4.7309,4.7309,4.7309,4.7309,4.7309,4.7309,4.7309,4.7309,4.7309,4.7309,4.7309,4.7309,4.7309,4.7309,4.7309,4.7309,4.7309,4.7309,4.7309,4.7309,4.7309,4.7309,4.7309,4.7309,4.7309,4.7309,4.7309,4.7309,4.7309,4.7309,4.7309,4.7309,4.7309,4.7309,4.7309,4.7309,4.7309,4.7309,4.7309,4.7309,4.7309,4.7309,4.7309,4.7309,4.7309,4.7309,4.7309,4.7309,4.7309,4.7309,4.7309,4.7309,4.7309,4.7309,4.7179,4.7119,4.7279,4.7189,4.7119,4.7268,4.7309,4.7309,4.7309,4.7309,4.7578,4.8248,4.8917,4.9565,5.0177,5.0847,5.1206,5.1206,5.1206,5.1206,5.1206,5.1206,5.1206,5.1206,5.1206,5.1206,5.1206,5.1206,5.1206,5.1206,5.1206,5.1206,5.1206,5.1206,5.1206,5.1206,5.1206,5.1206,5.1206,5.1206,5.1206,5.1206,4.7309,4.7309,4.7309,4.7309,4.7309,4.7309,4.7309,4.7309,4.7309,4.7309,4.7309,4.7309,4.7309,4.7309,4.7309,4.7309,4.7309,4.7309,4.7309,4.7309,4.7309,4.7309,4.7309,4.7309,4.7309,4.7309,4.7309,4.7309,4.7309,4.7309,4.7309,4.7309,4.7309,4.7309,4.7309,4.7309,4.7309,4.7309,4.7309,4.7309,4.7309,4.7309,4.7309,4.7309,4.7309,4.7309,4.7309,4.7309,4.7309,4.7309,4.7309,4.7309,4.7309,4.7309,4.7309,4.7309,4.7309,4.7309,4.7309,4.7309,4.7309,4.7309,4.7309,4.7309,4.7309,4.7309,4.7309,4.7309,4.7309,4.7309,4.7309,4.7309,4.7309,4.7309,4.679,4.66,4.7209,4.676,4.66,4.7249,4.7309,4.7309,4.7309,4.7309,4.7578,4.8248,4.8917,4.9565,5.0177,5.0847,5.1206,5.1206,5.1206,5.1206,5.1206,5.1206,5.1206,5.1206,5.1206,5.1206,5.1206,5.1206,5.1206,5.1206,5.1206,5.1206,5.1206,5.1206,5.1206,5.1206,5.1206,5.1206,5.1206,5.1206,5.1206,5.1206,4.7309,4.7309,4.7309,4.7309,4.7309,4.7309,4.7309,4.7309,4.7309,4.7309,4.7309,4.7309,4.7309,4.7309,4.7309,4.7309,4.7309,4.7309,4.7309,4.7309,4.7309,4.7309,4.7309,4.7309,4.7309,4.7309,4.7309,4.7309,4.7309,4.7309,4.7309,4.7309,4.7309,4.7309,4.7309,4.7309,4.7309,4.7309,4.7309,4.7309,4.7309,4.7309,4.7309,4.7309,4.7309,4.7309,4.7309,4.7309,4.7309,4.7309,4.7309,4.7309,4.7309,4.7309,4.7309,4.7309,4.7309,4.7309,4.7309,4.7309,4.7309,4.7309,4.7309,4.7309,4.7309,4.7309,4.7309,4.7309,4.7309,4.7309,4.7309,4.7309,4.7309,4.7309,4.7089,4.6999,4.7268,4.7089,4.6999,4.7268,4.7309,4.7309,4.7309,4.7309,4.7758,4.8828,4.9168,4.9744,5.0757,5.1056,5.1206,5.1206,5.1206,5.1206,5.1206,5.1206,5.1206,5.1206,5.1206,5.1206,5.1206,5.1206,5.1206,5.1206,5.1206,5.1206,5.1206,5.1206,5.1206,5.1206,5.1206,5.1206,5.1206,5.1206,5.1206,5.1206,4.7309,4.7309,4.7309,4.7309,4.7309,4.7309,4.7309,4.7309,4.7309,4.7309,4.7309,4.7309,4.7309,4.7309,4.7309,4.7309,4.7309,4.7309,4.7309,4.7309,4.7309,4.7309,4.7309,4.7309,4.7309,4.7309,4.7309,4.7309,4.7309,4.7309,4.7309,4.7309,4.7309,4.7309,4.7309,4.7309,4.7309,4.7309,4.7255,4.716,4.716,4.716,4.716,4.716,4.7244,4.7309,4.7309,4.7309,4.7309,4.7309,4.7309,4.7309,4.7309,4.7309,4.7309,4.7309,4.7309,4.7309,4.7309,4.7309,4.7309,4.7309,4.7309,4.7309,4.7309,4.7309,4.7309,4.7309,4.7309,4.7309,4.7309,4.7309,4.7309,4.7309,4.7309,4.7309,4.7309,4.7309,4.7309,4.7309,4.7309,4.7309,4.7309,4.7309,4.7859,4.9198,4.9288,4.9875,5.1116,5.1206,5.1206,5.1206,5.1206,5.1206,5.1206,5.1206,5.1206,5.1206,5.1206,5.1206,5.1206,5.1206,5.1206,5.1206,5.1206,5.1206,5.1206,5.1206,5.1206,5.1206,5.1206,5.1206,5.1206,5.1206,5.1206,5.1206,4.7309,4.7309,4.7309,4.7309,4.7309,4.7309,4.7309,4.7309,4.7309,4.7309,4.7309,4.7309,4.7309,4.7309,4.7309,4.7309,4.7309,4.7309,4.7309,4.7309,4.7309,4.7309,4.7309,4.7309,4.7309,4.7309,4.7309,4.7309,4.7309,4.7309,4.7309,4.7309,4.7309,4.7309,4.7309,4.7309,4.7309,4.7309,4.7127,4.6909,4.6909,4.6909,4.6909,4.6909,4.7062,4.7309,4.7309,4.7309,4.7309,4.7309,4.7309,4.7309,4.7309,4.7309,4.7309,4.7309,4.7309,4.7309,4.7309,4.7309,4.7309,4.7309,4.7309,4.7309,4.7309,4.7309,4.7309,4.7309,4.7309,4.7309,4.7309,4.7309,4.7309,4.7309,4.7309,4.7309,4.7309,4.7309,4.7309,4.7309,4.7309,4.7309,4.7309,4.7309,4.7848,4.9198,4.9318,4.9875,5.1116,5.1206,5.1206,5.1206,5.1206,5.1206,5.1206,5.1206,5.1206,5.1206,5.1206,5.1206,5.1206,5.1206,5.1206,5.1206,5.1206,5.1206,5.1206,5.1206,5.1206,5.1206,5.1206,5.1206,5.1206,5.1206,5.1206,5.1206,4.7309,4.7309,4.7309,4.7309,4.7309,4.7309,4.7309,4.7309,4.7309,4.7309,4.7309,4.7309,4.7309,4.7309,4.7309,4.7309,4.7309,4.7309,4.7309,4.7309,4.7309,4.7309,4.7309,4.7309,4.7309,4.7309,4.7309,4.7309,4.7309,4.7309,4.7309,4.7309,4.7309,4.7309,4.7309,4.7212,4.7019,4.7019,4.6887,4.6679,4.6679,4.6679,4.6701,4.6855,4.6953,4.7019,4.7019,4.7127,4.7277,4.7073,4.7127,4.7309,4.7309,4.7309,4.7309,4.7309,4.7309,4.7309,4.7309,4.7309,4.7309,4.7309,4.7309,4.7309,4.7309,4.7309,4.7309,4.7309,4.7309,4.7309,4.7309,4.7309,4.7309,4.7309,4.7309,4.7309,4.7309,4.7309,4.7309,4.7309,4.7309,4.7309,4.7309,4.7728,4.8368,4.9228,5.0133,5.0799,5.1187,5.1206,5.1206,5.1206,5.1206,5.1206,5.1206,5.1206,5.1206,5.1206,5.1206,5.1206,5.1206,5.1206,5.1206,5.1206,5.1206,5.1206,5.1206,5.1206,5.1206,5.1206,5.1206,5.1206,5.1206,5.1206,5.1206,5.1206,4.7309,4.7309,4.7309,4.7309,4.7309,4.7309,4.7309,4.7309,4.7309,4.7309,4.7309,4.7309,4.7309,4.7309,4.7309,4.7309,4.7309,4.7309,4.7309,4.7309,4.7309,4.7309,4.7309,4.7309,4.7309,4.7309,4.7309,4.7309,4.7309,4.7309,4.7309,4.7309,4.7309,4.7309,4.7309,4.7138,4.6909,4.6909,4.6723,4.6436,4.6436,4.6436,4.6458,4.6591,4.6701,4.6778,4.6778,4.6876,4.6997,4.6931,4.7073,4.7309,4.7309,4.7309,4.7309,4.7309,4.7309,4.7309,4.7309,4.7309,4.7309,4.7309,4.7309,4.7309,4.7309,4.7309,4.7309,4.7309,4.7309,4.7309,4.7309,4.7309,4.7309,4.7309,4.7309,4.7309,4.7309,4.7309,4.7309,4.7309,4.7309,4.7309,4.7309,4.7919,4.8667,4.9583,5.0619,5.1206,5.1206,5.1206,5.1206,5.1206,5.1206,5.1206,5.1206,5.1206,5.1206,5.1206,5.1206,5.1206,5.1206,5.1206,5.1206,5.1206,5.1206,5.1206,5.1206,5.1206,5.1206,5.1206,5.1206,5.1206,5.1206,5.1206,5.1206,5.1206,4.7309,4.7309,4.7309,4.7309,4.7309,4.7309,4.7309,4.7309,4.7309,4.7309,4.7309,4.7309,4.7309,4.7309,4.7309,4.7309,4.7309,4.7309,4.7309,4.7309,4.7309,4.7309,4.7309,4.7309,4.7309,4.7309,4.7309,4.7309,4.7309,4.7309,4.7309,4.7309,4.7309,4.7309,4.7277,4.7106,4.6876,4.6855,4.6591,4.618,4.618,4.618,4.6191,4.6202,4.6347,4.6546,4.6546,4.6569,4.6613,4.6833,4.7073,4.7309,4.7309,4.7309,4.7309,4.7309,4.7309,4.7309,4.7309,4.7309,4.7309,4.7309,4.7309,4.7309,4.7309,4.7309,4.7309,4.7309,4.7309,4.7309,4.7309,4.7309,4.7309,4.7309,4.7309,4.7309,4.7309,4.7309,4.7309,4.7309,4.7309,4.7328,4.7388,4.8027,4.8985,5.0207,5.0847,5.1206,5.1206,5.1206,5.1206,5.1206,5.1206,5.1206,5.1206,5.1206,5.1206,5.1206,5.1206,5.1206,5.1206,5.1206,5.1206,5.1206,5.1206,5.1206,5.1206,5.1206,5.1206,5.1206,5.1206,5.1206,5.1206,5.1206,5.1206,5.1206,4.7309,4.7309,4.7309,4.7309,4.7309,4.7309,4.7309,4.7309,4.7309,4.7309,4.7309,4.7309,4.7309,4.7309,4.7309,4.7309,4.7309,4.7309,4.7309,4.7309,4.7309,4.7309,4.7309,4.7309,4.7309,4.7309,4.7309,4.7309,4.7309,4.7309,4.7309,4.7309,4.7309,4.7298,4.7073,4.6866,4.6635,4.6447,4.6202,4.5956,4.5956,4.5956,4.5967,4.6146,4.6247,4.6291,4.6291,4.6414,4.6613,4.6833,4.7073,4.7309,4.7309,4.7309,4.7309,4.7309,4.7309,4.7309,4.7309,4.7309,4.7309,4.7309,4.7309,4.7309,4.7309,4.7309,4.7309,4.7309,4.7309,4.7309,4.7309,4.7309,4.7309,4.7309,4.7309,4.7309,4.7309,4.7309,4.7309,4.7309,4.7309,4.7519,4.8038,4.9123,5.0129,5.0936,5.1128,5.1206,5.1206,5.1206,5.1206,5.1206,5.1206,5.1206,5.1206,5.1206,5.1206,5.1206,5.1206,5.1206,5.1206,5.1206,5.1206,5.1206,5.1206,5.1206,5.1206,5.1206,5.1206,5.1206,5.1206,5.1206,5.1206,5.1206,5.1206,5.1206,4.7309,4.7309,4.7309,4.7309,4.7309,4.7309,4.7309,4.7309,4.7309,4.7309,4.7309,4.7309,4.7309,4.7309,4.7309,4.7309,4.7309,4.7309,4.7309,4.7309,4.7309,4.7309,4.7309,4.7309,4.7309,4.7309,4.7309,4.7309,4.7309,4.7309,4.7309,4.7309,4.7309,4.7298,4.7019,4.6789,4.6569,4.6314,4.6079,4.5906,4.5906,4.5906,4.5929,4.6012,4.6057,4.6057,4.6057,4.6202,4.6425,4.6535,4.6745,4.6994,4.7073,4.7106,4.7117,4.7266,4.7309,4.7309,4.7309,4.7309,4.7309,4.7309,4.7309,4.7309,4.7309,4.7309,4.7309,4.7309,4.7309,4.7309,4.7309,4.7309,4.7309,4.7309,4.7309,4.7309,4.7309,4.7309,4.7309,4.7309,4.7309,4.7698,4.8678,4.9632,5.0476,5.1146,5.1206,5.1206,5.1206,5.1206,5.1206,5.1206,5.1206,5.1206,5.1206,5.1206,5.1206,5.1206,5.1206,5.1206,5.1206,5.1206,5.1206,5.1206,5.1206,5.1206,5.1206,5.1206,5.1206,5.1206,5.1206,5.1206,5.1206,5.1206,5.1206,5.1206,4.7309,4.7309,4.7309,4.7309,4.7309,4.7309,4.7309,4.7309,4.7309,4.7309,4.7309,4.7309,4.7309,4.7309,4.7309,4.7309,4.7309,4.7309,4.7309,4.7309,4.7309,4.7309,4.7309,4.7309,4.7309,4.7309,4.7309,4.7309,4.7309,4.7309,4.7309,4.7309,4.7287,4.7233,4.6964,4.6734,4.6502,4.6258,4.6046,4.5906,4.5906,4.5906,4.5906,4.5906,4.5906,4.5906,4.5906,4.6046,4.6269,4.6236,4.6403,4.6668,4.6811,4.6876,4.6942,4.716,4.7266,4.7309,4.7309,4.7309,4.7309,4.7309,4.7309,4.7309,4.7309,4.7309,4.7309,4.7309,4.7309,4.7309,4.7309,4.7309,4.7309,4.7309,4.7309,4.7309,4.7309,4.7309,4.7309,4.7309,4.7489,4.8128,4.9337,5.0021,5.0596,5.1146,5.1206,5.1206,5.1206,5.1206,5.1206,5.1206,5.1206,5.1206,5.1206,5.1206,5.1206,5.1206,5.1206,5.1206,5.1206,5.1206,5.1206,5.1206,5.1206,5.1206,5.1206,5.1206,5.1206,5.1206,5.1206,5.1206,5.1206,5.1206,5.1206,5.1206,4.7309,4.7309,4.7309,4.7309,4.7309,4.7309,4.7309,4.7309,4.7309,4.7309,4.7309,4.7309,4.7309,4.7309,4.7309,4.7309,4.7309,4.7309,4.7309,4.7309,4.7309,4.7309,4.7309,4.7309,4.7309,4.7309,4.7309,4.7309,4.7309,4.7309,4.7309,4.7309,4.716,4.6942,4.6723,4.6491,4.6247,4.6023,4.5929,4.5906,4.5906,4.5906,4.5906,4.5906,4.5906,4.5906,4.5906,4.6198,4.6502,4.6291,4.6502,4.6833,4.6679,4.6756,4.692,4.6942,4.7106,4.7309,4.7309,4.7309,4.7309,4.7309,4.7309,4.7309,4.7309,4.7309,4.7309,4.7309,4.7309,4.7309,4.7309,4.7309,4.7309,4.7309,4.7309,4.7309,4.7309,4.7309,4.7309,4.7309,4.8308,4.9295,5.0009,5.0667,5.1086,5.1176,5.1206,5.1206,5.1206,5.1206,5.1206,5.1206,5.1206,5.1206,5.1206,5.1206,5.1206,5.1206,5.1206,5.1206,5.1206,5.1206,5.1206,5.1206,5.1206,5.1206,5.1206,5.1206,5.1206,5.1206,5.1206,5.1206,5.1206,5.1206,5.1206,5.1206,4.7309,4.7309,4.7309,4.7309,4.7309,4.7309,4.7309,4.7309,4.7309,4.7309,4.7309,4.7309,4.7309,4.7309,4.7309,4.7309,4.7309,4.7309,4.7309,4.7309,4.7309,4.7309,4.7309,4.7309,4.7309,4.7309,4.7309,4.7309,4.7309,4.7309,4.7309,4.7138,4.7008,4.6887,4.6535,4.6314,4.6202,4.6007,4.5906,4.5906,4.5906,4.5906,4.5906,4.5906,4.5906,4.5929,4.6023,4.6291,4.6546,4.6291,4.6347,4.6502,4.6403,4.6535,4.6756,4.6876,4.7084,4.7309,4.7309,4.7309,4.7309,4.7309,4.7309,4.7309,4.7309,4.7309,4.7309,4.7309,4.7309,4.7309,4.7309,4.7309,4.7309,4.7309,4.7309,4.7309,4.7309,4.7309,4.7429,4.7818,4.8708,4.9535,5.0147,5.0817,5.1206,5.1206,5.1206,5.1206,5.1206,5.1206,5.1206,5.1206,5.1206,5.1206,5.1206,5.1206,5.1206,5.1206,5.1206,5.1206,5.1206,5.1206,5.1206,5.1206,5.1206,5.1206,5.1206,5.1206,5.1206,5.1206,5.1206,5.1206,5.1206,5.1206,5.1206,5.1206]},{"header":{"parameterUnit":"m.s-1","parameterCategory":1,"la1":30.6,"la2":28.766,"lo1":-90.7593,"lo2":-88.6598,"dy":0.0162,"dx":0.0183,"nx":116,"ny":114,"refTime":"2023-04-05T12:00:00:Z","depth":0,"parameterNumber":3,"parameterNumberName":"V-component_of_WINDS"},"data":[0.0,0.0,0.0,0.0,0.0,0.0,0.0,0.0,0.0,0.0,0.0,0.0,0.0,0.0,0.0,0.0,0.0,0.0,0.0,0.0,0.0,0.0,0.0,0.0,0.0,0.0,0.0,0.0,0.0,0.0,0.0,0.0,0.0,0.0,0.0,0.0,0.0,0.0,0.0,0.0,0.0,0.0,0.0,0.0,0.0,0.0,0.0,0.0,0.0,0.0,0.0,0.0,0.0,0.0,0.0,0.0,0.0,0.0,0.0,0.0,0.0,0.0,0.0,0.0,0.0,0.0,0.0,0.0,0.0,0.0,0.0,0.0,0.0,0.0,0.0,0.0,0.0,0.0,0.0,0.0,0.0,0.0,0.0,0.0,0.0,0.0,0.0,0.0,0.0,0.0,0.0,0.0,0.0,0.0,0.0,0.0,0.0,0.0,0.0,0.0,0.0,0.0,0.0,0.0,0.0,0.0,0.0,0.0,0.0,0.0,0.0,0.0,0.0,0.0,0.0,0.0,0.0,0.0,0.0,0.0,0.0,0.0,0.0,0.0,0.0,0.0,0.0,0.0,0.0,0.0,0.0,0.0,0.0,0.0,0.0,0.0,0.0,0.0,0.0,0.0,0.0,0.0,0.0,0.0,0.0,0.0,0.0,0.0,0.0,0.0,0.0,0.0,0.0,0.0,0.0,0.0,0.0,0.0,0.0,0.0,0.0,0.0,0.0,0.0,0.0,0.0,0.0,0.0,0.0,0.0,0.0,0.0,0.0,0.0,0.0,0.0,0.0,0.0,0.0,0.0,0.0,0.0,0.0,0.0,0.0,0.0,0.0,0.0,0.0,0.0,0.0,0.0,0.0,0.0,0.0,0.0,0.0,0.0,0.0,0.0,0.0,0.0,0.0,0.0,0.0,0.0,0.0,0.0,0.0,0.0,0.0,0.0,0.0,0.0,0.0,0.0,0.0,0.0,0.0,0.0,0.0,0.0,0.0,0.0,0.0,0.0,0.0,0.0,0.0,0.0,0.0,0.0,0.0,0.0,0.0,0.0,0.0,0.0,0.0,0.0,0.0,0.0,0.0,0.0,0.0,0.0,0.0,0.0,0.0,0.0,0.0,0.0,0.0,0.0,0.0,0.0,0.0,0.0,0.0,0.0,0.0,0.0,0.0,0.0,0.0,0.0,0.0,0.0,0.0,0.0,0.0,0.0,0.0,0.0,0.0,0.0,0.0,0.0,0.0,0.0,0.0,0.0,0.0,0.0,0.0,0.0,0.0,0.0,0.0,0.0,0.0,0.0,0.0,0.0,0.0,0.0,0.0,0.0,0.0,0.0,0.0,0.0,0.0,0.0,0.0,0.0,0.0,0.0,0.0,0.0,0.0,0.0,0.0,0.0,0.0,0.0,0.0,0.0,0.0,0.0,0.0,0.0,0.0,0.0,0.0,0.0,0.0,0.0,0.0,0.0,0.0,0.0,0.0,0.0,0.0,0.0,0.0,0.0,0.0,0.0,0.0,0.0,0.0,0.0,0.0,0.0,0.0,0.0,0.0,0.0,0.0,0.0,0.0,0.0,0.0,0.0,0.0,0.0,0.0,0.0,0.0,0.0,0.0,0.0,0.0,0.0,0.0,0.0,0.0,0.0,0.0,0.0,0.0,0.0,0.0,0.0,0.0,0.0,0.0,0.0,0.0,0.0,0.0,0.0,0.0,0.0,0.0,0.0,0.0,0.0,0.0,0.0,0.0,0.0,0.0,0.0,0.0,0.0,0.0,0.0,0.0,0.0,0.0,0.0,0.0,0.0,0.0,0.0,0.0,0.0,0.0,0.0,0.0,0.0,0.0,0.0,0.0,0.0,0.0,0.0,0.0,0.0,0.0,0.0,0.0,0.0,0.0,0.0,0.0,0.0,0.0,0.0,0.0,0.0,0.0,0.0,0.0,0.0,0.0,0.0,0.0,0.0,0.0,0.0,0.0,0.0,0.0,0.0,0.0,0.0,0.0,0.0,0.0,0.0,0.0,0.0,0.0,0.0,0.0,0.0,0.0,0.0,0.0,0.0,0.0,0.0,0.0,0.0,0.0,0.0,0.0,0.0,0.0,0.0,0.0,0.0,0.0,0.0,0.0,0.0,0.0,0.0,0.0,0.0,0.0,0.0,0.0,0.0,0.0,0.0,0.0,0.0,0.0,0.0,0.0,0.0,0.0,0.0,0.0,0.0,0.0,0.0,0.0,0.0,0.0,0.0,0.0,0.0,0.0,0.0,0.0,0.0,0.0,0.0,0.0,0.0,0.0,0.0,0.0,0.0,0.0,0.0,0.0,0.0,0.0,0.0,0.0,0.0,0.0,0.0,0.0,0.0,0.0,0.0,0.0,0.0,0.0,0.0,0.0,0.0,0.0,0.0,0.0,0.0,0.0,0.0,0.0,0.0,0.0,0.0,0.0,0.0,0.0,0.0,0.0,0.0,0.0,0.0,0.0,0.0,0.0,0.0,0.0,0.0,0.0,0.0,0.0,0.0,0.0,0.0,0.0,0.0,0.0,0.0,0.0,0.0,0.0,0.0,0.0,0.0,0.0,0.0,0.0,0.0,0.0,0.0,0.0,0.0,0.0,0.0,0.0,0.0,0.0,0.0,0.0,0.0,0.0,0.0,0.0,0.0,0.0,0.0,0.0,0.0,0.0,0.0,0.0,0.0,0.0,0.0,0.0,0.0,0.0,0.0,0.0,0.0,0.0,0.0,0.0,0.0,0.0,0.0,0.0,0.0,0.0,0.0,0.0,0.0,0.0,0.0,0.0,0.0,0.0,0.0,0.0,0.0,0.0,0.0,0.0,0.0,0.0,0.0,0.0,0.0,0.0,0.0,0.0,0.0,0.0,0.0,0.0,0.0,0.0,0.0,0.0,0.0,0.0,0.0,0.0,0.0,0.0,0.0,0.0,0.0,0.0,0.0,0.0,0.0,0.0,0.0,0.0,0.0,0.0,0.0,0.0,0.0,0.0,0.0,0.0,0.0,0.0,0.0,0.0,0.0,0.0,0.0,0.0,0.0,0.0,0.0,0.0,0.0,0.0,0.0,0.0,0.0,0.0,0.0,0.0,0.0,0.0,0.0,0.0,0.0,0.0,0.0,0.0,0.0,0.0,0.0,0.0,0.0,0.0,0.0,0.0,0.0,0.0,0.0,0.0,0.0,0.0,0.0,0.0,0.0,0.0,0.0,0.0,0.0,0.0,0.0,0.0,0.0,0.0,0.0,0.0,0.0,0.0,0.0,0.0,0.0,0.0,0.0,0.0,0.0,0.0,0.0,0.0,0.0,0.0,0.0,0.0,0.0,0.0,0.0,0.0,0.0,0.0,0.0,0.0,0.0,0.0,0.0,0.0,0.0,0.0,0.0,0.0,0.0,0.0,0.0,0.0,0.0,0.0,0.0,0.0,0.0,0.0,0.0,0.0,0.0,0.0,0.0,0.0,0.0,0.0,0.0,0.0,0.0,0.0,0.0,0.0,0.0,0.0,0.0,0.0,0.0,0.0,0.0,0.0,0.0,0.0,0.0,0.0,0.0,0.0,0.0,0.0,0.0,0.0,0.0,0.0,0.0,0.0,0.0,0.0,0.0,0.0,0.0,0.0,0.0,0.0,0.0,0.0,0.0,0.0,0.0,0.0,0.0,0.0,0.0,0.0,0.0,0.0,0.0,0.0,0.0,0.0,0.0,0.0,0.0,0.0,0.0,0.0,0.0,0.0,0.0,0.0,0.0,0.0,0.0,0.0,0.0,0.0,0.0,0.0,0.0,0.0,0.0,0.0,0.0,0.0,0.0,0.0,0.0,0.0,0.0,0.0,0.0,0.0,0.0,0.0,0.0,0.0,0.0,0.0,0.0,0.0,0.0,0.0,0.0,0.0,0.0,0.0,0.0,0.0,0.0,0.0,0.0,0.0,0.0,0.0,0.0,0.0,0.0,0.0,0.0,0.0,0.0,0.0,0.0,0.0,0.0,0.0,0.0,0.0,0.0,0.0,0.0,0.0,0.0,0.0,0.0,0.0,0.0,0.0,0.0,0.0,0.0,0.0,0.0,0.0,0.0,0.0,0.0,0.0,0.0,0.0,0.0,0.0,0.0,0.0,0.0,0.0,0.0,0.0,0.0,0.0,0.0,0.0,0.0,0.0,0.0,0.0,0.0,0.0,0.0,0.0,0.0,0.0,0.0,0.0,0.0,0.0,0.0,0.0,0.0,0.0,0.0,0.0,0.0,0.0,0.0,0.0,0.0,0.0,0.0,0.0,0.0,0.0,0.0,0.0,0.0,0.0,0.0,0.0,0.0,0.0,0.0,0.0,0.0,0.0,0.0,0.0,0.0,0.0,0.0,0.0,0.0,0.0,0.0,0.0,0.0,0.0,0.0,0.0,0.0,0.0,0.0,0.0,0.0,0.0,0.0,0.0,0.0,0.0,0.0,0.0,0.0,0.0,0.0,0.0,0.0,0.0,0.0,0.0,0.0,0.0,0.0,0.0,0.0,0.0,0.0,0.0,0.0,0.0,0.0,0.0,0.0,0.0,0.0,0.0,0.0,0.0,0.0,0.0,0.0,0.0,0.0,0.0,0.0,0.0,0.0,0.0,0.0,0.0,0.0,0.0,0.0,0.0,0.0,0.0,0.0,0.0,0.0,0.0,0.0,0.0,0.0,0.0,0.0,0.0,0.0,0.0,0.0,0.0,0.0,0.0,0.0,0.0,0.0,0.0,0.0,0.0,0.0,0.0,0.0,0.0,0.0,0.0,0.0,0.0,0.0,0.0,0.0,0.0,0.0,0.0,0.0,0.0,0.0,0.0,0.0,0.0,0.0,0.0,0.0,0.0,0.0,0.0,0.0,0.0,0.0,0.0,0.0,0.0,0.0,0.0,0.0,0.0,0.0,0.0,0.0,0.0,0.0,0.0,0.0,0.0,0.0,0.0,0.0,0.0,0.0,0.0,0.0,0.0,0.0,0.0,0.0,0.0,0.0,0.0,0.0,0.0,0.0,0.0,0.0,0.0,0.0,0.0,0.0,0.0,0.0,0.0,0.0,0.0,0.0,0.0,0.0,0.0,0.0,0.0,0.0,0.0,0.0,0.0,0.0,0.0,0.0,0.0,0.0,0.0,0.0,0.0,0.0,0.0,0.0,0.0,0.0,0.0,0.0,0.0,0.0,0.0,0.0,0.0,0.0,0.0,0.0,0.0,0.0,0.0,0.0,0.0,0.0,0.0,0.0,0.0,0.0,0.0,0.0,0.0,0.0,0.0,0.0,0.0,0.0,0.0,0.0,0.0,0.0,0.0,0.0,0.0,0.0,0.0,0.0,0.0,0.0,0.0,0.0,0.0,0.0,0.0,0.0,0.0,0.0,0.0,0.0,0.0,0.0,0.0,0.0,0.0,0.0,0.0,0.0,0.0,0.0,0.0,0.0,0.0,0.0,0.0,0.0,0.0,0.0,0.0,0.0,0.0,0.0,0.0,0.0,0.0,0.0,0.0,0.0,0.0,0.0,0.0,0.0,0.0,0.0,0.0,0.0,0.0,0.0,0.0,0.0,0.0,0.0,0.0,0.0,0.0,0.0,0.0,0.0,0.0,0.0,0.0,0.0,0.0,0.0,0.0,0.0,0.0,0.0,0.0,0.0,0.0,0.0,0.0,0.0,0.0,0.0,0.0,0.0,0.0,0.0,0.0,0.0,0.0,0.0,0.0,0.0,0.0,0.0,0.0,0.0,0.0,0.0,0.0,0.0,0.0,0.0,0.0,0.0,0.0,0.0,0.0,0.0,0.0,0.0,0.0,0.0,0.0,0.0,0.0,0.0,0.0,0.0,0.0,0.0,0.0,0.0,0.0,0.0,0.0,0.0,0.0,0.0,0.0,0.0,0.0,0.0,0.0,0.0,0.0,0.0,0.0,0.0,0.0,0.0,0.0,0.0,0.0,0.0,0.0,0.0,0.0,0.0,0.0,0.0,0.0,0.0,0.0,0.0,0.0,0.0,0.0,0.0,0.0,0.0,0.0,0.0,0.0,0.0,0.0,0.0,0.0,0.0,0.0,0.0,0.0,0.0,0.0,0.0,0.0,0.0,0.0,0.0,3.1184,3.0712,0.0,0.0,0.0,0.0,0.0,0.0,0.0,0.0,0.0,0.0,0.0,0.0,0.0,0.0,0.0,0.0,0.0,0.0,0.0,0.0,0.0,0.0,0.0,0.0,0.0,0.0,0.0,0.0,0.0,0.0,0.0,0.0,0.0,0.0,0.0,0.0,0.0,0.0,2.5357,2.5554,2.596,2.616,2.5886,2.5209,0.0,0.0,0.0,0.0,0.0,0.0,0.0,0.0,0.0,0.0,0.0,0.0,0.0,0.0,0.0,0.0,0.0,0.0,0.0,0.0,0.0,0.0,0.0,0.0,0.0,0.0,0.0,0.0,0.0,0.0,0.0,0.0,0.0,0.0,0.0,0.0,0.0,0.0,0.0,0.0,0.0,0.0,0.0,0.0,0.0,0.0,0.0,0.0,0.0,0.0,0.0,0.0,0.0,0.0,0.0,0.0,0.0,0.0,0.0,0.0,0.0,0.0,0.0,0.0,0.0,0.0,0.0,0.0,0.0,0.0,3.2658,3.211,0.0,0.0,0.0,0.0,0.0,0.0,0.0,0.0,0.0,0.0,0.0,0.0,0.0,0.0,0.0,0.0,0.0,0.0,0.0,0.0,0.0,0.0,0.0,2.1642,2.1884,2.2134,2.2324,2.2606,0.0,0.0,0.0,0.0,0.0,0.0,0.0,2.4832,2.533,2.5898,2.5925,2.6293,2.7018,2.7329,2.6788,2.5502,2.5735,0.0,0.0,0.0,0.0,0.0,0.0,0.0,0.0,0.0,0.0,0.0,0.0,0.0,0.0,0.0,0.0,0.0,0.0,0.0,0.0,0.0,0.0,0.0,0.0,0.0,0.0,0.0,0.0,0.0,0.0,0.0,0.0,0.0,0.0,0.0,0.0,0.0,0.0,0.0,0.0,0.0,0.0,0.0,0.0,0.0,0.0,0.0,0.0,0.0,0.0,0.0,0.0,0.0,0.0,0.0,0.0,0.0,0.0,0.0,0.0,0.0,0.0,0.0,3.3846,3.4224,3.4428,3.4428,3.4553,3.4747,3.4306,3.3597,3.2787,3.2962,0.0,0.0,0.0,0.0,0.0,0.0,0.0,0.0,0.0,0.0,0.0,0.0,0.0,0.0,0.0,0.0,0.0,0.0,0.0,0.0,0.0,2.1842,2.2079,2.196,2.2776,2.3266,2.3178,0.0,0.0,0.0,0.0,0.0,2.516,2.567,2.6063,2.6318,2.6929,2.7317,2.7413,2.7493,2.7317,2.7031,2.7176,2.7231,2.7247,0.0,0.0,0.0,0.0,0.0,0.0,0.0,0.0,0.0,0.0,0.0,0.0,0.0,0.0,0.0,0.0,0.0,0.0,0.0,0.0,0.0,0.0,0.0,0.0,0.0,0.0,0.0,0.0,0.0,0.0,0.0,0.0,0.0,0.0,0.0,0.0,0.0,0.0,0.0,0.0,0.0,2.8062,2.8126,0.0,0.0,0.0,0.0,0.0,0.0,0.0,0.0,0.0,0.0,0.0,0.0,0.0,3.3197,3.3802,3.3896,3.3959,3.3973,3.4068,3.4695,3.5748,3.5748,3.6339,3.7434,3.7915,0.0,3.3983,3.5072,0.0,0.0,0.0,0.0,0.0,0.0,0.0,0.0,0.0,0.0,0.0,0.0,0.0,0.0,0.0,0.0,0.0,0.0,0.0,0.0,0.0,2.2342,2.2694,2.3206,2.367,2.4033,2.424,2.4556,0.0,0.0,0.0,2.5541,2.5315,2.6559,2.7463,2.7964,2.8356,2.8574,2.8574,2.8732,2.8767,2.87,2.8776,2.8435,2.7843,2.8012,0.0,0.0,0.0,0.0,0.0,0.0,0.0,0.0,0.0,0.0,0.0,0.0,0.0,0.0,0.0,0.0,0.0,0.0,0.0,0.0,0.0,0.0,0.0,0.0,0.0,0.0,0.0,0.0,0.0,0.0,0.0,0.0,0.0,0.0,0.0,0.0,0.0,0.0,0.0,2.827,2.8807,2.919,2.9746,3.0111,0.0,0.0,0.0,0.0,0.0,0.0,0.0,0.0,0.0,3.3136,3.3496,3.3777,3.3986,3.4362,3.4721,3.5053,3.5439,3.6135,3.7062,3.7062,3.7366,3.7905,3.8214,3.7538,3.6266,3.646,3.6759,3.7037,0.0,0.0,0.0,0.0,3.7782,3.7507,0.0,0.0,0.0,0.0,0.0,0.0,0.0,0.0,0.0,0.0,0.0,0.0,2.2694,2.2972,2.3431,2.4242,2.4595,2.4866,2.5093,2.5248,2.5391,2.5507,2.5877,2.6,2.5804,2.7407,2.8571,2.9243,2.9409,2.9512,2.9512,2.9711,2.9814,2.9814,2.9814,2.9322,2.8536,2.8841,2.8949,2.8949,0.0,0.0,0.0,0.0,0.0,0.0,0.0,0.0,0.0,0.0,0.0,0.0,0.0,0.0,0.0,0.0,0.0,0.0,0.0,0.0,0.0,0.0,0.0,0.0,0.0,0.0,0.0,0.0,0.0,0.0,0.0,0.0,0.0,0.0,0.0,0.0,0.0,2.9179,2.9877,3.0433,3.0766,3.1061,0.0,0.0,0.0,0.0,0.0,0.0,3.3054,3.3241,3.3478,3.3828,3.4121,3.4463,3.4918,3.5221,3.5618,3.6068,3.6763,3.7427,3.812,3.8131,3.8319,3.8615,3.8615,3.8615,3.8559,3.7814,3.7848,3.8343,3.7905,3.8081,3.8664,3.8994,3.8815,3.845,0.0,0.0,0.0,0.0,0.0,0.0,0.0,0.0,0.0,0.0,0.0,2.2565,2.2959,2.3715,2.4234,2.429,2.5346,2.5757,2.515,2.5691,2.606,2.6069,2.6103,2.6426,2.7095,2.8137,2.8906,2.9389,2.9663,2.9769,2.9769,2.9779,2.9814,2.9814,2.9814,2.9769,2.9706,2.9467,2.937,2.935,2.917,0.0,0.0,0.0,0.0,0.0,0.0,0.0,0.0,0.0,0.0,0.0,0.0,0.0,0.0,0.0,0.0,0.0,0.0,0.0,0.0,0.0,0.0,0.0,0.0,0.0,0.0,0.0,0.0,0.0,0.0,0.0,0.0,0.0,0.0,0.0,0.0,0.0,0.0,3.2066,3.1656,0.0,0.0,0.0,0.0,3.2645,3.2889,3.3054,3.309,3.3581,3.447,3.5827,3.508,3.5649,3.7672,3.7042,3.6715,3.6753,3.7484,3.8122,3.8659,3.8724,3.9408,4.056,4.056,4.056,4.0476,3.929,3.917,3.9686,3.9666,4.002,4.0491,3.9939,3.9715,3.9725,0.0,0.0,0.0,0.0,0.0,0.0,0.0,0.0,2.1667,2.187,2.2337,2.2853,2.3448,2.4096,2.4749,2.5412,2.5958,2.633,2.6444,2.6693,2.6817,2.6817,2.7132,2.791,2.9174,2.8868,2.9167,3.0178,2.9916,2.9814,2.9814,2.9814,2.9814,2.9814,2.9814,2.9814,2.9779,2.9702,2.956,2.9389,2.9311,2.9165,0.0,0.0,0.0,0.0,0.0,0.0,0.0,0.0,0.0,0.0,0.0,0.0,0.0,0.0,0.0,0.0,0.0,0.0,0.0,0.0,0.0,0.0,0.0,0.0,0.0,0.0,0.0,0.0,0.0,0.0,0.0,0.0,0.0,0.0,0.0,0.0,0.0,3.2909,3.2732,0.0,3.2671,3.2735,3.2961,3.3425,3.3552,3.3782,3.4123,3.4313,3.4636,3.5157,3.5314,3.5926,3.7054,3.6816,3.7305,3.8591,3.8394,3.8885,3.9998,4.0009,4.0473,4.1267,4.1267,4.1531,4.1879,4.1468,4.0923,4.0389,4.0389,4.0491,4.0659,4.0473,4.0603,4.099,0.0,0.0,0.0,0.0,0.0,0.0,0.0,0.0,2.1894,2.2281,2.2775,2.3447,2.4504,2.4917,2.5526,2.6578,2.6855,2.6971,2.7035,2.7377,2.7499,2.7304,2.8054,2.8948,2.9965,2.9391,2.9488,3.0322,2.998,2.9814,2.9814,2.9814,2.9914,3.008,3.008,3.0156,3.0341,3.0341,3.0027,2.9541,2.973,2.9553,2.9184,0.0,0.0,0.0,0.0,0.0,0.0,0.0,0.0,0.0,0.0,0.0,0.0,0.0,0.0,0.0,0.0,0.0,0.0,0.0,0.0,0.0,0.0,0.0,0.0,0.0,0.0,0.0,0.0,0.0,0.0,0.0,0.0,0.0,0.0,3.1808,3.2059,3.3219,3.3208,3.3165,3.3355,3.3355,3.3596,3.4137,3.4162,3.4424,3.5049,3.5015,3.5305,3.6052,3.6035,3.6645,3.7974,3.7494,3.8155,3.9891,3.9658,4.0062,4.0967,4.1236,4.1559,4.1952,4.1952,4.2188,4.2593,4.2593,4.2104,4.1345,4.1345,4.1345,4.1345,4.1345,4.1641,4.2078,0.0,0.0,0.0,0.0,0.0,0.0,0.0,2.1909,2.2225,2.3118,2.3579,2.4446,2.603,2.6172,2.66,2.7723,2.7934,2.767,2.6851,2.7769,2.8104,2.7573,2.8757,2.9424,2.9409,2.9672,2.9814,2.9814,2.9814,2.9804,2.9839,2.9839,3.0131,3.0613,3.0613,3.0899,3.1396,3.1396,3.0793,2.9914,3.0422,3.0168,2.9513,0.0,0.0,0.0,0.0,0.0,0.0,0.0,0.0,0.0,0.0,0.0,0.0,0.0,0.0,0.0,0.0,0.0,0.0,0.0,0.0,0.0,0.0,0.0,0.0,0.0,0.0,0.0,0.0,0.0,0.0,0.0,0.0,0.0,3.1903,3.24,3.2835,3.3133,3.3165,3.3355,3.3872,3.3922,3.4137,3.4678,3.4751,3.5077,3.5779,3.5666,3.6546,3.8726,3.7283,3.7859,4.069,3.9303,3.9249,4.0566,4.1263,4.1575,4.1578,4.2278,4.2621,4.2621,4.2621,4.2649,4.2677,4.2677,4.2677,4.2649,4.2621,4.2593,4.2593,4.2593,4.2738,4.2983,0.0,0.0,0.0,0.0,0.0,0.0,0.0,2.2128,2.2541,2.3693,2.4368,2.516,2.6228,2.6934,2.7502,2.7901,2.8303,2.8559,2.8652,2.8925,2.9039,2.8866,2.9638,2.9945,2.9692,2.975,2.9814,2.9814,3.0196,3.0372,3.0397,3.0793,3.1045,3.1185,3.1185,3.1271,3.1396,3.1396,3.122,3.0969,3.111,3.1054,3.0869,0.0,0.0,0.0,0.0,0.0,0.0,0.0,0.0,0.0,0.0,0.0,0.0,0.0,0.0,0.0,0.0,0.0,0.0,0.0,0.0,0.0,0.0,0.0,0.0,0.0,0.0,0.0,0.0,0.0,0.0,0.0,3.2892,3.3529,3.3703,3.331,3.3455,3.4692,3.4502,3.4313,3.4463,3.4477,3.4703,3.5244,3.5783,3.6132,3.6229,3.6683,3.7425,3.8487,3.8587,3.949,4.1249,4.0886,4.1128,4.201,4.1695,4.18,4.2312,4.2503,4.2834,4.3256,4.3256,4.3497,4.3919,4.3919,4.3919,4.3835,4.2947,4.2593,4.2593,4.2593,4.3132,4.3917,0.0,0.0,0.0,0.0,0.0,0.0,0.0,2.2151,2.279,2.4428,2.4856,2.5667,2.7356,2.7831,2.8162,2.8551,2.8847,2.9044,2.9176,2.9201,2.9301,2.957,2.9904,2.9998,2.9804,3.003,3.0131,3.0131,3.0683,3.0934,3.0934,3.126,3.1522,3.1738,3.1738,3.1873,3.21,3.21,3.21,3.21,3.21,3.1834,3.1411,3.157,3.1406,3.0998,3.0182,2.9864,2.9726,2.8836,0.0,0.0,0.0,0.0,0.0,0.0,0.0,0.0,0.0,0.0,0.0,0.0,0.0,0.0,0.0,0.0,0.0,0.0,0.0,0.0,0.0,0.0,0.0,0.0,3.3928,3.461,3.4835,3.4234,3.4123,3.5043,3.5093,3.5043,3.5043,3.5266,3.5554,3.5844,3.6792,3.7317,3.7206,3.8152,3.8999,3.9634,3.9786,4.0553,4.1944,4.1659,4.2014,4.2975,4.2538,4.2688,4.3368,4.3368,4.3554,4.3891,4.3891,4.4076,4.4425,4.453,4.4577,4.4492,0.0,0.0,0.0,0.0,4.4134,4.4647,0.0,0.0,0.0,0.0,0.0,0.0,0.0,2.2106,2.3007,2.5199,2.5227,2.6084,2.8812,2.8713,2.8701,2.934,2.9428,2.9316,2.9013,2.9098,2.9368,2.9789,2.9864,2.9854,2.9814,3.0322,3.0588,3.0588,3.121,3.1497,3.1497,3.1547,3.1848,3.2305,3.2305,3.2602,3.309,3.309,3.309,3.309,3.309,3.2476,3.1627,3.1919,3.1746,3.1288,3.1017,3.0941,3.0927,3.0794,0.0,0.0,0.0,0.0,0.0,0.0,0.0,0.0,0.0,0.0,0.0,0.0,0.0,0.0,0.0,0.0,0.0,0.0,0.0,0.0,0.0,0.0,0.0,0.0,3.4426,3.5054,3.5545,3.5205,3.489,3.489,3.5294,3.5595,3.5595,3.6143,3.6494,3.6494,3.7804,3.8503,3.8293,3.9709,0.0,0.0,0.0,4.133,4.2806,4.2138,4.2415,4.361,4.361,4.3891,4.4413,4.4413,4.4413,4.4413,4.4413,4.4413,4.4436,4.4693,4.4821,4.4821,4.456,4.4607,4.4902,4.5333,4.5356,4.523,0.0,0.0,0.0,0.0,0.0,0.0,0.0,2.2334,2.3254,2.5727,2.6,2.6742,2.8875,2.9159,2.9226,2.9399,2.9599,2.969,2.9628,3.0432,3.0583,2.9839,3.0196,3.0246,2.9814,3.0322,3.0588,3.0588,3.1577,3.2054,3.2054,3.2552,3.2839,3.2939,3.2939,3.2989,3.309,3.309,3.309,3.309,3.309,3.2964,3.2788,3.2835,3.28,3.2617,3.1935,3.1792,3.178,3.0814,3.0597,3.0663,3.0274,3.0055,0.0,0.0,0.0,0.0,0.0,0.0,0.0,0.0,0.0,0.0,0.0,0.0,0.0,0.0,0.0,0.0,0.0,0.0,0.0,3.5013,3.5656,3.6105,3.6205,3.6142,3.6055,3.6055,3.6155,3.623,3.623,3.6733,3.706,3.706,3.8848,3.9376,3.8133,4.0109,4.1272,4.1236,4.1737,4.2653,4.4048,4.392,4.3976,4.4216,4.4216,0.0,4.4413,4.4413,4.4413,4.4413,4.4413,4.4413,4.4436,4.4693,4.4885,4.5046,4.4972,4.5012,4.5092,4.539,4.547,4.547,0.0,0.0,0.0,0.0,0.0,0.0,0.0,2.258,2.3519,2.5501,2.5838,2.6633,2.8597,2.8672,2.8723,2.8987,2.9218,2.9478,2.9789,3.0316,3.0366,2.9804,3.0055,3.0206,3.0206,3.0733,3.1125,3.1401,3.224,3.2641,3.2652,3.2964,3.309,3.309,3.309,3.309,3.309,3.309,3.309,3.309,3.309,3.309,3.309,3.309,3.309,3.3054,3.2625,3.2582,3.2549,3.1946,3.1755,3.1702,3.1479,3.1159,3.0806,0.0,0.0,0.0,0.0,0.0,0.0,0.0,0.0,0.0,0.0,0.0,0.0,0.0,0.0,3.3325,3.4347,0.0,3.5165,3.5832,3.6205,3.6494,3.6758,3.6808,3.6808,3.6808,3.6808,3.6909,3.7173,3.7449,3.7588,3.7588,3.9553,4.0242,3.9061,4.1501,4.2712,4.2202,4.2968,4.3726,4.4385,4.4413,4.4413,4.4413,4.4413,4.4483,4.4612,4.4612,4.467,4.4746,4.463,4.4612,4.4623,4.5219,4.5589,4.5826,4.613,4.5774,4.5121,4.5401,4.5424,4.5344,0.0,0.0,0.0,0.0,0.0,0.0,0.0,2.2899,2.3729,2.5126,2.5441,2.622,2.8008,2.7849,2.7882,2.8574,2.8865,2.9254,2.9754,2.9914,2.9905,2.9804,2.9814,3.0055,3.0588,3.1135,3.1662,3.2204,3.2803,3.309,3.309,3.309,3.309,3.309,3.309,3.309,3.3115,3.3215,3.3266,3.3255,3.3355,3.3366,3.3266,3.3266,3.319,3.309,3.309,3.309,3.3079,3.3036,3.296,3.285,3.2807,3.238,3.1884,3.1729,3.1457,0.0,0.0,0.0,0.0,0.0,0.0,0.0,0.0,3.2519,3.2888,3.3775,3.405,3.4456,3.5483,3.5745,3.5983,3.6482,3.6644,3.6859,3.7299,3.7349,3.7399,3.7512,3.7436,3.7525,3.7965,3.8115,3.8165,3.8165,4.0153,4.1004,4.0221,4.2863,4.4033,4.3232,4.3985,4.4413,4.4413,4.4413,4.4413,4.4413,4.4413,4.4518,4.4728,4.4728,4.4827,4.5035,4.4878,4.4809,4.4849,4.5558,4.5991,4.6258,4.6717,4.6193,4.5218,4.5712,4.574,4.5602,0.0,0.0,0.0,0.0,0.0,0.0,0.0,0.0,2.3839,2.5136,2.5322,2.5783,2.6946,2.7034,2.7452,2.8599,2.9128,2.953,2.9779,3.0256,3.0306,2.9804,2.9814,3.0055,3.0588,3.1135,3.1662,3.2204,3.2803,3.309,3.309,3.309,3.309,3.309,3.309,3.309,3.314,3.3607,3.3796,3.3847,3.4338,3.4237,3.3796,3.3796,3.3506,3.309,3.309,3.309,3.3058,3.2831,3.3046,3.3377,3.3213,3.3086,3.2883,3.2228,3.1653,3.1045,3.0335,3.0752,3.1395,3.1395,3.208,3.2887,0.0,3.3972,3.4642,3.5167,3.5695,3.6143,3.6256,3.6696,3.7022,3.7098,3.7525,3.7839,3.7902,3.7914,3.8115,3.8642,3.8253,3.7927,3.7977,3.8479,3.8793,3.8793,4.0728,4.1575,4.0843,4.3096,4.4033,4.3232,4.3985,4.4413,4.4413,4.4413,4.4413,4.4413,4.4413,4.4436,4.4448,4.4448,4.46,4.4844,4.4809,4.4809,4.4809,4.4917,4.5068,4.5252,4.513,4.5246,4.5602,4.6765,4.7184,4.7168,0.0,0.0,0.0,0.0,0.0,0.0,0.0,0.0,0.0,2.4581,2.4929,2.539,2.6077,2.6421,2.6888,2.7582,2.8496,2.9197,2.9535,3.0227,3.0347,2.9804,2.9814,3.0055,3.0588,3.1135,3.1662,3.2204,3.2803,3.309,3.309,3.309,3.309,3.309,3.309,3.3255,3.3581,3.3796,3.4087,3.4388,3.4603,3.4388,3.3897,3.3897,3.3556,3.309,3.309,3.309,0.0,3.3336,3.3542,3.377,3.3994,3.3736,3.3338,3.3193,3.2648,3.222,3.2725,3.2648,3.271,3.3777,3.4257,3.4553,3.4926,3.5274,3.5608,3.5936,3.623,3.6494,3.6808,3.706,3.7299,3.7613,3.7864,3.8115,3.8479,3.8529,3.873,3.9283,3.9157,3.8994,3.8994,3.9233,3.9371,3.9371,4.0602,4.1234,4.0934,4.225,4.3048,4.3208,4.3531,4.3938,4.4413,4.4413,4.4413,4.4413,4.4413,4.4495,4.4635,4.4635,4.4693,4.4809,4.4809,4.4716,4.4616,4.5096,4.5383,4.5493,4.5803,4.604,4.62,4.6089,4.6159,4.631,0.0,0.0,0.0,0.0,0.0,0.0,0.0,0.0,0.0,0.0,2.4548,2.4899,2.5253,2.5747,2.6227,2.666,2.7619,2.8481,2.916,2.9879,3.0137,2.9804,2.9814,3.0055,3.0588,3.0984,3.1512,3.2204,3.2641,3.2939,3.309,3.309,3.309,3.309,3.309,3.3416,3.3897,3.4073,3.4438,3.4954,3.5091,3.4751,3.4112,3.4112,3.3707,3.309,3.309,3.309,3.3165,3.3556,3.3771,3.3961,3.4273,3.3953,3.3543,3.3665,3.3332,3.3111,3.4088,3.4108,3.4136,3.5463,3.5796,3.5872,3.6074,3.611,3.6219,3.6547,3.6619,3.6783,3.7324,3.755,3.7813,3.8203,3.8366,3.8617,3.907,3.912,3.9258,3.9647,3.9697,3.9697,3.9697,3.9697,3.9697,3.9697,4.0453,4.0983,4.1184,4.1916,4.2698,4.3507,4.3531,4.3804,4.4401,4.4413,4.4413,4.4413,4.4413,4.4507,4.4693,4.4774,4.4763,4.4693,4.4933,4.4912,4.4706,4.5543,4.5868,4.5897,4.6385,4.6615,4.6586,4.5873,4.5757,4.593,0.0,0.0,0.0,0.0,0.0,0.0,0.0,0.0,0.0,0.0,0.0,0.0,0.0,2.4909,2.5421,2.6163,2.6678,2.7463,2.8633,2.9165,2.9556,2.9804,2.9814,3.0055,3.0588,3.0623,3.115,3.2204,3.2229,3.2516,3.309,3.309,3.309,3.309,3.309,3.3416,3.3922,3.4463,3.4993,3.5545,3.6118,3.5666,3.4678,3.4678,3.4022,3.309,3.309,3.309,3.309,3.3115,3.3456,3.3853,3.3599,3.3521,3.3465,3.3265,3.3223,3.32,3.3236,3.4168,3.5157,3.5205,3.5804,3.6381,3.6381,3.6381,3.6532,3.7085,3.7185,3.7349,3.7889,3.8454,3.8843,3.8869,3.9308,3.9647,3.9672,3.9685,3.9672,3.9697,3.9697,3.9697,3.9697,3.9697,3.9697,3.9697,4.0453,4.1209,4.194,4.2722,4.3531,4.4326,4.435,4.439,4.4413,4.4413,4.4413,4.4413,4.4413,4.4413,4.4436,4.4693,4.467,4.4465,4.5303,4.551,4.5328,4.5998,4.6263,4.6263,4.6291,4.6437,4.6639,4.6842,4.6962,4.6998,0.0,0.0,0.0,0.0,0.0,0.0,0.0,0.0,0.0,0.0,0.0,0.0,0.0,0.0,0.0,0.0,2.6766,2.7656,2.8018,2.9263,2.9856,2.9541,2.9711,2.988,3.0055,3.0422,3.0949,3.1662,3.2039,3.2516,3.309,3.309,3.309,3.3115,3.3456,3.3922,3.4463,3.4993,3.5332,3.5533,3.6143,3.5716,3.4753,3.5093,3.4552,3.3632,0.0,3.3406,3.3165,3.3506,3.3636,3.3704,3.4156,3.3841,3.3287,3.3209,3.3198,3.3402,3.4287,3.4721,3.5116,3.5817,3.6183,3.6393,3.6393,3.6669,3.6984,3.7148,3.7198,3.7349,3.7902,3.8165,3.8429,3.8843,3.9333,3.9697,3.9697,3.9697,3.9697,3.9697,3.9697,3.9697,3.9697,3.9697,3.9697,3.9697,3.9942,4.0211,4.0453,4.1247,4.2014,4.2783,4.3328,4.3851,4.4385,4.4795,4.4991,4.4991,4.5464,4.5661,4.5661,4.5745,4.5745,4.5673,4.5982,4.6055,4.6039,4.6825,4.7152,4.7205,4.7839,4.8133,4.8191,4.8277,4.8411,4.8496,0.0,0.0,0.0,0.0,0.0,0.0,0.0,0.0,0.0,0.0,0.0,0.0,0.0,0.0,0.0,0.0,0.0,2.7311,2.7411,2.8885,2.9668,2.9399,2.957,2.9702,2.9814,3.0131,3.0683,3.1396,3.1738,3.2315,3.3115,3.3316,3.328,3.3115,3.3657,3.4187,3.4728,3.5068,3.5444,3.5844,3.6006,3.5529,3.4753,3.5093,3.4678,0.0,3.3897,3.3682,3.3406,3.3556,3.3497,3.3466,3.4081,3.3977,3.3592,3.3384,3.366,3.4218,3.5063,3.5354,3.5543,3.6247,3.6544,3.6695,3.6695,3.7098,3.755,3.7751,3.7637,3.765,3.8228,3.814,3.8191,3.8793,3.9195,3.9484,3.9672,3.9697,3.9697,3.9697,3.9697,3.9697,3.9697,3.9697,3.9697,3.9697,3.998,4.0249,4.0503,4.1284,4.217,4.3157,4.3666,4.4308,4.5059,4.5452,4.5649,4.5665,4.6083,4.6307,4.6307,4.6389,4.6389,4.632,4.6614,4.6827,4.6994,4.7912,4.8405,4.8686,4.9386,4.9642,4.9654,4.9742,5.0011,5.0191,0.0,0.0,0.0,0.0,0.0,0.0,0.0,0.0,0.0,0.0,0.0,0.0,0.0,0.0,0.0,0.0,0.0,0.0,2.684,2.8082,2.8959,2.935,2.938,2.9502,2.975,2.976,3.0297,3.1366,3.1386,3.1974,3.3093,3.3621,3.3581,3.3115,3.3657,3.4187,3.4653,3.4703,3.5303,3.6217,3.5682,3.5143,3.4653,3.4703,3.4377,3.3947,3.3897,3.3922,3.3847,3.3305,3.3165,3.3212,3.3474,3.3941,3.4311,3.3767,3.4511,3.5508,3.5533,3.5956,3.6393,3.6418,3.6808,3.7198,3.7223,3.7663,3.8216,3.8793,3.8429,3.8191,3.8793,3.8404,3.8191,3.8793,3.8919,3.912,3.9635,3.9697,3.9697,3.9697,3.9697,3.9697,3.9697,3.9722,3.9747,3.9747,4.0453,4.1185,4.1942,4.2779,4.3865,4.5244,4.5332,4.5649,4.6279,4.6335,4.6364,4.6392,4.6392,4.6392,4.6404,4.6668,4.6631,4.6432,4.7306,4.7837,4.8218,4.9169,4.9893,5.0445,5.0714,5.0856,5.0895,5.1139,5.1645,5.1946,0.0,0.0,0.0,0.0,0.0,0.0,0.0,0.0,0.0,0.0,0.0,0.0,0.0,0.0,0.0,0.0,0.0,0.0,2.6434,2.778,2.8697,2.8939,2.9111,2.9209,2.9268,2.9434,2.999,3.0954,3.1258,3.188,3.281,3.3143,3.3241,3.3115,3.3657,3.3972,3.4137,3.4527,3.4639,3.4561,3.4803,3.4577,3.4137,3.4552,3.4614,3.4427,3.4037,3.4173,3.4413,3.3872,3.3972,3.4268,3.4194,3.4388,3.4663,3.4926,3.5236,3.5595,3.6043,3.6281,3.6494,3.6909,3.711,3.7299,3.7688,3.8253,3.8718,3.8869,3.8429,3.8191,3.8793,3.8404,3.8191,3.8793,3.9245,3.9534,3.9672,3.9697,3.9697,3.9697,3.9697,3.9697,3.9697,4.0074,4.0287,4.0287,4.0483,4.0964,4.1797,4.3005,4.4093,4.5117,4.5722,4.6139,4.6307,4.6757,4.7194,4.7644,4.7644,4.7644,4.7644,4.7719,4.7706,4.7672,4.8353,4.8706,4.8864,5.0001,5.0549,5.073,5.1219,5.1537,5.1698,5.1762,5.2017,5.2268,0.0,0.0,0.0,0.0,0.0,0.0,0.0,0.0,0.0,0.0,0.0,0.0,0.0,0.0,0.0,0.0,0.0,0.0,0.0,2.7322,2.8208,2.8643,2.8865,2.9013,2.9101,2.9219,2.9781,3.0798,3.0865,3.1531,3.2712,3.2972,3.309,3.3115,3.3657,3.3897,3.3922,3.4212,3.4313,0.0,0.0,3.4162,3.3922,3.4237,3.4338,3.4338,3.4262,3.4603,3.5004,3.4703,3.4803,3.4995,3.4631,3.4949,3.5442,3.5494,3.5707,3.5981,3.6318,3.6569,3.6808,3.7123,3.7587,3.7964,3.799,3.8479,3.8818,3.8555,3.8052,3.7814,3.8404,3.8052,3.7914,3.8768,3.9132,3.9434,3.9685,3.9697,3.9697,3.9697,3.9697,3.9798,4.0023,4.0312,4.0613,4.0826,4.1525,4.2151,4.2642,4.4082,4.5238,4.5989,4.6451,4.6813,4.7082,4.7419,4.7743,4.8108,4.8108,4.8108,4.8121,4.8333,4.8308,4.8134,4.8827,4.9151,4.9255,5.0185,5.0823,5.118,5.1614,5.1954,5.2193,5.2193,5.2267,5.2392,0.0,0.0,0.0,0.0,0.0,0.0,0.0,0.0,0.0,0.0,2.4045,0.0,0.0,0.0,0.0,0.0,0.0,0.0,0.0,0.0,2.7691,2.8425,2.8657,2.8845,2.9013,2.9052,2.9577,3.0607,3.0401,3.1083,3.2545,3.2861,3.3014,3.3115,3.3581,3.3796,3.3796,3.3796,3.4073,3.4438,3.3972,3.3796,3.3796,0.0,3.3847,3.3972,3.4577,3.5045,3.5361,3.5558,3.562,3.5545,3.5079,3.5616,3.6318,3.5757,3.5981,3.6393,3.6393,3.6783,3.7235,3.7299,3.8115,3.8768,3.8241,3.8529,3.8743,3.8115,3.7563,3.7399,3.8015,3.7675,3.7675,3.8818,3.8994,3.917,3.9622,3.9697,3.9697,3.9697,3.9747,3.9998,4.0462,4.0638,4.0914,4.1378,4.3049,4.3997,4.3917,4.5383,4.6535,4.7307,4.7307,4.7587,4.808,4.8147,4.8147,4.8108,4.8159,4.8144,4.8156,4.8672,4.8672,4.8311,4.907,4.945,4.9556,5.0101,5.0762,5.1431,5.1658,5.1975,5.2274,5.2237,5.2333,5.2442,0.0,0.0,0.0,0.0,0.0,0.0,0.0,0.0,0.0,0.0,2.3205,2.327,0.0,0.0,0.0,0.0,0.0,0.0,0.0,0.0,0.0,2.8225,2.8439,2.8558,2.8598,2.8776,2.9077,2.9559,3.0052,3.0813,3.1786,3.2165,3.2616,3.3115,3.319,3.3241,3.3241,3.3241,3.3291,3.3355,3.3291,3.3241,3.3241,3.3241,0.0,0.0,3.5018,3.4981,3.4694,3.5847,3.623,3.623,3.613,3.6242,3.6368,3.6256,3.6318,3.6393,3.6393,3.6783,3.7299,3.7739,3.8379,3.8869,3.8768,3.8818,3.8743,3.8115,3.7563,3.7512,3.8542,3.8253,3.8241,3.9383,3.9559,3.9597,3.9685,3.9697,3.9697,3.9697,4.0099,4.0387,4.0487,4.1343,4.1934,4.2034,4.4014,4.5022,4.4583,4.5245,4.6351,4.7902,4.794,4.7996,4.8108,4.8321,4.8321,4.8108,4.8321,4.8446,4.8459,4.8772,4.8971,4.9124,4.9765,5.004,5.0105,5.0402,5.0514,5.0446,5.0417,5.0942,5.1609,5.1351,5.1871,5.2702,0.0,0.0,0.0,0.0,0.0,0.0,0.0,2.2365,2.2308,2.2506,2.2261,2.2336,2.3055,2.306,2.306,0.0,0.0,0.0,0.0,0.0,0.0,0.0,2.8126,2.8439,2.8349,2.8273,2.8574,2.9292,0.0,3.0067,3.161,3.173,3.225,3.309,3.309,3.309,3.309,3.309,3.309,3.309,3.309,3.309,3.309,0.0,0.0,0.0,3.4699,3.4911,3.5072,3.5745,3.6273,3.6629,3.6772,3.6619,3.6443,3.6733,3.6619,3.6468,3.6733,3.7198,3.7739,3.8329,3.8894,3.9157,3.858,3.8429,3.8203,3.7349,3.6959,3.7046,3.7864,3.7776,3.7952,3.9082,3.9509,3.9697,3.9697,3.9948,4.0023,3.9722,4.0161,4.06,4.0901,4.206,4.2764,4.2629,4.4024,4.4968,4.5116,4.6225,4.7247,4.8055,4.8108,4.8108,4.8108,4.822,4.8295,4.8308,4.8459,4.8644,4.8934,4.9178,4.9318,4.9363,5.0229,5.0568,5.051,5.1092,5.132,5.1345,5.1326,5.1655,5.2154,5.2007,5.2381,5.2979,0.0,0.0,0.0,0.0,0.0,0.0,0.0,2.1816,2.1807,2.1892,2.1426,2.1482,2.2565,2.2546,2.2608,0.0,0.0,0.0,0.0,0.0,0.0,0.0,0.0,0.0,2.8069,0.0,0.0,2.9124,2.8538,0.0,0.0,0.0,0.0,0.0,3.3018,3.309,3.309,3.309,3.3068,0.0,0.0,3.3004,0.0,0.0,0.0,0.0,0.0,3.4789,3.5218,3.5571,3.6036,3.6527,3.6979,3.6837,3.6573,3.691,3.6772,3.6598,3.7061,3.7701,3.8303,3.8793,3.9283,3.9396,3.8253,3.8002,3.7688,3.6619,3.6393,3.6569,3.7098,3.7198,3.7525,3.8542,3.9157,3.9534,3.9534,3.9998,4.0211,3.9898,4.0337,4.0889,4.1428,4.2593,4.3225,4.3006,4.4015,4.4886,4.5462,4.7207,4.8182,4.8182,4.8182,4.8182,4.8182,4.8182,4.8295,4.8494,4.8556,4.8941,4.9606,4.9889,4.9983,5.001,5.0961,5.1257,5.1129,5.1887,5.2242,5.2317,5.238,5.258,5.2847,5.2847,5.308,5.3433,0.0,0.0,0.0,0.0,0.0,0.0,0.0,2.0867,2.0867,2.1234,2.0925,2.0918,2.1571,2.1622,2.1761,0.0,0.0,0.0,0.0,0.0,0.0,0.0,0.0,0.0,0.0,0.0,0.0,2.8561,2.8217,0.0,0.0,0.0,0.0,0.0,0.0,3.309,3.309,3.309,0.0,0.0,0.0,0.0,0.0,0.0,0.0,0.0,0.0,3.4548,3.4003,3.5479,3.5681,3.5526,3.6515,3.6809,3.6733,3.6523,3.6616,3.6833,3.7113,3.7989,3.8818,3.8906,3.9283,3.9396,3.8253,3.8002,3.7688,3.6619,3.6393,3.6569,3.7098,3.7198,3.7399,3.799,3.858,3.8969,3.8969,3.9434,3.9948,4.0362,4.0901,4.1466,4.206,4.2681,4.3022,4.2989,4.4724,4.5688,4.5515,4.7372,4.8443,4.8443,4.8443,4.8443,4.8443,4.8443,4.8468,4.8494,4.8731,4.9444,5.0598,5.0853,5.1397,5.2128,5.2484,5.2489,5.2254,5.2598,5.2437,5.2051,5.2305,5.265,5.2971,5.2971,5.3489,5.4204,0.0,0.0,0.0,0.0,0.0,0.0,2.0663,2.0547,2.0518,2.0789,2.0702,2.0791,2.1271,2.1199,2.1393,2.2045,0.0,0.0,0.0,0.0,0.0,0.0,0.0,0.0,0.0,0.0,2.7074,2.8022,2.768,0.0,0.0,0.0,0.0,0.0,0.0,3.2575,3.2874,3.3025,0.0,0.0,0.0,0.0,0.0,0.0,0.0,0.0,0.0,0.0,3.3991,3.4944,3.5454,3.5685,3.5782,3.6051,3.6358,3.6573,3.6733,3.6921,3.7527,3.8278,3.8969,3.9283,3.9534,3.9396,3.8253,3.8002,3.7688,3.6619,3.6393,3.6468,3.6695,3.672,3.6884,3.7424,3.8002,3.8479,3.8843,3.9635,4.0261,4.0487,4.1279,4.1934,4.2174,4.3159,4.4056,4.471,4.5952,4.6699,4.6751,4.7872,4.8556,4.8731,4.8569,4.8494,4.8494,4.9054,4.9342,4.9342,4.9979,5.0787,5.1724,5.1836,5.2082,5.2434,5.2942,5.3006,5.2796,5.3428,5.3474,5.3184,5.3423,5.3535,5.3539,5.3539,5.3853,5.4329,0.0,0.0,0.0,0.0,0.0,1.9991,2.0255,2.0225,2.0255,2.0479,2.0508,2.0654,2.107,2.0974,2.1171,2.1863,2.205,0.0,0.0,0.0,0.0,0.0,0.0,0.0,0.0,0.0,2.641,2.7423,2.7223,2.7835,0.0,0.0,3.0433,3.1466,0.0,0.0,0.0,0.0,0.0,0.0,0.0,0.0,0.0,0.0,0.0,0.0,0.0,0.0,0.0,0.0,0.0,3.5575,3.5114,3.5284,3.5807,3.6553,3.6873,3.7134,3.8041,3.8705,3.9245,3.9609,3.9584,3.9208,3.8216,3.7889,3.7487,3.6594,3.6393,3.6393,3.6393,3.6393,3.6519,3.6909,3.755,3.8115,3.8466,3.9522,4.0288,4.0366,4.1307,4.2009,4.2174,4.3474,4.4778,4.5939,4.6816,4.7589,4.8186,4.8556,4.8834,4.9021,4.8847,4.8845,4.9029,4.9614,5.0017,5.0306,5.0899,5.1675,5.2574,5.2662,5.2737,5.2881,5.3529,5.3608,5.333,5.413,5.4243,5.3945,5.42,5.4084,5.3789,5.388,5.4006,5.4226,0.0,0.0,0.0,0.0,0.0,0.0,1.9645,1.9775,2.0,2.0274,2.0313,2.0459,2.0868,2.0906,2.1051,2.1474,2.1512,0.0,0.0,0.0,0.0,0.0,0.0,0.0,0.0,0.0,2.6194,2.6813,2.6871,2.7459,2.8522,2.926,2.9896,3.0441,0.0,0.0,0.0,0.0,0.0,0.0,0.0,0.0,0.0,0.0,0.0,0.0,0.0,0.0,0.0,0.0,0.0,0.0,0.0,3.4594,3.5078,3.6418,3.7023,3.753,3.8604,3.9283,3.9697,3.9697,3.9283,3.8743,3.814,3.7588,3.7048,3.6519,3.6393,3.6393,3.6393,3.6393,3.6393,3.6393,3.7299,3.79,3.7649,3.8806,3.9825,4.007,4.0808,4.1542,4.2149,4.3474,4.4845,4.6189,4.71,4.8198,4.9595,4.9441,4.9281,4.9293,4.9281,4.9622,5.0265,5.0045,5.0319,5.1177,5.1219,5.1818,5.2983,5.3276,5.3574,5.3916,5.453,5.4453,5.3929,5.4543,5.444,5.3945,5.42,5.3955,5.3527,5.3815,5.3906,5.3997,0.0,0.0,0.0,0.0,0.0,0.0,0.0,1.9744,1.9765,2.0,2.0196,2.0391,2.0673,2.0819,2.1003,2.1272,2.1426,0.0,0.0,0.0,0.0,0.0,0.0,0.0,0.0,0.0,2.5335,2.6724,2.6761,2.7366,2.8522,2.8737,2.9209,2.9871,3.0504,3.1114,0.0,0.0,0.0,0.0,0.0,0.0,3.2028,0.0,0.0,0.0,0.0,0.0,0.0,0.0,0.0,0.0,0.0,0.0,0.0,3.5478,3.6101,3.6615,3.7282,3.7867,3.8316,3.8492,3.8417,3.8153,3.7575,3.7324,3.706,3.6519,3.6393,3.6393,3.6393,3.6393,3.6519,3.6884,3.7223,3.7712,3.8402,3.9824,4.0966,4.1463,4.2606,4.3575,4.4137,4.5129,4.5993,4.6595,4.7974,4.9042,4.9656,5.0043,5.0254,5.0254,5.0092,5.0281,5.0915,5.1478,5.1796,5.1881,5.2496,5.3059,5.3626,5.3717,5.3792,5.3919,5.4101,5.3971,5.3658,5.4023,5.3958,5.3645,5.3903,5.3815,5.35,5.3592,5.3619,5.3671,0.0,0.0,0.0,0.0,0.0,0.0,0.0,1.9568,1.9558,1.9755,1.9991,2.0235,2.0459,2.0673,2.0906,2.1176,2.1311,0.0,0.0,0.0,0.0,0.0,0.0,0.0,0.0,2.4032,2.4998,2.6358,2.6586,2.732,2.8512,2.8512,2.8857,2.9496,3.0039,3.0625,0.0,0.0,0.0,0.0,0.0,0.0,3.1981,0.0,0.0,0.0,0.0,0.0,0.0,0.0,0.0,0.0,0.0,0.0,0.0,0.0,3.5042,3.5831,3.6813,3.7357,3.7655,3.7941,3.7839,3.7613,3.7274,3.7034,3.6808,3.6468,3.6393,3.6393,3.6393,3.6393,3.6519,3.6833,3.7248,3.7775,3.8591,4.0201,4.1658,4.2537,4.384,4.4759,4.5073,4.59,4.6635,4.7218,4.8531,4.9428,4.9681,5.0332,5.0797,5.1046,5.0895,5.1096,5.1719,5.2304,5.2623,5.2701,5.3235,5.3579,5.3762,5.3867,5.3854,5.3762,5.3867,5.3749,0.0,5.3789,5.3736,5.3543,5.3802,5.3736,5.3487,5.3487,5.3487,5.3527,0.0,0.0,0.0,0.0,0.0,0.0,0.0,1.9292,1.937,1.9557,1.9765,1.9991,2.0235,2.0479,2.076,2.1147,0.0,0.0,0.0,0.0,0.0,0.0,0.0,0.0,0.0,2.3941,2.5041,2.5853,2.6404,2.7265,2.8419,2.8492,2.8733,2.9207,2.9811,3.0525,0.0,0.0,0.0,0.0,0.0,0.0,0.0,0.0,0.0,0.0,0.0,0.0,0.0,0.0,0.0,0.0,0.0,0.0,0.0,0.0,0.0,0.0,0.0,3.7432,3.7531,3.7791,3.7513,3.7148,3.7148,3.6758,0.0,3.6393,3.6393,3.6393,3.6393,3.6393,3.6418,3.6443,3.7324,3.8114,3.8462,4.0243,4.2048,4.3427,4.4627,4.5342,4.5262,4.6045,4.696,4.7958,4.8843,4.9469,4.9768,5.039,5.1046,5.1659,5.1704,5.2049,5.2655,5.2655,5.2962,5.3487,5.3487,5.3487,5.35,5.3762,5.3736,5.35,5.3762,5.3736,5.353,5.3775,5.3723,5.3514,5.3775,5.3723,5.3487,5.3487,5.3487,5.3556,0.0,0.0,0.0,0.0,0.0,0.0,0.0,0.0,0.0,0.0,1.9676,1.9922,1.9981,2.0498,2.0867,0.0,0.0,0.0,0.0,0.0,0.0,0.0,0.0,0.0,0.0,2.3909,2.4824,2.6338,2.6472,2.6948,2.7756,2.8259,2.829,2.7988,2.9445,3.0644,0.0,0.0,0.0,0.0,0.0,0.0,0.0,0.0,0.0,0.0,3.3115,3.3609,0.0,0.0,0.0,0.0,0.0,0.0,0.0,0.0,3.3729,3.4414,3.5466,0.0,3.6134,3.6388,3.6528,3.6594,0.0,3.6494,3.6393,3.6393,3.6393,3.6393,3.6393,3.6393,3.6544,3.6959,3.7575,3.8341,3.9259,4.2002,4.4241,4.5204,4.6316,4.6955,4.6727,4.7474,4.8128,4.8368,4.9141,4.9864,5.0448,5.1033,5.1701,5.2323,5.2804,5.3139,5.3297,5.3297,5.3342,5.3487,5.3487,5.3487,5.3487,5.3553,5.3553,5.3487,5.3553,5.3553,5.3487,5.3566,5.3553,5.35,5.3566,5.3553,5.3487,5.3487,5.3487,5.35,0.0,0.0,0.0,0.0,0.0,0.0,0.0,0.0,0.0,0.0,0.0,1.9902,1.9902,2.043,0.0,0.0,0.0,0.0,0.0,0.0,0.0,0.0,0.0,0.0,2.3888,2.4074,2.4788,2.604,2.604,2.6383,2.7062,2.7746,2.7857,2.7577,2.9325,3.0564,0.0,0.0,0.0,0.0,3.1706,0.0,0.0,0.0,0.0,0.0,3.3031,3.3452,0.0,3.4559,3.4799,3.4655,0.0,0.0,0.0,0.0,3.3982,3.4463,3.4896,3.5283,3.5668,3.5919,3.6205,3.6393,3.6393,3.6393,3.6393,3.6393,3.6393,3.648,3.672,3.6569,3.6669,3.7449,3.8052,3.9082,4.0941,4.3364,4.5163,4.5824,4.6921,4.7685,4.7801,4.8229,4.8644,4.9017,4.9449,4.9983,5.0651,5.1265,5.1904,5.2568,5.3181,5.3487,5.3487,5.3487,5.3487,5.3487,5.3487,5.3487,5.3487,5.3487,5.3487,5.3487,5.3487,5.3487,5.3487,5.3487,5.3487,5.3487,5.3487,5.3487,5.3487,5.3487,5.3487,5.3487,0.0,0.0,0.0,0.0,0.0,0.0,0.0,0.0,0.0,0.0,0.0,0.0,0.0,0.0,0.0,0.0,0.0,0.0,0.0,0.0,0.0,0.0,0.0,2.3525,2.3981,2.4322,2.4828,2.5495,2.5495,2.5842,2.6518,2.7185,2.7624,2.7892,2.9375,3.038,0.0,0.0,0.0,0.0,3.1706,0.0,0.0,0.0,0.0,0.0,0.0,0.0,0.0,3.4414,3.4762,3.4691,3.4138,0.0,0.0,0.0,0.0,0.0,3.4848,3.5345,3.5865,3.5933,3.6181,3.6393,3.6393,3.6393,3.6393,3.6393,3.6468,3.6644,3.7009,3.6833,3.6909,3.7739,3.8605,4.0012,4.2466,4.4294,4.5488,4.5801,4.712,4.8148,4.8475,4.8606,4.8968,4.9644,4.9693,5.0042,5.0797,5.1323,5.1949,5.2714,5.3239,5.3487,5.3487,5.3487,5.3487,5.3487,5.3487,5.3487,5.3487,5.3487,5.3487,5.3487,5.3487,5.3487,5.3487,5.3487,5.3487,5.3487,5.3487,5.3487,5.3487,5.3487,5.3487,5.3487,0.0,0.0,0.0,0.0,0.0,0.0,0.0,0.0,0.0,0.0,0.0,0.0,0.0,0.0,0.0,0.0,0.0,0.0,0.0,0.0,0.0,2.366,2.3764,2.4002,2.4394,2.4477,2.4828,2.5495,2.5495,2.5842,2.6518,2.7185,2.816,2.9374,2.9645,3.0304,3.1243,0.0,0.0,0.0,3.1706,0.0,0.0,0.0,0.0,0.0,0.0,0.0,0.0,3.4209,3.4604,3.4666,3.3959,0.0,0.0,0.0,0.0,0.0,3.5066,3.6076,3.6813,3.589,3.6026,3.6393,3.6393,3.6393,3.6393,3.6393,3.6758,3.6959,3.6594,3.7198,3.7663,3.7374,3.8969,4.0655,4.1829,4.4375,4.5993,4.5622,4.7829,4.9153,4.8544,4.9116,4.9571,4.9681,4.9693,5.0233,5.1398,5.1543,5.2152,5.3313,5.3458,5.3487,5.3487,5.3487,5.3487,5.3487,5.3487,5.3487,5.3487,5.3487,5.3487,5.3487,5.3487,5.3487,5.3487,5.3487,5.3487,5.3487,5.3487,5.3487,5.3487,5.3487,5.3487,5.3487,0.0,0.0,0.0,0.0,0.0,0.0,0.0,0.0,0.0,0.0,0.0,0.0,0.0,0.0,0.0,0.0,0.0,0.0,0.0,0.0,0.0,2.3888,2.4115,2.4301,2.4497,2.4507,2.4647,2.4956,2.4956,2.5306,2.5978,2.7021,2.8155,2.9331,2.9745,3.0358,3.1111,0.0,0.0,0.0,0.0,0.0,0.0,0.0,0.0,0.0,0.0,0.0,0.0,0.0,3.4592,3.4544,3.4365,0.0,0.0,0.0,0.0,0.0,3.5126,3.577,3.637,3.627,3.7219,3.819,3.819,3.819,3.8014,3.7399,3.7713,3.7864,3.6984,3.7475,3.8115,3.8504,3.9776,4.1212,4.2677,4.419,4.559,4.6723,4.7996,4.8877,4.9116,4.9473,4.9693,4.9693,4.9693,5.0262,5.153,5.1588,5.2181,5.3458,5.3487,5.3487,5.3487,5.3487,5.3487,5.3487,5.3487,5.3487,5.3487,5.3487,5.3487,5.3487,5.3487,5.3487,5.3487,5.3487,5.3487,5.3487,5.3487,5.3487,5.3487,5.3487,5.3487,5.3487,0.0,0.0,0.0,0.0,0.0,0.0,0.0,0.0,0.0,0.0,0.0,0.0,0.0,0.0,0.0,0.0,0.0,0.0,0.0,0.0,2.394,2.4043,2.4343,2.4507,2.4507,2.4507,2.4507,2.4507,2.4507,2.4839,2.5527,2.6827,2.7972,2.8957,2.9348,3.0084,3.102,3.1238,3.1472,0.0,0.0,0.0,0.0,0.0,0.0,0.0,0.0,0.0,0.0,0.0,0.0,0.0,0.0,0.0,0.0,3.4799,3.4799,3.486,3.5211,3.5636,3.6197,3.7083,3.8216,3.9157,3.927,3.9295,3.9044,3.8191,3.858,3.8743,3.76,3.7851,3.8567,3.9697,4.0495,4.1599,4.3385,4.4058,4.5245,4.7546,4.7983,4.854,4.9595,4.9693,4.9693,4.9693,4.9693,5.0262,5.153,5.1588,5.2181,5.3458,5.3487,5.3487,5.3487,5.3487,5.3487,5.3487,5.3487,5.3487,5.3487,5.3487,5.3487,5.3487,5.3487,5.3487,5.3487,5.3487,5.3487,5.3487,5.3487,5.3487,5.3487,5.3487,5.3487,5.3487,0.0,0.0,0.0,0.0,0.0,0.0,0.0,0.0,0.0,0.0,0.0,0.0,0.0,0.0,0.0,0.0,0.0,0.0,0.0,0.0,2.4074,2.4435,2.4487,2.4507,2.4507,2.4507,2.4507,2.4507,2.4507,2.4839,2.5527,2.6683,2.7765,2.8697,2.806,2.9074,3.1224,3.0577,3.0847,0.0,0.0,0.0,0.0,0.0,0.0,0.0,0.0,0.0,0.0,0.0,0.0,0.0,0.0,0.0,3.4799,3.4799,3.4799,3.4896,3.544,3.6346,3.7431,3.8504,3.8052,3.75,3.8015,3.8115,3.8103,3.8015,3.8868,3.9295,3.8153,3.8429,3.9183,4.0261,4.0914,4.1695,4.2885,4.4197,4.5595,4.7061,4.7974,4.8793,4.9608,4.9693,4.9693,4.9693,4.9693,5.0262,5.153,5.1588,5.2181,5.3458,5.3487,5.3487,5.3487,5.3487,5.3487,5.3487,5.3487,5.3487,5.3487,5.3487,5.3487,5.3487,5.3487,5.3487,5.3487,5.3487,5.3487,5.3487,5.3487,5.3487,5.3487,5.3487,5.3487,5.3487,0.0,0.0,0.0,0.0,0.0,0.0,0.0,0.0,0.0,0.0,0.0,0.0,0.0,0.0,0.0,0.0,0.0,0.0,0.0,2.4217,2.4343,2.4487,2.4507,2.4507,2.4507,2.4507,2.4507,2.4507,2.4924,2.52,2.5359,2.6915,2.7792,2.8094,2.8529,2.9256,3.0179,3.0371,3.0683,3.1052,0.0,0.0,0.0,0.0,0.0,0.0,0.0,0.0,0.0,0.0,3.4171,3.4531,3.4433,3.458,3.4799,3.4799,3.4908,3.5126,3.55,3.6505,3.763,3.8191,3.8555,3.8969,3.9847,4.0048,3.9847,3.9182,3.9672,3.996,3.9195,3.9258,3.9635,4.0387,4.1124,4.2134,4.3596,4.4705,4.5807,4.7063,4.7961,4.8619,4.8918,4.9399,4.9693,4.9693,4.9693,5.0262,5.153,5.1588,5.2181,5.3458,5.3487,5.3487,5.3487,5.3487,5.3487,5.3487,5.3487,5.3487,5.3487,5.3487,5.3487,5.3487,5.3487,5.3487,5.3487,5.3487,5.3487,5.3487,5.3487,5.3487,5.3487,5.3487,5.3487,5.3487,0.0,0.0,0.0,0.0,0.0,0.0,0.0,0.0,0.0,0.0,0.0,0.0,0.0,0.0,0.0,0.0,0.0,0.0,2.423,2.4432,2.4507,2.4507,2.4507,2.4507,2.4507,2.4507,2.4569,2.4714,2.5327,2.5477,2.5241,2.6623,2.7409,2.7722,2.8433,2.9138,2.9867,3.0291,3.0671,3.0983,3.1507,3.1706,0.0,0.0,0.0,0.0,0.0,0.0,0.0,0.0,3.4075,3.4396,3.4396,3.458,3.4799,3.4799,3.4981,3.5271,3.5536,3.6319,3.7282,3.8078,3.8718,3.9483,4.075,4.0926,4.0588,3.9848,3.9998,4.0186,3.9998,3.9948,4.0136,4.0675,4.1495,4.2644,4.4309,4.489,4.5741,4.741,4.7897,4.8318,4.8831,4.9375,4.9693,4.9693,4.9693,5.0262,5.153,5.1588,5.2181,5.3458,5.3487,5.3487,5.3487,5.3487,5.3487,5.3487,5.3487,5.3487,5.3487,5.3487,5.3487,5.3487,5.3487,5.3487,5.3487,5.3487,5.3487,5.3487,5.3487,5.3487,5.3487,5.3487,5.3487,5.3487,0.0,0.0,0.0,0.0,0.0,0.0,0.0,0.0,0.0,0.0,0.0,0.0,0.0,0.0,0.0,0.0,0.0,0.0,2.3797,2.4229,2.4476,2.4476,2.4476,2.4476,2.4507,2.4507,2.4745,2.52,2.5662,2.5662,2.5211,2.5673,2.6545,2.7683,2.7422,2.8538,3.0566,3.0306,3.0769,3.1671,3.1695,3.1695,0.0,0.0,0.0,0.0,0.0,0.0,0.0,0.0,3.4225,3.4396,3.4396,3.458,3.4799,3.4799,3.4981,3.5247,3.5536,3.5825,3.6486,3.8404,3.8454,3.8454,4.0111,4.0086,3.9697,3.9697,3.9697,3.9873,4.0387,4.0512,4.0675,4.1214,4.2023,4.318,4.4861,4.4654,4.5341,4.8141,4.7732,4.7844,4.951,4.9681,4.9693,4.9693,4.9693,5.0262,5.153,5.1588,5.2181,5.3458,5.3487,5.3487,5.3487,5.3487,5.3487,5.3487,5.3487,5.3487,5.3487,5.3487,5.3487,5.3487,5.3487,5.3487,5.3487,5.3487,5.3487,5.3487,5.3487,5.3487,5.3487,5.3487,5.3487,5.3487,0.0,0.0,0.0,0.0,0.0,0.0,0.0,0.0,0.0,0.0,0.0,0.0,0.0,0.0,0.0,0.0,0.0,0.0,2.3786,2.3927,2.4003,2.4003,2.4003,2.4089,2.4292,2.4752,2.4911,2.4714,2.5177,2.5343,2.5211,2.6011,2.6577,2.696,2.7891,2.8247,2.8278,2.9477,2.9942,2.9922,3.0449,3.0959,0.0,0.0,0.0,0.0,0.0,0.0,0.0,0.0,0.0,0.0,3.4396,3.458,3.4835,3.5017,3.5284,3.5536,3.5812,3.6933,3.8091,3.8228,3.9019,3.9785,3.9923,3.9798,3.9697,3.9697,3.9998,4.0199,3.9973,4.0549,4.1113,4.1264,4.2199,4.3194,4.4139,4.4437,4.4884,4.5728,4.6635,4.741,4.7895,4.9013,4.9693,4.9693,4.9693,5.0262,5.153,5.1588,5.2181,5.3458,5.3487,5.3487,5.3487,5.3487,5.3487,5.3487,5.3487,5.3487,5.3487,5.3487,5.3487,5.3487,5.3487,5.3487,5.3487,5.3487,5.3487,5.3487,5.3487,5.3487,5.3487,5.3487,5.3487,5.3487,0.0,0.0,0.0,0.0,0.0,0.0,0.0,0.0,0.0,0.0,0.0,0.0,0.0,0.0,0.0,0.0,0.0,0.0,0.0,2.3754,2.3851,2.3949,2.3949,2.4057,2.4314,2.5083,2.5149,2.4507,2.4973,2.5294,2.5502,2.6065,2.6514,2.6918,2.7964,2.8131,2.7756,2.9041,2.9454,2.9319,3.0067,3.0623,3.1039,0.0,0.0,0.0,0.0,0.0,0.0,0.0,0.0,0.0,3.4396,3.458,3.4848,3.5114,3.5539,3.5976,3.6254,3.7404,3.8555,3.8642,3.927,3.9848,3.9735,3.9697,3.9697,3.9697,3.9948,4.0149,4.0049,4.0725,4.1378,4.1617,4.2624,4.3612,4.4276,4.4559,4.5086,4.6085,4.6791,4.7462,4.8122,4.91,4.9693,4.9693,4.9693,5.0262,5.153,5.1588,5.2181,5.3458,5.3487,5.3487,5.3487,5.3487,5.3487,5.3487,5.3487,5.3487,5.3487,5.3487,5.3487,5.3487,5.3487,5.3487,5.3487,5.3487,5.3487,5.3487,5.3487,5.3487,5.3487,5.3487,5.3487,5.3487,0.0,0.0,0.0,0.0,0.0,0.0,0.0,0.0,0.0,0.0,0.0,0.0,0.0,0.0,0.0,0.0,0.0,0.0,0.0,0.0,2.3851,2.4099,2.4142,2.426,2.4422,2.5356,2.5388,2.4475,2.4962,2.545,2.5897,2.5897,2.6395,2.7321,2.7786,2.8104,2.8336,2.8839,2.9209,2.952,3.0171,3.0557,3.0852,3.1938,0.0,0.0,0.0,0.0,0.0,0.0,0.0,0.0,3.4433,3.4592,3.4848,3.5163,3.5783,3.6444,3.6774,3.7442,3.8341,3.9383,3.9283,3.9095,3.9584,3.9697,3.9697,3.9697,3.9697,3.9848,4.0412,4.0951,4.1517,4.2126,4.3173,4.4162,4.4886,4.4817,4.5569,4.7936,4.7602,4.7831,4.9436,4.9656,4.9693,4.9693,4.9693,5.0262,5.153,5.1588,5.2181,5.3458,5.3487,5.3487,5.3487,5.3487,5.3487,5.3487,5.3487,5.3487,5.3487,5.3487,5.3487,5.3487,5.3487,5.3487,5.3487,5.3487,5.3487,5.3487,5.3487,5.3487,5.3487,5.3487,5.3487,5.3487,0.0,0.0,0.0,0.0,0.0,0.0,0.0,0.0,0.0,0.0,0.0,0.0,0.0,0.0,0.0,0.0,0.0,0.0,0.0,0.0,2.3286,2.333,2.3689,2.3905,2.3949,2.488,2.4979,2.426,2.4885,2.545,2.5897,2.5897,2.6395,2.7321,2.7786,2.7821,2.7594,2.8443,2.8943,2.9184,2.9137,3.0174,3.1732,3.1387,3.2031,0.0,0.0,0.0,0.0,0.0,0.0,0.0,3.4653,3.475,3.4884,3.538,3.5916,3.6517,3.698,3.789,3.8768,3.9019,3.9283,3.9559,3.9672,3.9697,3.9697,3.9697,3.9697,3.9848,4.0412,4.0951,4.157,4.2383,4.3283,4.3968,4.4135,4.4464,4.5047,4.6018,4.6778,4.7602,4.8656,4.9326,4.9693,4.9693,4.9693,5.0262,5.153,5.1588,5.2181,5.3458,5.3487,5.3487,5.3487,5.3487,5.3487,5.3487,5.3487,5.3487,5.3487,5.3487,5.3487,5.3487,5.3487,5.3487,5.3487,5.3487,5.3487,5.3487,5.3487,5.3487,5.3487,5.3487,5.3487,5.3487,0.0,0.0,0.0,0.0,0.0,0.0,0.0,0.0,0.0,0.0,0.0,0.0,0.0,0.0,0.0,0.0,0.0,0.0,0.0,0.0,2.321,2.3439,2.3998,2.436,2.4469,2.4955,2.5021,2.4686,2.5021,2.545,2.5897,2.6125,2.6613,2.7309,2.757,2.7535,2.7333,2.7821,2.822,2.855,2.8761,2.9922,3.154,3.1749,0.0,0.0,0.0,0.0,0.0,0.0,0.0,0.0,0.0,0.0,3.4896,3.5452,3.5965,3.6579,3.7378,3.824,3.8969,3.922,3.9484,3.9697,3.9697,3.9697,3.9697,3.9697,3.9697,3.9948,4.0725,4.1127,4.1673,4.2793,4.3353,4.3722,4.3886,4.4135,4.4776,4.5966,4.6661,4.7551,4.8943,4.9449,4.9693,4.9693,4.9693,5.0262,5.153,5.1588,5.2181,5.3458,5.3487,5.3487,5.3487,5.3487,5.3487,5.3487,5.3487,5.3487,5.3487,5.3487,5.3487,5.3487,5.3487,5.3487,5.3487,5.3487,5.3487,5.3487,5.3487,5.3487,5.3487,5.3487,5.3487,5.3487,0.0,0.0,0.0,0.0,0.0,0.0,0.0,0.0,0.0,0.0,0.0,0.0,0.0,0.0,0.0,0.0,0.0,0.0,0.0,0.0,0.0,2.3732,2.4448,2.4883,2.501,2.523,2.5283,2.52,2.5356,0.0,0.0,0.0,2.6841,2.7297,2.7297,2.7297,2.7297,2.7368,2.7684,2.8172,2.8806,2.9939,3.136,0.0,0.0,0.0,0.0,0.0,0.0,0.0,0.0,0.0,0.0,0.0,3.4896,3.5392,3.5929,3.6616,3.7655,3.8467,3.9132,3.9584,3.9697,3.9697,3.9697,3.9697,3.9697,3.9697,3.9697,4.0023,4.1088,4.1289,4.1748,4.3187,4.3395,4.3503,4.3764,4.3872,4.4518,4.6243,4.6661,4.75,4.9223,4.9583,4.9693,4.9693,4.9693,5.0204,5.1369,5.1543,5.2152,5.3326,5.3458,5.3487,5.3487,5.3487,5.3487,5.3487,5.3487,5.3487,5.3487,5.3487,5.3487,5.3487,5.3487,5.3487,5.3487,5.3487,5.3487,5.3487,5.3487,5.3487,5.3487,5.3487,5.3487,5.3487,0.0,0.0,0.0,0.0,0.0,0.0,0.0,0.0,0.0,0.0,0.0,0.0,0.0,0.0,0.0,0.0,0.0,0.0,2.309,0.0,0.0,2.3526,2.4195,2.4487,2.4341,2.5299,2.5606,2.52,0.0,0.0,0.0,0.0,0.0,2.7297,0.0,2.7297,2.7318,2.7676,2.8247,2.8956,2.9231,3.068,0.0,0.0,0.0,0.0,0.0,0.0,0.0,0.0,3.3777,0.0,0.0,0.0,3.4848,3.5151,3.5795,3.6579,3.7419,3.8591,3.9609,3.9672,3.9697,3.9697,3.9697,3.9697,3.9697,3.9697,3.9697,4.0023,4.1088,4.1289,4.1748,4.3187,4.3395,4.3434,4.3462,4.3722,4.4176,4.4886,4.6072,4.7179,4.8122,4.9112,4.9693,4.9693,4.9693,5.0042,5.0797,5.1323,5.192,5.2714,5.3239,5.3487,5.3487,5.3487,5.3487,5.3487,5.3487,5.3487,5.3487,5.3487,5.3487,5.3487,5.3487,5.3487,5.3487,5.3487,5.3487,5.3487,5.3487,5.3487,5.3487,5.3487,5.3487,5.3487,0.0,0.0,0.0,0.0,0.0,0.0,0.0,0.0,0.0,0.0,0.0,0.0,0.0,0.0,0.0,2.2772,2.2662,2.2728,2.309,2.3489,2.3826,2.4058,2.4735,2.5143,2.5152,2.5634,2.5803,2.5585,0.0,0.0,0.0,2.6862,2.709,0.0,0.0,0.0,0.0,2.7872,2.8463,2.9322,2.9864,0.0,0.0,0.0,0.0,0.0,0.0,0.0,0.0,0.0,3.3609,3.3994,3.3994,0.0,0.0,0.0,3.5684,3.6234,3.7481,3.873,3.9697,3.9697,3.9697,3.9697,3.9697,3.9697,3.9697,3.9697,3.9697,4.0023,4.1088,4.1289,4.1748,4.3187,4.3268,4.3226,4.3393,4.3393,4.371,4.4614,4.5248,4.6176,4.764,4.8362,4.8939,4.9453,4.9637,4.9983,5.0651,5.1265,5.1904,5.2568,5.3024,5.3358,5.3487,5.3358,5.3358,5.3487,5.3487,5.3487,5.3487,5.3487,5.3487,5.3487,5.3487,5.3487,5.3487,5.3487,5.3487,5.3487,5.3487,5.3487,5.3487,5.3487,5.3487,5.3487,0.0,0.0,0.0,0.0,0.0,0.0,0.0,0.0,0.0,0.0,0.0,0.0,0.0,0.0,0.0,0.0,2.2519,2.2607,2.3079,2.3623,2.3989,2.4144,2.491,2.534,2.5376,2.5706,2.5897,0.0,0.0,0.0,2.6779,2.7143,2.736,0.0,2.7451,0.0,0.0,0.0,0.0,0.0,0.0,0.0,0.0,0.0,0.0,0.0,0.0,0.0,0.0,0.0,0.0,3.3826,3.397,3.4378,0.0,0.0,0.0,3.6183,3.7441,3.8517,3.9358,3.9635,3.9609,3.9584,3.9848,3.9798,3.9697,3.9697,3.9697,4.0023,4.1088,4.1289,4.1746,4.3091,4.3129,4.3059,4.3268,4.3129,4.3323,4.4179,4.4507,4.5275,4.6712,4.728,4.7958,4.8893,4.898,4.9404,5.0394,5.0816,5.1381,5.2104,5.2444,5.2709,5.2919,5.2882,5.2969,5.315,5.339,5.3487,5.3487,5.3487,5.3487,5.3487,5.3487,5.3487,5.3487,5.3487,5.3487,5.3487,5.3487,5.3487,5.3487,5.3487,5.3487,5.3487,0.0,0.0,0.0,0.0,0.0,0.0,0.0,0.0,0.0,0.0,0.0,0.0,0.0,2.2106,2.2187,2.2408,2.2408,2.2607,2.3079,2.3142,2.3153,2.3164,2.406,0.0,2.3921,2.5218,2.5897,0.0,0.0,0.0,2.7256,2.7289,2.7501,2.7871,2.7871,2.8195,2.8788,0.0,0.0,0.0,0.0,0.0,0.0,0.0,0.0,0.0,0.0,0.0,0.0,0.0,0.0,0.0,0.0,3.4378,3.4848,0.0,0.0,0.0,3.7151,3.7663,3.8341,3.9421,3.9321,3.922,4.0236,4.0074,3.9697,3.9697,3.9697,4.0023,4.1088,4.1289,4.1692,4.2827,4.3014,4.3014,4.3028,4.3014,4.3028,4.3073,4.4042,4.4737,4.4832,4.5781,4.6867,4.7983,4.7372,4.7755,4.9666,4.9581,4.9903,5.0772,5.1128,5.1305,5.1318,5.1952,5.2256,5.2282,5.3108,5.3487,5.3487,5.3487,5.3487,5.3487,5.3487,5.3487,5.3487,5.3487,5.3487,5.3487,5.3487,5.3487,5.3487,5.3487,5.3487,5.3487,0.0,0.0,0.0,0.0,0.0,0.0,0.0,0.0,0.0,0.0,0.0,0.0,0.0,2.2109,2.211,2.2798,2.2726,2.2783,2.309,2.3531,2.3819,2.3819,2.4786,2.5217,2.4961,2.5999,2.6469,0.0,0.0,2.7265,2.7696,2.7696,2.7912,2.8359,2.8436,2.8906,2.9659,3.0012,0.0,0.0,0.0,0.0,0.0,0.0,0.0,0.0,0.0,0.0,0.0,0.0,0.0,0.0,0.0,0.0,0.0,3.5584,3.6352,3.7089,3.7174,3.7588,3.8191,3.8982,3.9283,3.9509,3.9898,4.0086,4.0124,3.9772,3.9697,4.0023,4.1088,4.1289,4.1679,4.2799,4.3014,4.3014,4.3014,4.3014,4.3014,4.3014,4.3365,4.3823,4.4397,4.4953,4.5661,4.6595,4.6543,4.679,4.7485,4.8545,4.9039,4.8781,5.0346,5.1379,5.1769,5.2028,5.2437,5.3024,5.3177,5.3332,5.3487,5.3487,5.3487,5.3487,5.3487,5.3487,5.3487,5.3487,5.3487,5.3487,5.3487,5.3487,5.3487,5.3487,5.3487,5.3487,0.0,0.0,0.0,0.0,0.0,0.0,0.0,0.0,0.0,0.0,0.0,0.0,0.0,0.0,2.2303,2.2948,2.2945,2.2958,2.309,2.371,2.4112,2.4201,2.5103,2.5606,2.5608,2.6393,2.6736,0.0,0.0,0.0,0.0,2.8065,2.8487,2.9115,2.9281,2.9777,0.0,0.0,0.0,3.1955,0.0,0.0,3.4687,0.0,0.0,0.0,0.0,0.0,0.0,0.0,0.0,0.0,0.0,0.0,0.0,0.0,0.0,3.6934,3.6934,3.7198,3.7701,3.8668,3.9007,3.927,3.9848,4.0086,4.0136,3.9772,3.9697,3.9973,4.0876,4.1188,4.1679,4.2799,4.3014,4.3014,4.3014,4.3014,4.3014,4.3014,4.3014,4.3226,4.3821,4.4015,4.4507,4.5422,4.5395,4.5595,4.6267,4.7186,4.7632,4.7535,4.9357,5.0637,5.1224,5.1713,5.2277,5.2893,5.3124,5.3279,5.3372,5.3477,5.3487,5.3487,5.3487,5.3487,5.3487,5.3487,5.3487,5.3487,5.3487,5.3487,5.3487,5.3487,5.3487,5.3487,0.0,0.0,0.0,0.0,0.0,0.0,0.0,0.0,0.0,0.0,0.0,0.0,0.0,0.0,0.0,2.2827,2.2989,2.312,2.3151,2.3574,2.3943,2.421,2.4865,2.5346,2.5597,2.6268,2.6623,2.6634,2.7489,2.79,2.7921,0.0,2.9157,3.0091,3.0409,3.082,3.1305,0.0,3.1933,3.2994,0.0,3.4628,3.4919,0.0,0.0,0.0,3.5039,3.4871,0.0,3.6074,0.0,0.0,0.0,0.0,0.0,0.0,0.0,0.0,0.0,0.0,0.0,3.8441,3.8429,3.8429,4.0086,4.0074,3.9697,3.9697,3.9697,3.9848,4.0412,4.0926,4.1654,4.2774,4.2989,4.3014,4.3014,4.3014,4.3014,4.3014,4.3014,4.3014,4.3014,4.3014,4.3462,4.4587,4.3864,4.4208,4.6097,4.5462,4.5688,4.7122,4.8077,4.8869,4.9496,5.0988,5.1722,5.1764,5.2935,5.3358,5.3122,5.3385,5.3487,5.3487,5.3487,5.3487,5.3487,5.3487,5.3487,5.3487,5.3487,5.3487,5.3487,5.3487,5.3487,5.3487,0.0,0.0,0.0,0.0,0.0,0.0,0.0,0.0,0.0,0.0,0.0,0.0,0.0,0.0,2.3339,2.3709,2.3485,2.3517,2.4009,2.4339,2.4566,2.4635,2.5283,2.5768,2.6026,2.6554,2.7051,2.754,2.7776,2.8065,2.8442,2.9279,0.0,0.0,3.0975,3.1577,3.1592,3.1786,0.0,3.3018,3.4222,3.4738,0.0,0.0,0.0,0.0,0.0,3.6332,3.6811,0.0,3.662,3.6465,0.0,0.0,0.0,0.0,0.0,0.0,3.6393,0.0,0.0,0.0,0.0,0.0,3.9132,3.9534,3.9697,3.9697,3.9697,3.9848,4.0412,4.0625,4.109,4.2249,4.2738,4.3014,4.3014,4.3014,4.3014,4.3014,4.3014,4.3014,4.3014,4.3014,4.3115,4.3448,4.3254,4.3351,4.3891,4.3891,4.4681,4.6499,4.7461,4.8524,4.9771,5.1248,5.2227,5.2729,5.3047,5.316,5.3122,5.3385,5.3487,5.3487,5.3487,5.3487,5.3487,5.3487,5.3487,5.3487,5.3487,5.3487,5.3487,5.3487,5.3487,5.3487,0.0,0.0,0.0,0.0,0.0,0.0,2.314,0.0,0.0,0.0,0.0,0.0,0.0,0.0,0.0,2.4198,2.4085,2.416,2.4533,2.4972,2.5257,2.5384,2.5955,2.6467,2.6904,2.7179,2.7589,2.8189,2.8388,2.874,2.9249,2.9838,3.0194,0.0,0.0,0.0,0.0,0.0,0.0,0.0,3.433,0.0,0.0,3.6803,3.7386,0.0,0.0,0.0,3.8077,3.7993,3.7556,0.0,0.0,0.0,0.0,0.0,0.0,0.0,0.0,0.0,0.0,3.7349,0.0,0.0,3.9333,3.9635,3.9747,3.9998,4.0036,4.0074,4.0149,4.0538,4.0989,4.1418,4.216,4.2738,4.2964,4.3014,4.3014,4.3014,4.3014,4.3014,4.3014,4.3014,4.3014,4.3014,4.3014,4.3014,4.3014,4.3254,4.4035,4.5417,4.6597,4.8029,4.9749,5.1101,5.216,5.2934,5.316,5.308,5.2734,5.3279,5.3451,5.3345,5.3464,5.3487,5.3487,5.3487,5.3487,5.3487,5.3487,5.3487,5.3487,5.3487,5.3487,5.3487,0.0,0.0,2.331,2.3346,2.3383,2.342,2.342,2.3681,0.0,0.0,0.0,0.0,0.0,0.0,0.0,0.0,2.4774,2.4913,2.4975,2.5575,2.6042,2.6341,2.6773,2.7311,2.7962,2.7983,2.8247,2.8778,2.9193,2.9686,3.0234,3.0293,3.079,0.0,0.0,0.0,0.0,0.0,0.0,3.3511,3.4438,3.5172,0.0,0.0,3.7716,3.778,3.8075,3.851,3.9001,3.937,3.9048,0.0,0.0,0.0,0.0,0.0,3.6494,0.0,0.0,0.0,0.0,0.0,3.7814,0.0,3.9785,3.9772,3.9572,4.0111,4.0236,4.0086,3.9597,4.0287,4.08,4.0387,4.1217,4.2149,4.2813,4.2964,4.3014,4.3014,4.3014,4.3014,4.3014,4.3014,4.3014,4.3014,4.3014,4.3014,4.3014,4.3226,4.3593,4.4128,4.5609,4.7333,4.9214,5.0478,5.1579,5.2559,5.3091,5.2959,5.2262,5.2985,5.3197,5.3054,5.3184,5.3329,5.3464,5.3464,5.3461,5.3487,5.3487,5.3487,5.3487,5.3487,5.3487,5.3487,0.0,0.0,2.3369,2.3579,2.3886,2.4107,2.4107,2.4619,0.0,0.0,0.0,0.0,0.0,0.0,0.0,0.0,2.5524,2.5582,2.6131,2.6502,2.6885,2.7316,2.7577,2.7934,2.845,2.8458,2.889,2.9817,2.9901,3.0335,3.1074,3.1459,3.145,0.0,0.0,0.0,0.0,0.0,0.0,3.4312,3.4667,3.5512,3.6703,3.7835,3.8368,3.8576,3.8641,3.9169,3.9739,3.8983,3.9051,3.9205,0.0,0.0,0.0,0.0,0.0,0.0,0.0,0.0,0.0,0.0,0.0,0.0,3.7675,3.7751,3.7851,3.8391,3.8479,3.8454,3.8341,3.8504,3.8768,3.9132,3.976,4.0703,4.2149,4.2738,4.3014,4.3014,4.3014,4.3014,4.3014,4.3014,4.3014,4.3014,4.3014,4.3014,4.3014,4.3031,4.3123,4.3249,4.4902,4.6185,4.7029,4.8952,5.0491,5.1595,5.2179,5.2518,5.26,5.2218,5.2328,5.2734,5.203,5.2274,5.3173,5.3173,5.3306,5.3487,5.3487,5.3487,5.3487,5.3487,5.3487,5.3487,0.0,0.0,2.4142,2.4273,2.4583,2.4759,2.4626,2.5004,0.0,0.0,0.0,0.0,0.0,0.0,0.0,0.0,0.0,0.0,0.0,2.7106,2.7496,2.807,2.8214,2.8471,2.8926,2.9203,2.9585,3.0047,3.0442,3.0849,3.126,3.1394,3.1408,3.1379,0.0,0.0,0.0,3.2568,3.3883,3.5417,3.5257,3.6095,3.7531,3.8325,3.8788,3.9063,3.9193,3.9548,3.9853,3.9591,3.9406,0.0,0.0,3.8955,3.9007,0.0,3.7575,3.7764,0.0,0.0,0.0,3.6733,0.0,0.0,0.0,3.7826,3.7764,3.8329,3.8454,3.8454,3.8454,3.868,3.8843,3.8894,3.9584,4.03,4.0879,4.1909,4.2688,4.2964,4.3014,4.3014,4.3014,4.3014,4.3014,4.3014,4.3014,4.3014,4.3014,4.3014,4.3014,4.3014,4.4107,4.5119,4.5992,4.7337,4.8745,5.0216,5.0697,5.0973,5.1114,5.1086,5.132,5.1787,5.1458,5.1908,5.2894,5.2894,5.2987,5.3133,5.3411,5.3487,5.3487,5.3487,5.3487,5.3487,0.0,0.0,0.0,2.4864,2.5092,2.5223,2.5015,2.5162,0.0,0.0,0.0,0.0,0.0,0.0,0.0,0.0,0.0,0.0,0.0,0.0,2.8396,2.8861,2.8882,2.9119,2.9597,3.007,3.0219,3.0036,3.0877,3.1288,3.1303,3.1197,3.1425,3.2027,3.2329,0.0,0.0,3.3454,3.4944,3.6551,3.6271,3.7081,3.8505,3.8838,3.9146,3.9472,3.9632,3.9785,3.9898,4.0124,3.9823,3.9434,3.9898,3.981,0.0,0.0,0.0,0.0,0.0,0.0,0.0,0.0,0.0,3.7399,0.0,0.0,0.0,3.8316,3.8429,3.8429,3.8429,3.8768,3.8906,3.8492,3.922,3.9734,3.9421,4.0652,4.1897,4.2738,4.2838,4.2889,4.2989,4.3014,4.3014,4.3014,4.3014,4.3014,4.3014,4.3014,4.3014,4.3014,4.3427,4.4159,4.5242,4.5751,4.6917,4.8769,4.9088,4.9344,4.9502,4.9828,5.0167,5.0544,5.0587,5.1265,5.2358,5.2358,5.2506,5.2747,5.3186,5.3358,5.3316,5.3211,5.3263,5.3398,2.3895,2.4288,0.0,0.0,2.5034,2.5284,2.526,2.5284,2.5389,0.0,0.0,0.0,0.0,0.0,0.0,0.0,0.0,0.0,3.0185,0.0,0.0,2.9935,2.9922,3.017,3.0699,3.0949,3.0796,3.0166,3.109,3.1621,3.174,3.1879,3.2375,3.3142,3.3587,3.3562,3.3273,3.522,3.6497,3.7242,3.7916,3.8823,3.9753,3.9567,3.9713,3.9982,3.9782,3.9998,4.0261,0.0,3.9948,4.07,0.0,3.9911,4.1319,3.8743,0.0,0.0,0.0,0.0,0.0,0.0,3.6859,0.0,3.677,0.0,3.6594,3.6669,0.0,3.6669,3.6669,0.0,0.0,3.6695,3.7185,3.7726,3.814,3.8806,4.0037,4.2048,4.2299,4.2475,4.2964,4.3014,4.3014,4.3014,4.3014,4.3014,4.3014,4.3014,4.3014,4.3014,4.3065,4.3397,4.4003,4.4362,4.555,4.7516,4.7786,4.8461,4.9475,4.8717,4.8714,4.9258,4.8466,4.9258,5.11,5.11,5.1732,5.2707,5.2774,5.2787,5.2734,5.2181,5.2464,5.2961,0.0,0.0,0.0,0.0,2.5315,2.5467,2.5321,2.5532,2.5894,0.0,0.0,0.0,0.0,0.0,0.0,0.0,0.0,2.9321,0.0,0.0,0.0,0.0,2.985,2.988,3.0423,3.0686,3.0651,3.0376,3.1689,3.2357,3.2397,3.2664,3.2987,3.3344,3.4451,3.4655,3.4282,3.6098,3.7191,3.7763,3.8251,3.9066,3.9994,3.9916,3.9879,3.9842,3.9734,4.0049,4.0387,3.9635,4.0023,0.0,0.0,0.0,0.0,0.0,0.0,0.0,0.0,0.0,0.0,0.0,0.0,0.0,3.6594,0.0,3.6393,3.6393,0.0,0.0,0.0,0.0,0.0,0.0,3.7299,3.7638,3.755,3.8015,3.8982,4.0552,4.0753,4.123,4.2425,4.3115,4.3463,4.3463,4.3176,4.3014,4.3014,4.3014,4.3014,4.3014,4.3014,4.3101,4.3327,4.3493,4.4376,4.6031,4.6146,4.6797,4.7912,4.7541,4.7677,4.8262,4.7854,4.8524,4.9884,5.0404,5.0614,5.067,5.1183,5.1895,5.2613,5.18,5.1745,5.1895,0.0,0.0,0.0,0.0,2.5487,2.5684,2.5597,2.5887,0.0,0.0,0.0,0.0,2.8298,2.8102,0.0,0.0,3.0049,3.03,0.0,0.0,3.1465,0.0,0.0,0.0,0.0,3.1283,3.1107,3.0749,3.2273,3.2877,3.2646,3.3077,3.3356,3.3549,3.4979,3.5484,3.5328,3.6964,3.7959,3.8494,3.885,3.9425,4.0139,4.0107,3.9939,3.9697,3.9697,4.0049,4.0387,3.971,3.9923,4.0462,4.0136,4.0261,4.0387,0.0,0.0,0.0,3.8517,0.0,0.0,0.0,0.0,0.0,0.0,0.0,0.0,0.0,3.6393,0.0,0.0,0.0,0.0,0.0,0.0,3.7424,3.7034,3.7324,3.8052,3.9333,3.9609,4.0237,4.1607,4.2448,4.3037,4.3352,4.3014,4.2788,4.2788,4.2914,4.2925,4.2788,4.2914,4.3014,4.3014,4.3014,4.3666,4.4951,4.4951,4.5558,4.6646,4.6494,4.6747,4.732,4.7166,4.7709,4.877,4.9403,4.9431,4.9158,4.9786,5.0739,5.1595,5.074,5.0601,5.0643,0.0,2.509,0.0,0.0,0.0,2.5854,2.6309,0.0,0.0,0.0,0.0,0.0,0.0,0.0,0.0,0.0,0.0,3.4037,3.4579,0.0,3.5405,0.0,0.0,3.3744,0.0,0.0,3.2621,3.1371,3.2665,3.2934,3.2229,3.297,3.3537,3.4018,3.5111,3.5869,3.6446,3.8057,3.9091,3.9688,4.0228,4.0454,4.0472,4.0184,3.9939,3.9697,3.9697,4.0049,4.0337,3.9283,3.9635,4.0312,3.9296,3.966,4.0387,3.9848,0.0,0.0,3.9019,3.8906,3.8617,3.7475,3.7588,3.7713,3.6632,0.0,3.6393,0.0,0.0,0.0,0.0,0.0,0.0,0.0,0.0,0.0,0.0,3.6443,3.7072,3.8718,3.9383,3.9923,4.0487,4.0588,4.1053,4.2174,4.2238,4.2238,4.2238,4.2713,4.2763,4.2249,4.2738,4.3014,4.3014,4.3014,4.3553,4.4618,4.4618,4.5221,4.6301,4.5788,4.5828,4.6321,4.5808,4.6406,4.7762,4.7792,4.8306,4.91,4.9129,4.9172,4.9129,4.8466,4.8786,4.9347,0.0,0.0,0.0,0.0,0.0,0.0,0.0,2.6797,0.0,0.0,0.0,0.0,0.0,3.1835,3.2278,0.0,0.0,3.3846,3.4255,3.4598,0.0,0.0,0.0,3.3413,0.0,0.0,0.0,0.0,3.3244,3.3815,3.3934,3.4174,3.4378,3.4583,3.5653,3.6435,3.7025,3.8513,3.9234,3.9373,3.9601,3.9797,3.9985,4.0257,4.0096,3.9697,3.9697,4.0049,4.0387,3.9685,3.9898,4.0362,3.966,3.9685,3.9923,3.9747,3.9697,3.966,3.9484,3.9948,4.0136,3.8693,3.873,3.8743,3.7261,3.6658,3.6494,0.0,0.0,0.0,0.0,0.0,0.0,0.0,0.0,0.0,0.0,3.6393,3.6594,3.7172,3.8391,3.9233,3.9409,4.1091,4.2322,4.2688,4.3377,4.3478,4.2763,4.3226,4.3126,4.2224,4.2713,4.3014,4.3014,4.3014,4.3553,4.4604,4.4227,4.4855,4.6286,4.5748,4.5799,4.6286,4.6125,4.6305,4.6825,4.7438,4.7527,4.7305,4.7912,4.778,4.729,4.7677,4.8044,4.819,2.5913,0.0,0.0,0.0,0.0,0.0,0.0,0.0,0.0,0.0,3.0522,0.0,3.3565,0.0,3.3648,0.0,3.459,3.4566,3.4965,3.5357,0.0,3.5955,3.506,0.0,0.0,0.0,0.0,0.0,0.0,3.445,3.4799,3.4799,3.4799,3.4823,3.5532,3.6509,3.7724,3.8637,3.9322,3.9793,3.953,3.9555,3.9747,4.0086,3.9998,3.9697,3.9697,3.9923,4.0161,3.9823,3.9923,4.0174,3.9798,3.9697,3.9697,3.9697,3.9697,3.9697,3.9697,4.0186,4.0437,3.922,3.917,3.9082,3.7776,3.7235,3.706,3.7424,0.0,0.0,0.0,0.0,0.0,0.0,0.0,0.0,0.0,3.6393,3.6393,3.6393,3.7348,3.8253,3.8843,4.015,4.1343,4.2308,4.3048,4.3223,4.2738,4.3388,4.3402,4.2526,4.2813,4.3014,4.3014,4.3014,4.3452,4.4303,4.4152,4.4754,4.5999,4.5663,4.5799,4.6286,4.61,4.611,4.6346,4.6949,4.6855,4.6361,4.6964,4.684,4.6361,4.6964,4.7201,4.7142,2.6433,0.0,0.0,0.0,2.6867,2.7239,2.7748,0.0,2.9354,0.0,3.1431,3.2361,3.2919,3.3684,3.4276,3.4575,3.5498,3.6269,3.6811,3.7324,0.0,0.0,3.7543,3.7326,3.8313,0.0,0.0,0.0,0.0,3.4823,3.4799,3.4799,3.4799,3.4799,3.4799,3.6165,3.8425,3.8438,3.9366,4.0778,4.0019,3.9697,3.9697,3.9697,3.9697,3.9697,3.9697,3.9697,3.9697,3.9697,3.9697,3.9697,3.9697,3.9697,3.9697,3.9697,3.9697,3.9697,3.9697,3.9735,3.9609,3.907,3.8944,3.8793,3.8191,3.8015,3.8015,3.804,3.765,0.0,0.0,0.0,0.0,0.0,0.0,0.0,0.0,3.6393,3.6393,3.6393,3.6393,3.7021,3.8617,3.7864,3.8391,4.1088,4.1314,4.1642,4.2274,4.3251,4.3539,4.3014,4.3039,4.3039,4.3014,4.3014,4.3277,4.3815,4.4328,4.488,4.5512,4.5512,4.5799,4.6261,4.5748,4.5824,4.6286,4.6286,4.6286,4.6286,4.6286,4.6286,4.6286,4.6286,4.6286,4.6286,2.8101,2.8189,2.8559,2.9501,2.8722,2.8331,2.9387,3.0045,0.0,0.0,3.3426,3.4733,3.6727,3.6553,3.6577,3.7321,3.7029,0.0,0.0,0.0,0.0,3.819,3.7873,3.7549,3.7218,3.6866,0.0,3.5408,0.0,3.5183,3.4799,3.4799,3.4799,3.4799,3.4799,3.5705,3.7242,3.7497,3.8545,3.9994,3.9772,3.9697,3.9697,3.9697,3.9697,3.9697,3.9697,3.9697,3.9697,3.9697,3.9697,3.9697,3.9697,3.9697,3.9697,3.9697,3.9697,3.9697,3.9697,3.9998,4.0174,3.9635,3.9484,3.9358,3.8793,3.8316,3.814,3.858,3.8567,3.8341,3.7889,3.7688,0.0,0.0,0.0,0.0,0.0,0.0,3.6393,3.6393,3.6393,3.6569,3.6996,3.7889,3.9258,4.1177,4.1731,4.2548,4.3915,4.3865,4.3539,4.3014,4.3377,4.3402,4.3014,4.3014,4.3277,4.379,4.394,4.4518,4.5512,4.5512,4.5799,4.6286,4.6135,4.616,4.6286,4.6286,4.6286,4.6286,4.6286,4.6286,4.6286,4.6286,4.6286,4.6286,2.897,2.9102,2.9616,3.1077,3.0596,3.0181,3.0689,3.1313,3.2233,3.3606,3.4531,0.0,3.7469,3.7213,3.718,3.7783,3.751,0.0,3.7582,0.0,0.0,3.7987,3.7987,3.7897,3.7676,3.7366,0.0,3.6062,0.0,3.5328,3.4799,3.4799,3.4799,3.4799,3.4799,3.556,3.6927,3.8044,3.8986,3.9722,3.9948,3.9898,0.0,3.9697,3.9697,3.9697,3.9697,3.9697,3.9697,3.9697,3.9697,3.9697,3.9697,3.9697,3.9697,3.9697,3.9697,3.9697,3.9697,3.9923,4.0074,3.9785,3.9697,3.9635,3.9321,3.9007,3.8843,3.9183,3.907,3.8793,3.8454,3.8191,3.7739,0.0,0.0,0.0,0.0,0.0,0.0,3.643,3.6619,3.6669,3.6418,3.7248,3.8492,4.0136,4.0577,4.1356,4.2733,4.2986,4.3076,4.3014,4.3302,4.3302,4.3014,4.3014,4.3151,4.3438,4.3689,4.4267,4.5121,4.5372,4.5799,4.6286,4.6286,4.6286,4.6286,4.6286,4.6286,4.6286,4.6286,4.6286,4.6286,4.6286,4.6286,4.6286,2.9778,2.9867,0.0,3.1901,3.231,3.2323,3.1984,3.2713,3.3568,3.4332,3.5155,3.5933,3.6746,3.6793,3.6887,3.7173,0.0,3.7649,3.7649,3.7878,3.7987,3.7987,3.7987,3.8228,3.8682,3.7781,0.0,0.0,0.0,3.5376,3.4799,3.4799,3.4799,3.4799,3.4799,3.5597,3.7077,3.9016,3.979,3.9747,4.0224,4.0124,3.9697,3.9697,3.9697,3.9697,3.9697,3.9697,3.9697,3.9697,3.9697,3.9697,3.9697,3.9697,3.9697,3.9697,3.9697,3.9697,3.9697,3.9697,3.9697,3.9697,3.9697,3.9697,3.9697,3.9697,3.9697,3.9697,3.9383,3.907,3.8931,3.8404,3.7839,0.0,0.0,0.0,0.0,0.0,0.0,0.0,3.7085,0.0,3.6658,3.6468,3.7122,3.8869,3.8869,3.9383,4.0738,4.1708,4.245,4.2975,4.3076,4.3076,4.3014,4.3014,4.3014,4.3014,4.3539,4.4077,4.4629,4.5221,4.5799,4.6286,4.6286,4.6286,4.6286,4.6286,4.6286,4.6286,4.6286,4.6286,4.6286,4.6286,4.6286,4.6286,3.2303,0.0,0.0,0.0,3.3407,3.3821,3.4174,3.5196,3.5775,3.5266,3.5954,3.6717,3.7371,3.7197,3.724,3.7788,3.7905,0.0,0.0,0.0,0.0,3.7987,3.7987,3.8035,3.8131,3.7963,3.7434,0.0,0.0,0.0,3.4799,3.4799,3.4799,3.4799,3.4799,3.5708,3.7281,3.8041,3.8868,3.971,3.9798,3.9772,3.9697,3.9697,3.9697,3.9697,3.9697,3.9697,3.9697,3.9697,3.9697,3.9697,3.9697,3.9697,3.9697,3.9697,3.9697,3.9697,3.9697,3.9697,3.9697,3.9697,3.9697,3.9697,3.9697,3.9697,3.9697,3.9697,3.9973,3.9948,3.907,3.8404,3.7965,3.7889,3.8203,0.0,0.0,0.0,0.0,0.0,0.0,3.8354,3.7776,3.6909,3.7273,3.9409,3.8693,3.9459,4.2397,4.2336,4.245,4.2975,4.3427,4.3452,4.3,4.3014,4.3014,4.3014,4.3539,4.4077,4.4629,4.5221,4.5799,4.6286,4.6286,4.6286,4.6286,4.6286,4.6286,4.6286,4.6286,4.6286,4.6286,4.6286,4.6286,4.6286,3.307,0.0,0.0,0.0,3.436,3.4753,3.5702,3.6665,3.6939,3.5982,3.6213,3.6671,3.7089,3.7116,3.7237,3.7508,3.7814,3.7945,3.7799,3.7931,3.7987,3.7987,3.7987,3.7987,3.7987,3.7987,3.7482,3.6411,0.0,0.0,3.4799,3.4799,3.4799,3.4823,3.5573,3.6233,3.6924,3.8451,3.918,3.9333,3.9898,3.9948,3.9697,3.9697,3.9697,3.9697,3.9697,3.9697,3.9697,3.9697,3.9697,3.9697,3.9697,3.9697,3.9697,3.9697,3.9697,3.9697,3.9697,3.9697,3.9697,3.9697,3.9697,3.9697,3.9697,3.9697,3.9697,3.9697,3.9898,3.9923,3.9409,3.8856,3.8555,3.8843,3.8881,3.8894,0.0,0.0,3.9697,0.0,0.0,0.0,3.7701,3.7135,3.7374,3.8718,3.804,3.8555,4.0753,4.0904,4.1267,4.2094,4.2674,4.2989,4.3014,4.3014,4.3014,4.3014,4.3251,4.3815,4.4614,4.4905,4.5482,4.6286,4.6286,4.6286,4.6286,4.6286,4.6286,4.6286,4.6286,4.6286,4.6286,4.6286,4.6286,4.6286,3.3487,3.31,3.3186,3.4832,3.5214,3.5593,3.6404,3.7315,3.7553,3.6523,3.64,3.6495,3.6766,3.6958,3.7143,3.721,3.7705,3.7918,3.7702,3.7878,3.7987,3.7987,3.7987,3.7987,3.7987,3.7987,3.753,0.0,0.0,3.5917,3.4967,3.4835,3.4908,3.5125,3.639,3.6994,3.7146,3.9046,3.9616,3.9283,4.0049,4.0074,3.9697,3.9697,3.9697,3.9697,3.9697,3.9697,3.9697,3.9697,3.9697,3.9697,3.9697,3.9697,3.9697,3.9697,3.9697,3.9697,3.9697,3.9697,3.9697,3.9697,3.9697,3.9697,3.9697,3.9697,3.9697,3.9697,3.9697,3.9697,3.9697,3.9358,3.9208,3.9635,3.9434,3.9333,3.966,0.0,0.0,0.0,0.0,0.0,3.8203,3.765,3.765,3.8316,3.7751,3.7876,3.9019,3.9685,4.0437,4.1264,4.1996,4.2562,4.2989,4.3014,4.3014,4.3014,4.3014,4.3489,4.4428,4.4539,4.5156,4.615,4.6235,4.6286,4.6286,4.6286,4.6286,4.6286,4.6286,4.6286,4.6286,4.6286,4.6286,4.6286,3.4425,3.478,3.4894,3.4827,3.6028,3.6664,3.5764,3.6932,3.7584,3.6758,3.6671,3.6756,3.7026,3.7066,3.7224,3.7529,3.7825,3.7987,3.7971,3.7987,3.7987,3.7987,3.7987,3.7987,3.7987,3.7987,3.7698,0.0,0.0,3.6085,3.5496,3.5015,3.521,3.6013,3.681,3.7849,3.9022,3.9017,3.9534,4.0312,3.9923,3.9747,3.9697,3.9697,3.9697,3.9697,3.9697,3.9697,3.9697,3.9697,3.9697,3.9697,3.9697,3.9697,3.9697,3.9697,3.9697,3.9697,3.9697,3.9697,3.9697,3.9697,3.9697,3.9697,3.9697,3.9697,3.9697,3.9697,3.9697,3.9697,3.9697,3.966,3.9647,3.9697,4.0074,4.0199,3.9747,0.0,4.1001,4.0412,0.0,0.0,4.0887,3.9107,3.8366,3.9446,3.8542,3.8417,3.9559,4.0575,4.1188,4.1289,4.2359,4.2964,4.3014,4.3014,4.3014,4.3014,4.3014,4.3302,4.389,4.4378,4.4955,4.5598,4.61,4.6286,4.6286,4.6286,4.6286,4.6286,4.6286,4.6286,4.6286,4.6286,4.6286,4.6286,3.4908,3.5006,3.5231,3.6094,3.6214,3.6346,3.6849,3.708,3.7111,3.6965,3.6955,3.6995,3.7103,3.7277,3.7462,3.7582,3.7852,3.7987,3.7987,3.7987,3.7987,3.7987,3.7987,3.7987,3.7987,3.8146,3.7983,3.745,3.6905,3.6518,3.6324,3.6156,3.6488,3.7327,3.8109,3.8585,3.8875,3.9569,3.9923,3.9998,3.9798,3.9697,3.9697,3.9697,3.9697,3.9697,3.9697,3.9697,3.9697,3.9697,3.9697,3.9697,3.9697,3.9697,3.9697,3.9697,3.9697,3.9697,3.9697,3.9697,3.9697,3.9697,3.9697,3.9697,3.9697,3.9697,3.9697,3.9697,3.9697,3.9697,3.9697,3.9697,3.981,4.0124,4.0362,4.0538,4.0663,4.1026,0.0,4.0111,0.0,3.9973,3.9873,3.8442,3.8002,3.9132,3.8153,3.8027,3.917,4.0236,4.0976,4.1289,4.2409,4.3014,4.3014,4.3014,4.3014,4.3014,4.3014,4.3277,4.3815,4.4353,4.5106,4.5999,4.6225,4.6286,4.6286,4.6286,4.6286,4.6286,4.6286,4.6286,4.6286,4.6286,4.6286,4.6286,3.5488,3.5432,3.5716,3.6851,3.645,3.6356,3.7498,3.7284,3.7036,3.7224,3.7331,3.7304,3.7106,3.7385,3.7596,3.7596,3.7852,3.7987,3.7987,3.7987,3.7987,3.7987,3.7987,3.8027,3.8106,3.8291,3.8252,3.7952,3.7442,3.7173,3.7173,3.7223,3.7596,3.8246,3.8971,3.9137,3.8902,3.987,4.0049,3.9697,3.9697,3.9697,3.9697,3.9697,3.9697,3.9697,3.9697,3.9697,3.9697,3.9697,3.9697,3.9697,3.9697,3.9697,3.9697,3.9697,3.9697,3.9697,3.9697,3.9697,3.9697,3.9697,3.9697,3.9697,3.9697,3.9697,3.9697,3.9697,3.9697,3.9697,3.9697,3.9697,3.9823,4.0186,4.0261,4.0387,4.0775,4.0826,0.0,3.9998,3.9798,3.9685,3.9609,3.8605,3.8329,3.9283,3.8479,3.8354,3.9308,4.0099,4.0914,4.1779,4.2598,4.3014,4.3014,4.3014,4.3014,4.3014,4.3014,4.3201,4.3589,4.4278,4.5131,4.606,4.6225,4.6286,4.6286,4.6286,4.6286,4.6286,4.6286,4.6286,4.6286,4.6286,4.6286,4.6286,3.6295,3.6499,3.6688,3.6688,3.6904,3.7079,3.7116,3.7395,3.7582,3.7596,3.7825,3.7748,3.7183,3.7385,3.7596,3.7596,3.7852,3.7987,3.7987,3.7987,3.7987,3.7987,3.7987,3.8106,3.8394,3.8408,3.8539,3.8802,3.8325,3.8067,3.8067,3.8104,3.8233,3.8514,3.9048,3.9426,3.9697,3.9697,3.971,3.9697,3.9697,3.9697,3.9697,3.9697,3.9697,3.9697,3.9697,3.9697,3.9697,3.9697,3.9697,3.9697,3.9697,3.9697,3.9697,3.9697,3.9697,3.9697,3.9697,3.9697,3.9697,3.9697,3.9697,3.9697,3.9697,3.9697,3.9697,3.9697,3.9697,3.9697,3.9697,3.9697,3.9697,3.971,3.971,3.971,3.9735,3.9735,3.9898,4.0437,4.0023,4.0111,4.1163,4.0287,3.9898,4.0437,3.9973,3.9898,4.0462,4.0487,4.1254,4.2925,4.2989,4.3014,4.3014,4.3014,4.3014,4.3014,4.3014,4.3014,4.3065,4.4102,4.493,4.5537,4.6075,4.6286,4.6286,4.6286,4.6286,4.6286,4.6286,4.6286,4.6286,4.6286,4.6286,4.6286,3.6549,3.6634,3.6766,3.6955,3.7026,3.7183,3.7422,3.7529,3.7729,3.8104,3.8223,3.8276,3.8276,3.8038,3.7945,3.813,3.8064,3.8146,3.8526,3.8381,3.8276,3.8276,3.846,3.85,3.8408,3.8802,3.9063,3.9141,3.8609,3.8572,3.8919,3.8919,3.926,3.9843,3.9656,3.9633,3.9697,3.9697,3.9697,3.9697,3.9697,3.9697,3.9697,3.9697,3.9697,3.9697,3.9697,3.9697,3.9697,3.9697,3.9697,3.9697,3.9697,3.9697,3.9697,3.9697,3.9697,3.9697,3.9697,3.9697,3.9697,3.9697,3.9697,3.9697,3.9697,3.9697,3.9697,3.9697,3.9697,3.9697,3.9697,3.9697,3.9697,3.9697,3.9697,3.9697,3.9697,3.9697,3.9635,3.9434,3.9258,3.9434,4.0149,3.9195,3.8944,3.9873,3.9069,3.9283,4.0951,4.1443,4.2085,4.2975,4.3352,4.3377,4.3014,4.3014,4.3014,4.3014,4.3014,4.3176,4.3564,4.389,4.4568,4.5512,4.5673,4.5974,4.6286,4.6286,4.6286,4.6286,4.6286,4.6286,4.6286,4.6286,4.6286,4.6286,3.7009,3.7036,3.713,3.7398,3.7428,3.7585,3.7995,3.8062,3.8157,3.8513,3.8552,3.8618,3.8775,3.8513,3.8381,3.8539,3.8408,3.8447,3.8775,3.8644,3.8552,3.8552,3.871,3.8775,3.8749,3.9102,3.9349,3.9439,3.9115,3.9115,3.9439,3.9439,3.9717,4.0186,3.9848,3.9697,3.9697,3.9697,3.9697,3.9697,3.9697,3.9697,3.9697,3.9697,3.9697,3.9697,3.9697,3.9697,3.9697,3.9697,3.9697,3.9697,3.9697,3.9697,3.9697,3.9697,3.9697,3.9697,3.9697,3.9697,3.9697,3.9697,3.9697,3.9697,3.9697,3.9697,3.9697,3.9697,3.9697,3.9697,3.9697,3.9697,3.9697,3.9697,3.9697,3.9697,3.9697,3.9697,3.9584,3.9233,3.9183,3.9333,3.9685,3.9245,3.9232,3.9948,3.9735,4.0275,4.1843,4.1694,4.211,4.3251,4.3427,4.3327,4.3014,4.3014,4.3014,4.3014,4.3014,4.3176,4.3503,4.3714,4.4292,4.5171,4.5412,4.5799,4.6286,4.6286,4.6286,4.6286,4.6286,4.6286,4.6286,4.6286,4.6286,4.6286,3.7636,3.7636,3.7742,3.7974,3.8027,3.8212,3.8723,3.8802,3.8815,3.8828,3.8828,3.8841,3.8854,3.8854,3.8854,3.8854,3.8815,3.8815,3.8854,3.8854,3.8828,3.8828,3.8854,3.8998,3.9284,3.931,3.9439,3.9697,3.9697,3.9697,3.9697,3.9697,3.9697,3.9697,3.9697,3.9697,3.9697,3.9697,3.9697,3.9697,3.9697,3.9697,3.9697,3.9697,3.9697,3.9697,3.9697,3.9697,3.9697,3.9697,3.9697,3.9697,3.9697,3.9697,3.9697,3.9697,3.9697,3.9697,3.9697,3.9697,3.9697,3.9697,3.9697,3.9697,3.9697,3.9697,3.9697,3.9697,3.9697,3.9697,3.9697,3.9697,3.9697,3.9697,3.9697,3.9697,3.9697,3.9697,3.9697,3.9697,3.9697,3.9697,3.9697,4.0149,4.0437,4.0437,4.1443,4.2324,4.285,4.143,4.1605,4.374,4.3277,4.3014,4.3014,4.3014,4.3014,4.3014,4.3014,4.3014,4.3014,4.3528,4.4027,4.4579,4.5146,4.5698,4.6235,4.6235,4.6261,4.6286,4.6286,4.6286,4.6286,4.6286,4.6286,4.6286,3.7918,3.8077,3.8236,3.8278,3.8487,3.8657,3.8775,3.8802,3.8893,3.9141,3.918,3.9245,3.9452,3.949,3.949,3.949,3.9063,3.8998,3.9464,3.9284,3.918,3.918,3.9387,3.9438,3.9297,3.9516,3.9645,3.9697,3.9697,3.9697,3.9697,3.9697,3.9697,3.9697,3.9697,3.9697,3.9697,3.9697,3.9697,3.9697,3.9697,3.9697,3.9697,3.9697,3.9697,3.9697,3.9697,3.9697,3.9697,3.9697,3.9697,3.9697,3.9697,3.9697,3.9697,3.9697,3.9697,3.9697,3.9697,3.9697,3.9697,3.9697,3.9697,3.9697,3.9697,3.9697,3.9697,3.9697,3.9697,3.9697,3.9697,3.9697,3.9697,3.9697,3.9697,3.9697,3.9697,3.9697,3.9697,3.9697,3.9697,3.9697,3.9697,3.9798,3.9898,3.9898,4.0526,4.1153,4.1679,4.177,4.2411,4.3765,4.3277,4.3014,4.3014,4.3014,4.3014,4.3014,4.3014,4.3014,4.3,4.3126,4.3478,4.4016,4.4141,4.4784,4.5673,4.5673,4.5924,4.6286,4.6286,4.6286,4.6286,4.6286,4.6286,4.6286,3.858,3.8723,3.8815,3.8815,3.8932,3.9063,3.918,3.9206,3.9271,3.9452,3.9465,3.9555,3.9684,3.9697,3.9697,3.9697,3.9388,3.9336,3.9684,3.9568,3.9465,3.9465,3.9633,3.9633,3.9503,3.9633,3.9697,3.9697,3.9697,3.9697,3.9697,3.9697,3.9697,3.9697,3.9697,3.9697,3.9697,3.9697,3.9697,3.9697,3.9697,3.9697,3.9697,3.9697,3.9697,3.9697,3.9697,3.9697,3.9697,3.9697,3.9697,3.9697,3.9697,3.9697,3.9697,3.9697,3.9697,3.9697,3.9697,3.9697,3.9697,3.9697,3.9697,3.9697,3.9697,3.9697,3.9697,3.9697,3.9697,3.9697,3.9697,3.9697,3.9697,3.9697,3.9697,3.9697,3.9697,3.9697,3.9697,3.9697,3.9697,3.9697,3.9697,3.9697,3.9697,3.9697,4.0437,4.0988,4.1289,4.2082,4.2838,4.3427,4.3151,4.3014,4.3014,4.3014,4.3014,4.3014,4.3014,4.3014,4.3014,4.3014,4.3302,4.379,4.379,4.4292,4.5095,4.5095,4.5257,4.5533,4.5533,4.5533,4.5533,4.5533,4.5533,4.5533,3.9349,3.9349,3.9349,3.9349,3.9349,3.9451,3.9671,3.9697,3.9697,3.9697,3.9697,3.9697,3.9697,3.9697,3.9697,3.9697,3.9697,3.9697,3.9697,3.9697,3.9697,3.9697,3.9697,3.9697,3.9697,3.9697,3.9697,3.9697,3.9697,3.9697,3.9697,3.9697,3.9697,3.9697,3.9697,3.9697,3.9697,3.9697,3.9697,3.9697,3.9697,3.9697,3.9697,3.9697,3.9697,3.9697,3.9697,3.9697,3.9697,3.9697,3.9697,3.9697,3.9697,3.9697,3.9697,3.9697,3.9697,3.9697,3.9697,3.9697,3.9697,3.9697,3.9697,3.9697,3.9697,3.9697,3.9697,3.9697,3.9697,3.9697,3.9697,3.9697,3.9697,3.9697,3.9622,3.9609,3.9697,3.9635,3.9609,3.9697,3.9697,3.9697,3.9697,3.9697,3.9697,3.9697,4.0675,4.1289,4.1289,4.2384,4.3014,4.3014,4.3014,4.3014,4.3014,4.3014,4.3014,4.3014,4.3014,4.3014,4.3014,4.3014,4.3251,4.3689,4.3689,4.3976,4.4478,4.4478,4.4529,4.4589,4.4589,4.4589,4.4589,4.4589,4.4589,4.4589,3.9645,3.9645,3.9645,3.9645,3.9645,3.9658,3.9697,3.9697,3.9697,3.9697,3.9697,3.9697,3.9697,3.9697,3.9697,3.9697,3.9697,3.9697,3.9697,3.9697,3.9697,3.9697,3.9697,3.9697,3.9697,3.9697,3.9697,3.9697,3.9697,3.9697,3.9697,3.9697,3.9697,3.9697,3.9697,3.9697,3.9697,3.9697,3.9697,3.9697,3.9697,3.9697,3.9697,3.9697,3.9697,3.9697,3.9697,3.9697,3.9697,3.9697,3.9697,3.9697,3.9697,3.9697,3.9697,3.9697,3.9697,3.9697,3.9697,3.9697,3.9697,3.9697,3.9697,3.9697,3.9697,3.9697,3.9697,3.9697,3.9697,3.9697,3.9697,3.9697,3.9697,3.9697,3.9321,3.9195,3.9635,3.9308,3.9183,3.966,3.9697,3.9697,3.9697,3.9697,3.9697,3.9697,4.0675,4.1289,4.1289,4.2384,4.3014,4.3014,4.3014,4.3014,4.3014,4.3014,4.3014,4.3014,4.3014,4.3014,4.3014,4.3014,4.3065,4.3126,4.3126,4.3427,4.3926,4.3926,4.4177,4.4589,4.4589,4.4589,4.4589,4.4589,4.4589,4.4589,3.9697,3.9697,3.9697,3.9697,3.9697,3.9697,3.9697,3.9697,3.9697,3.9697,3.9697,3.9697,3.9697,3.9697,3.9697,3.9697,3.9697,3.9697,3.9697,3.9697,3.9697,3.9697,3.9697,3.9697,3.9697,3.9697,3.9697,3.9697,3.9697,3.9697,3.9697,3.9697,3.9697,3.9697,3.9697,3.9697,3.9697,3.9697,3.9697,3.9697,3.9697,3.9697,3.9697,3.9697,3.9697,3.9697,3.9697,3.9697,3.9697,3.9697,3.9697,3.9697,3.9697,3.9697,3.9697,3.9697,3.9697,3.9697,3.9697,3.9697,3.9697,3.9697,3.9697,3.9697,3.9697,3.9697,3.9697,3.9697,3.9697,3.9697,3.9697,3.9697,3.9697,3.9697,3.9484,3.9409,3.9685,3.9484,3.9409,3.9685,3.9697,3.9697,3.9697,3.9697,3.9823,4.0124,4.0851,4.1428,4.1756,4.2548,4.3014,4.3014,4.3014,4.3014,4.3014,4.3014,4.3014,4.3014,4.3014,4.3014,4.3014,4.3014,4.3014,4.3014,4.3014,4.3126,4.3377,4.3377,4.3514,4.374,4.374,4.374,4.374,4.374,4.374,4.374,3.9697,3.9697,3.9697,3.9697,3.9697,3.9697,3.9697,3.9697,3.9697,3.9697,3.9697,3.9697,3.9697,3.9697,3.9697,3.9697,3.9697,3.9697,3.9697,3.9697,3.9697,3.9697,3.9697,3.9697,3.9697,3.9697,3.9697,3.9697,3.9697,3.9697,3.9697,3.9697,3.9697,3.9697,3.9697,3.9697,3.9697,3.9697,3.9697,3.9697,3.9697,3.9697,3.9697,3.9697,3.9697,3.9697,3.9697,3.9697,3.9697,3.9697,3.9697,3.9697,3.9697,3.9697,3.9697,3.9697,3.9697,3.9697,3.9697,3.9697,3.9697,3.9697,3.9697,3.9697,3.9697,3.9697,3.9697,3.9697,3.9697,3.9697,3.9697,3.9697,3.9697,3.9697,3.9609,3.9559,3.9672,3.9597,3.9559,3.9685,3.9697,3.9697,3.9697,3.9697,3.9923,4.0462,4.1001,4.1567,4.2174,4.2713,4.3014,4.3014,4.3014,4.3014,4.3014,4.3014,4.3014,4.3014,4.3014,4.3014,4.3014,4.3014,4.3014,4.3014,4.3014,4.3014,4.3014,4.3014,4.3014,4.3014,4.3014,4.3014,4.3014,4.3014,4.3014,4.3014,3.9697,3.9697,3.9697,3.9697,3.9697,3.9697,3.9697,3.9697,3.9697,3.9697,3.9697,3.9697,3.9697,3.9697,3.9697,3.9697,3.9697,3.9697,3.9697,3.9697,3.9697,3.9697,3.9697,3.9697,3.9697,3.9697,3.9697,3.9697,3.9697,3.9697,3.9697,3.9697,3.9697,3.9697,3.9697,3.9697,3.9697,3.9697,3.9697,3.9697,3.9697,3.9697,3.9697,3.9697,3.9697,3.9697,3.9697,3.9697,3.9697,3.9697,3.9697,3.9697,3.9697,3.9697,3.9697,3.9697,3.9697,3.9697,3.9697,3.9697,3.9697,3.9697,3.9697,3.9697,3.9697,3.9697,3.9697,3.9697,3.9697,3.9697,3.9697,3.9697,3.9697,3.9697,3.9283,3.9145,3.9635,3.9258,3.9145,3.9647,3.9697,3.9697,3.9697,3.9697,3.9923,4.0462,4.1001,4.1567,4.2174,4.2713,4.3014,4.3014,4.3014,4.3014,4.3014,4.3014,4.3014,4.3014,4.3014,4.3014,4.3014,4.3014,4.3014,4.3014,4.3014,4.3014,4.3014,4.3014,4.3014,4.3014,4.3014,4.3014,4.3014,4.3014,4.3014,4.3014,3.9697,3.9697,3.9697,3.9697,3.9697,3.9697,3.9697,3.9697,3.9697,3.9697,3.9697,3.9697,3.9697,3.9697,3.9697,3.9697,3.9697,3.9697,3.9697,3.9697,3.9697,3.9697,3.9697,3.9697,3.9697,3.9697,3.9697,3.9697,3.9697,3.9697,3.9697,3.9697,3.9697,3.9697,3.9697,3.9697,3.9697,3.9697,3.9697,3.9697,3.9697,3.9697,3.9697,3.9697,3.9697,3.9697,3.9697,3.9697,3.9697,3.9697,3.9697,3.9697,3.9697,3.9697,3.9697,3.9697,3.9697,3.9697,3.9697,3.9697,3.9697,3.9697,3.9697,3.9697,3.9697,3.9697,3.9697,3.9697,3.9697,3.9697,3.9697,3.9697,3.9697,3.9697,3.9534,3.9459,3.9685,3.9534,3.9459,3.9685,3.9697,3.9697,3.9697,3.9697,4.0074,4.0926,4.1188,4.1717,4.2637,4.2889,4.3014,4.3014,4.3014,4.3014,4.3014,4.3014,4.3014,4.3014,4.3014,4.3014,4.3014,4.3014,4.3014,4.3014,4.3014,4.3014,4.3014,4.3014,4.3014,4.3014,4.3014,4.3014,4.3014,4.3014,4.3014,4.3014,3.9697,3.9697,3.9697,3.9697,3.9697,3.9697,3.9697,3.9697,3.9697,3.9697,3.9697,3.9697,3.9697,3.9697,3.9697,3.9697,3.9697,3.9697,3.9697,3.9697,3.9697,3.9697,3.9697,3.9697,3.9697,3.9697,3.9697,3.9697,3.9697,3.9697,3.9697,3.9697,3.9697,3.9697,3.9697,3.9697,3.9697,3.9697,3.9762,3.9814,3.9814,3.9814,3.9814,3.9814,3.9774,3.9697,3.9697,3.9697,3.9697,3.9697,3.9697,3.9697,3.9697,3.9697,3.9697,3.9697,3.9697,3.9697,3.9697,3.9697,3.9697,3.9697,3.9697,3.9697,3.9697,3.9697,3.9697,3.9697,3.9697,3.9697,3.9697,3.9697,3.9697,3.9697,3.9697,3.9697,3.9697,3.9697,3.9697,3.9697,3.9697,3.9697,3.9697,3.9697,4.0136,4.1214,4.1289,4.1804,4.2939,4.3014,4.3014,4.3014,4.3014,4.3014,4.3014,4.3014,4.3014,4.3014,4.3014,4.3014,4.3014,4.3014,4.3014,4.3014,4.3014,4.3014,4.3014,4.3014,4.3014,4.3014,4.3014,4.3014,4.3014,4.3014,4.3014,4.3014,3.9697,3.9697,3.9697,3.9697,3.9697,3.9697,3.9697,3.9697,3.9697,3.9697,3.9697,3.9697,3.9697,3.9697,3.9697,3.9697,3.9697,3.9697,3.9697,3.9697,3.9697,3.9697,3.9697,3.9697,3.9697,3.9697,3.9697,3.9697,3.9697,3.9697,3.9697,3.9697,3.9697,3.9697,3.9697,3.9697,3.9697,3.9697,3.9852,4.0109,4.0109,4.0109,4.0109,4.0109,3.9929,3.9697,3.9697,3.9697,3.9697,3.9697,3.9697,3.9697,3.9697,3.9697,3.9697,3.9697,3.9697,3.9697,3.9697,3.9697,3.9697,3.9697,3.9697,3.9697,3.9697,3.9697,3.9697,3.9697,3.9697,3.9697,3.9697,3.9697,3.9697,3.9697,3.9697,3.9697,3.9697,3.9697,3.9697,3.9697,3.9697,3.9697,3.9697,3.9697,4.0149,4.1214,4.1314,4.1804,4.2939,4.3014,4.3014,4.3014,4.3014,4.3014,4.3014,4.3014,4.3014,4.3014,4.3014,4.3014,4.3014,4.3014,4.3014,4.3014,4.3014,4.3014,4.3014,4.3014,4.3014,4.3014,4.3014,4.3014,4.3014,4.3014,4.3014,4.3014,3.9697,3.9697,3.9697,3.9697,3.9697,3.9697,3.9697,3.9697,3.9697,3.9697,3.9697,3.9697,3.9697,3.9697,3.9697,3.9697,3.9697,3.9697,3.9697,3.9697,3.9697,3.9697,3.9697,3.9697,3.9697,3.9697,3.9697,3.9697,3.9697,3.9697,3.9697,3.9697,3.9697,3.9697,3.9697,3.9813,3.9981,3.9981,4.0134,4.0377,4.0377,4.0377,4.0351,4.0173,4.0057,3.9981,3.9981,3.9852,3.9736,3.9916,3.9852,3.9697,3.9697,3.9697,3.9697,3.9697,3.9697,3.9697,3.9697,3.9697,3.9697,3.9697,3.9697,3.9697,3.9697,3.9697,3.9697,3.9697,3.9697,3.9697,3.9697,3.9697,3.9697,3.9697,3.9697,3.9697,3.9697,3.9697,3.9697,3.9697,3.9697,3.9697,3.9697,4.0049,4.0563,4.1239,4.2044,4.2649,4.2975,4.3014,4.3014,4.3014,4.3014,4.3014,4.3014,4.3014,4.3014,4.3014,4.3014,4.3014,4.3014,4.3014,4.3014,4.3014,4.3014,4.3014,4.3014,4.3014,4.3014,4.3014,4.3014,4.3014,4.3014,4.3014,4.3014,4.3014,3.9697,3.9697,3.9697,3.9697,3.9697,3.9697,3.9697,3.9697,3.9697,3.9697,3.9697,3.9697,3.9697,3.9697,3.9697,3.9697,3.9697,3.9697,3.9697,3.9697,3.9697,3.9697,3.9697,3.9697,3.9697,3.9697,3.9697,3.9697,3.9697,3.9697,3.9697,3.9697,3.9697,3.9697,3.9697,3.9839,4.0109,4.0109,4.0326,4.0656,4.0656,4.0656,4.0631,4.0478,4.0351,4.0262,4.0262,4.0147,4.0006,4.0083,3.9916,3.9697,3.9697,3.9697,3.9697,3.9697,3.9697,3.9697,3.9697,3.9697,3.9697,3.9697,3.9697,3.9697,3.9697,3.9697,3.9697,3.9697,3.9697,3.9697,3.9697,3.9697,3.9697,3.9697,3.9697,3.9697,3.9697,3.9697,3.9697,3.9697,3.9697,3.9697,3.9697,4.0186,4.0814,4.1605,4.2498,4.3014,4.3014,4.3014,4.3014,4.3014,4.3014,4.3014,4.3014,4.3014,4.3014,4.3014,4.3014,4.3014,4.3014,4.3014,4.3014,4.3014,4.3014,4.3014,4.3014,4.3014,4.3014,4.3014,4.3014,4.3014,4.3014,4.3014,4.3014,4.3014,3.9697,3.9697,3.9697,3.9697,3.9697,3.9697,3.9697,3.9697,3.9697,3.9697,3.9697,3.9697,3.9697,3.9697,3.9697,3.9697,3.9697,3.9697,3.9697,3.9697,3.9697,3.9697,3.9697,3.9697,3.9697,3.9697,3.9697,3.9697,3.9697,3.9697,3.9697,3.9697,3.9697,3.9697,3.9736,3.9878,4.0147,4.0173,4.0478,4.0946,4.0946,4.0946,4.0934,4.0921,4.0757,4.0529,4.0529,4.0504,4.0453,4.0198,3.9916,3.9697,3.9697,3.9697,3.9697,3.9697,3.9697,3.9697,3.9697,3.9697,3.9697,3.9697,3.9697,3.9697,3.9697,3.9697,3.9697,3.9697,3.9697,3.9697,3.9697,3.9697,3.9697,3.9697,3.9697,3.9697,3.9697,3.9697,3.9697,3.9697,3.9697,3.9735,3.9785,4.03,4.1103,4.2199,4.2713,4.3014,4.3014,4.3014,4.3014,4.3014,4.3014,4.3014,4.3014,4.3014,4.3014,4.3014,4.3014,4.3014,4.3014,4.3014,4.3014,4.3014,4.3014,4.3014,4.3014,4.3014,4.3014,4.3014,4.3014,4.3014,4.3014,4.3014,4.3014,4.3014,3.9697,3.9697,3.9697,3.9697,3.9697,3.9697,3.9697,3.9697,3.9697,3.9697,3.9697,3.9697,3.9697,3.9697,3.9697,3.9697,3.9697,3.9697,3.9697,3.9697,3.9697,3.9697,3.9697,3.9697,3.9697,3.9697,3.9697,3.9697,3.9697,3.9697,3.9697,3.9697,3.9697,3.971,3.9916,4.016,4.0427,4.0643,4.0921,4.1198,4.1198,4.1198,4.1185,4.0984,4.0871,4.082,4.082,4.0681,4.0453,4.0198,3.9916,3.9697,3.9697,3.9697,3.9697,3.9697,3.9697,3.9697,3.9697,3.9697,3.9697,3.9697,3.9697,3.9697,3.9697,3.9697,3.9697,3.9697,3.9697,3.9697,3.9697,3.9697,3.9697,3.9697,3.9697,3.9697,3.9697,3.9697,3.9697,3.9697,3.9697,3.9873,4.0287,4.1242,4.211,4.2788,4.2925,4.3014,4.3014,4.3014,4.3014,4.3014,4.3014,4.3014,4.3014,4.3014,4.3014,4.3014,4.3014,4.3014,4.3014,4.3014,4.3014,4.3014,4.3014,4.3014,4.3014,4.3014,4.3014,4.3014,4.3014,4.3014,4.3014,4.3014,4.3014,4.3014,3.9697,3.9697,3.9697,3.9697,3.9697,3.9697,3.9697,3.9697,3.9697,3.9697,3.9697,3.9697,3.9697,3.9697,3.9697,3.9697,3.9697,3.9697,3.9697,3.9697,3.9697,3.9697,3.9697,3.9697,3.9697,3.9697,3.9697,3.9697,3.9697,3.9697,3.9697,3.9697,3.9697,3.971,3.9981,4.0249,4.0504,4.0795,4.106,4.1311,4.1311,4.1311,4.1286,4.1135,4.1085,4.1085,4.1085,4.0921,4.0669,4.0542,4.03,4.007,3.9916,3.9878,3.9865,3.9749,3.9697,3.9697,3.9697,3.9697,3.9697,3.9697,3.9697,3.9697,3.9697,3.9697,3.9697,3.9697,3.9697,3.9697,3.9697,3.9697,3.9697,3.9697,3.9697,3.9697,3.9697,3.9697,3.9697,3.9697,3.9697,4.0023,4.08,4.1669,4.2425,4.2964,4.3014,4.3014,4.3014,4.3014,4.3014,4.3014,4.3014,4.3014,4.3014,4.3014,4.3014,4.3014,4.3014,4.3014,4.3014,4.3014,4.3014,4.3014,4.3014,4.3014,4.3014,4.3014,4.3014,4.3014,4.3014,4.3014,4.3014,4.3014,4.3014,4.3014,3.9697,3.9697,3.9697,3.9697,3.9697,3.9697,3.9697,3.9697,3.9697,3.9697,3.9697,3.9697,3.9697,3.9697,3.9697,3.9697,3.9697,3.9697,3.9697,3.9697,3.9697,3.9697,3.9697,3.9697,3.9697,3.9697,3.9697,3.9697,3.9697,3.9697,3.9697,3.9697,3.9723,3.9787,4.0045,4.0313,4.058,4.0858,4.1097,4.1311,4.1311,4.1311,4.1311,4.1311,4.1311,4.1311,4.1311,4.1097,4.0846,4.0883,4.0694,4.0389,4.0224,4.0147,4.007,3.9814,3.9749,3.9697,3.9697,3.9697,3.9697,3.9697,3.9697,3.9697,3.9697,3.9697,3.9697,3.9697,3.9697,3.9697,3.9697,3.9697,3.9697,3.9697,3.9697,3.9697,3.9697,3.9697,3.9697,3.9697,3.9848,4.0362,4.1352,4.1996,4.2526,4.2964,4.3014,4.3014,4.3014,4.3014,4.3014,4.3014,4.3014,4.3014,4.3014,4.3014,4.3014,4.3014,4.3014,4.3014,4.3014,4.3014,4.3014,4.3014,4.3014,4.3014,4.3014,4.3014,4.3014,4.3014,4.3014,4.3014,4.3014,4.3014,4.3014,4.3014,3.9697,3.9697,3.9697,3.9697,3.9697,3.9697,3.9697,3.9697,3.9697,3.9697,3.9697,3.9697,3.9697,3.9697,3.9697,3.9697,3.9697,3.9697,3.9697,3.9697,3.9697,3.9697,3.9697,3.9697,3.9697,3.9697,3.9697,3.9697,3.9697,3.9697,3.9697,3.9697,3.9814,4.007,4.0326,4.0593,4.0871,4.1122,4.1286,4.1311,4.1311,4.1311,4.1311,4.1311,4.1311,4.1311,4.1311,4.0985,4.058,4.082,4.058,4.0198,4.0377,4.0287,4.0096,4.007,3.9878,3.9697,3.9697,3.9697,3.9697,3.9697,3.9697,3.9697,3.9697,3.9697,3.9697,3.9697,3.9697,3.9697,3.9697,3.9697,3.9697,3.9697,3.9697,3.9697,3.9697,3.9697,3.9697,3.9697,4.0512,4.1341,4.2009,4.2562,4.2914,4.2989,4.3014,4.3014,4.3014,4.3014,4.3014,4.3014,4.3014,4.3014,4.3014,4.3014,4.3014,4.3014,4.3014,4.3014,4.3014,4.3014,4.3014,4.3014,4.3014,4.3014,4.3014,4.3014,4.3014,4.3014,4.3014,4.3014,4.3014,4.3014,4.3014,4.3014,3.9697,3.9697,3.9697,3.9697,3.9697,3.9697,3.9697,3.9697,3.9697,3.9697,3.9697,3.9697,3.9697,3.9697,3.9697,3.9697,3.9697,3.9697,3.9697,3.9697,3.9697,3.9697,3.9697,3.9697,3.9697,3.9697,3.9697,3.9697,3.9697,3.9697,3.9697,3.9839,3.9993,4.0134,4.0542,4.0795,4.0921,4.1199,4.1311,4.1311,4.1311,4.1311,4.1311,4.1311,4.1311,4.1286,4.1122,4.082,4.0529,4.082,4.0757,4.058,4.0694,4.0542,4.0287,4.0147,3.9904,3.9697,3.9697,3.9697,3.9697,3.9697,3.9697,3.9697,3.9697,3.9697,3.9697,3.9697,3.9697,3.9697,3.9697,3.9697,3.9697,3.9697,3.9697,3.9697,3.9697,3.9697,3.9798,4.0124,4.0826,4.1542,4.2149,4.2688,4.3014,4.3014,4.3014,4.3014,4.3014,4.3014,4.3014,4.3014,4.3014,4.3014,4.3014,4.3014,4.3014,4.3014,4.3014,4.3014,4.3014,4.3014,4.3014,4.3014,4.3014,4.3014,4.3014,4.3014,4.3014,4.3014,4.3014,4.3014,4.3014,4.3014,4.3014,4.3014]}]]